[[{"header":{"parameterUnit":"m.s-1","parameterCategory":1,"la1":30.6,"la2":28.766,"lo1":-90.7593,"lo2":-88.6598,"dy":0.0162,"dx":0.0183,"nx":116,"ny":114,"refTime":"2024-03-23T06:00:00:Z","depth":0,"parameterNumber":2,"parameterNumberName":"U-component_of_WINDS"},"data":[0.0,0.0,0.0,0.0,0.0,0.0,0.0,0.0,0.0,0.0,0.0,0.0,0.0,0.0,0.0,0.0,0.0,0.0,0.0,0.0,0.0,0.0,0.0,0.0,0.0,0.0,0.0,0.0,0.0,0.0,0.0,0.0,0.0,0.0,0.0,0.0,0.0,0.0,0.0,0.0,0.0,0.0,0.0,0.0,0.0,0.0,0.0,0.0,0.0,0.0,0.0,0.0,0.0,0.0,0.0,0.0,0.0,0.0,0.0,0.0,0.0,0.0,0.0,0.0,0.0,0.0,0.0,0.0,0.0,0.0,0.0,0.0,0.0,0.0,0.0,0.0,0.0,0.0,0.0,0.0,0.0,0.0,0.0,0.0,0.0,0.0,0.0,0.0,0.0,0.0,0.0,0.0,0.0,0.0,0.0,0.0,0.0,0.0,0.0,0.0,0.0,0.0,0.0,0.0,0.0,0.0,0.0,0.0,0.0,0.0,0.0,0.0,0.0,0.0,0.0,0.0,0.0,0.0,0.0,0.0,0.0,0.0,0.0,0.0,0.0,0.0,0.0,0.0,0.0,0.0,0.0,0.0,0.0,0.0,0.0,0.0,0.0,0.0,0.0,0.0,0.0,0.0,0.0,0.0,0.0,0.0,0.0,0.0,0.0,0.0,0.0,0.0,0.0,0.0,0.0,0.0,0.0,0.0,0.0,0.0,0.0,0.0,0.0,0.0,0.0,0.0,0.0,0.0,0.0,0.0,0.0,0.0,0.0,0.0,0.0,0.0,0.0,0.0,0.0,0.0,0.0,0.0,0.0,0.0,0.0,0.0,0.0,0.0,0.0,0.0,0.0,0.0,0.0,0.0,0.0,0.0,0.0,0.0,0.0,0.0,0.0,0.0,0.0,0.0,0.0,0.0,0.0,0.0,0.0,0.0,0.0,0.0,0.0,0.0,0.0,0.0,0.0,0.0,0.0,0.0,0.0,0.0,0.0,0.0,0.0,0.0,0.0,0.0,0.0,0.0,0.0,0.0,0.0,0.0,0.0,0.0,0.0,0.0,0.0,0.0,0.0,0.0,0.0,0.0,0.0,0.0,0.0,0.0,0.0,0.0,0.0,0.0,0.0,0.0,0.0,0.0,0.0,0.0,0.0,0.0,0.0,0.0,0.0,0.0,0.0,0.0,0.0,0.0,0.0,0.0,0.0,0.0,0.0,0.0,0.0,0.0,0.0,0.0,0.0,0.0,0.0,0.0,0.0,0.0,0.0,0.0,0.0,0.0,0.0,0.0,0.0,0.0,0.0,0.0,0.0,0.0,0.0,0.0,0.0,0.0,0.0,0.0,0.0,0.0,0.0,0.0,0.0,0.0,0.0,0.0,0.0,0.0,0.0,0.0,0.0,0.0,0.0,0.0,0.0,0.0,0.0,0.0,0.0,0.0,0.0,0.0,0.0,0.0,0.0,0.0,0.0,0.0,0.0,0.0,0.0,0.0,0.0,0.0,0.0,0.0,0.0,0.0,0.0,0.0,0.0,0.0,0.0,0.0,0.0,0.0,0.0,0.0,0.0,0.0,0.0,0.0,0.0,0.0,0.0,0.0,0.0,0.0,0.0,0.0,0.0,0.0,0.0,0.0,0.0,0.0,0.0,0.0,0.0,0.0,0.0,0.0,0.0,0.0,0.0,0.0,0.0,0.0,0.0,0.0,0.0,0.0,0.0,0.0,0.0,0.0,0.0,0.0,0.0,0.0,0.0,0.0,0.0,0.0,0.0,0.0,0.0,0.0,0.0,0.0,0.0,0.0,0.0,0.0,0.0,0.0,0.0,0.0,0.0,0.0,0.0,0.0,0.0,0.0,0.0,0.0,0.0,0.0,0.0,0.0,0.0,0.0,0.0,0.0,0.0,0.0,0.0,0.0,0.0,0.0,0.0,0.0,0.0,0.0,0.0,0.0,0.0,0.0,0.0,0.0,0.0,0.0,0.0,0.0,0.0,0.0,0.0,0.0,0.0,0.0,0.0,0.0,0.0,0.0,0.0,0.0,0.0,0.0,0.0,0.0,0.0,0.0,0.0,0.0,0.0,0.0,0.0,0.0,0.0,0.0,0.0,0.0,0.0,0.0,0.0,0.0,0.0,0.0,0.0,0.0,0.0,0.0,0.0,0.0,0.0,0.0,0.0,0.0,0.0,0.0,0.0,0.0,0.0,0.0,0.0,0.0,0.0,0.0,0.0,0.0,0.0,0.0,0.0,0.0,0.0,0.0,0.0,0.0,0.0,0.0,0.0,0.0,0.0,0.0,0.0,0.0,0.0,0.0,0.0,0.0,0.0,0.0,0.0,0.0,0.0,0.0,0.0,0.0,0.0,0.0,0.0,0.0,0.0,0.0,0.0,0.0,0.0,0.0,0.0,0.0,0.0,0.0,0.0,0.0,0.0,0.0,0.0,0.0,0.0,0.0,0.0,0.0,0.0,0.0,0.0,0.0,0.0,0.0,0.0,0.0,0.0,0.0,0.0,0.0,0.0,0.0,0.0,0.0,0.0,0.0,0.0,0.0,0.0,0.0,0.0,0.0,0.0,0.0,0.0,0.0,0.0,0.0,0.0,0.0,0.0,0.0,0.0,0.0,0.0,0.0,0.0,0.0,0.0,0.0,0.0,0.0,0.0,0.0,0.0,0.0,0.0,0.0,0.0,0.0,0.0,0.0,0.0,0.0,0.0,0.0,0.0,0.0,0.0,0.0,0.0,0.0,0.0,0.0,0.0,0.0,0.0,0.0,0.0,0.0,0.0,0.0,0.0,0.0,0.0,0.0,0.0,0.0,0.0,0.0,0.0,0.0,0.0,0.0,0.0,0.0,0.0,0.0,0.0,0.0,0.0,0.0,0.0,0.0,0.0,0.0,0.0,0.0,0.0,0.0,0.0,0.0,0.0,0.0,0.0,0.0,0.0,0.0,0.0,0.0,0.0,0.0,0.0,0.0,0.0,0.0,0.0,0.0,0.0,0.0,0.0,0.0,0.0,0.0,0.0,0.0,0.0,0.0,0.0,0.0,0.0,0.0,0.0,0.0,0.0,0.0,0.0,0.0,0.0,0.0,0.0,0.0,0.0,0.0,0.0,0.0,0.0,0.0,0.0,0.0,0.0,0.0,0.0,0.0,0.0,0.0,0.0,0.0,0.0,0.0,0.0,0.0,0.0,0.0,0.0,0.0,0.0,0.0,0.0,0.0,0.0,0.0,0.0,0.0,0.0,0.0,0.0,0.0,0.0,0.0,0.0,0.0,0.0,0.0,0.0,0.0,0.0,0.0,0.0,0.0,0.0,0.0,0.0,0.0,0.0,0.0,0.0,0.0,0.0,0.0,0.0,0.0,0.0,0.0,0.0,0.0,0.0,0.0,0.0,0.0,0.0,0.0,0.0,0.0,0.0,0.0,0.0,0.0,0.0,0.0,0.0,0.0,0.0,0.0,0.0,0.0,0.0,0.0,0.0,0.0,0.0,0.0,0.0,0.0,0.0,0.0,0.0,0.0,0.0,0.0,0.0,0.0,0.0,0.0,0.0,0.0,0.0,0.0,0.0,0.0,0.0,0.0,0.0,0.0,0.0,0.0,0.0,0.0,0.0,0.0,0.0,0.0,0.0,0.0,0.0,0.0,0.0,0.0,0.0,0.0,0.0,0.0,0.0,0.0,0.0,0.0,0.0,0.0,0.0,0.0,0.0,0.0,0.0,0.0,0.0,0.0,0.0,0.0,0.0,0.0,0.0,0.0,0.0,0.0,0.0,0.0,0.0,0.0,0.0,0.0,0.0,0.0,0.0,0.0,0.0,0.0,0.0,0.0,0.0,0.0,0.0,0.0,0.0,0.0,0.0,0.0,0.0,0.0,0.0,0.0,0.0,0.0,0.0,0.0,0.0,0.0,0.0,0.0,0.0,0.0,0.0,0.0,0.0,0.0,0.0,0.0,0.0,0.0,0.0,0.0,0.0,0.0,0.0,0.0,0.0,0.0,0.0,0.0,0.0,0.0,0.0,0.0,0.0,0.0,0.0,0.0,0.0,0.0,0.0,0.0,0.0,0.0,0.0,0.0,0.0,0.0,0.0,0.0,0.0,0.0,0.0,0.0,0.0,0.0,0.0,0.0,0.0,0.0,0.0,0.0,0.0,0.0,0.0,0.0,0.0,0.0,0.0,0.0,0.0,0.0,0.0,0.0,0.0,0.0,0.0,0.0,0.0,0.0,0.0,0.0,0.0,0.0,0.0,0.0,0.0,0.0,0.0,0.0,0.0,0.0,0.0,0.0,0.0,0.0,0.0,0.0,0.0,0.0,0.0,0.0,0.0,0.0,0.0,0.0,0.0,0.0,0.0,0.0,0.0,0.0,0.0,0.0,0.0,0.0,0.0,0.0,0.0,0.0,0.0,0.0,0.0,0.0,0.0,0.0,0.0,0.0,0.0,0.0,0.0,0.0,0.0,0.0,0.0,0.0,0.0,0.0,0.0,0.0,0.0,0.0,0.0,0.0,0.0,0.0,0.0,0.0,0.0,0.0,0.0,0.0,0.0,0.0,0.0,0.0,0.0,0.0,0.0,0.0,0.0,0.0,0.0,0.0,0.0,0.0,0.0,0.0,0.0,0.0,0.0,0.0,0.0,0.0,0.0,0.0,0.0,0.0,0.0,0.0,0.0,0.0,0.0,0.0,0.0,0.0,0.0,0.0,0.0,0.0,0.0,0.0,0.0,0.0,0.0,0.0,0.0,0.0,0.0,0.0,0.0,0.0,0.0,0.0,0.0,0.0,0.0,0.0,0.0,0.0,0.0,0.0,0.0,0.0,0.0,0.0,0.0,0.0,0.0,0.0,0.0,0.0,0.0,0.0,0.0,0.0,0.0,0.0,0.0,0.0,0.0,0.0,0.0,0.0,0.0,0.0,0.0,0.0,0.0,0.0,0.0,0.0,0.0,0.0,0.0,0.0,0.0,0.0,0.0,0.0,0.0,0.0,0.0,0.0,0.0,0.0,0.0,0.0,0.0,0.0,0.0,0.0,0.0,0.0,0.0,0.0,0.0,0.0,0.0,0.0,0.0,0.0,0.0,0.0,0.0,0.0,0.0,0.0,0.0,0.0,0.0,0.0,0.0,0.0,0.0,0.0,0.0,0.0,0.0,0.0,0.0,0.0,0.0,0.0,0.0,0.0,0.0,0.0,0.0,0.0,0.0,0.0,0.0,0.0,0.0,0.0,0.0,0.0,0.0,0.0,0.0,0.0,0.0,0.0,0.0,0.0,0.0,0.0,0.0,0.0,0.0,0.0,0.0,0.0,0.0,0.0,0.0,0.0,0.0,0.0,0.0,0.0,0.0,0.0,0.0,0.0,0.0,0.0,0.0,0.0,0.0,0.0,0.0,0.0,0.0,0.0,0.0,0.0,0.0,0.0,0.0,0.0,0.0,0.0,0.0,0.0,0.0,0.0,0.0,0.0,0.0,0.0,0.0,0.0,0.0,0.0,0.0,0.0,0.0,0.0,0.0,0.0,0.0,0.0,0.0,0.0,0.0,0.0,0.0,0.0,0.0,0.0,0.0,0.0,0.0,0.0,0.0,0.0,0.0,0.0,0.0,0.0,0.0,0.0,0.0,0.0,0.0,0.0,0.0,0.0,0.0,0.0,0.0,0.0,0.0,0.0,0.0,0.0,0.0,0.0,0.0,0.0,0.0,0.0,0.0,0.0,0.0,0.0,0.0,0.0,0.0,0.0,0.0,0.0,0.0,0.0,0.0,0.0,0.0,0.0,0.0,0.0,0.0,0.0,0.0,0.0,0.0,0.0,0.0,0.0,0.0,0.0,0.0,0.0,0.0,0.0,0.0,0.0,0.0,0.0,0.0,0.0,0.0,0.0,0.0,0.0,0.0,0.0,0.0,0.0,0.0,0.0,0.0,0.0,0.0,0.0,0.0,0.0,0.0,0.0,0.0,0.0,0.0,0.0,0.0,0.0,0.0,0.0,0.0,0.0,0.0,0.0,0.0,0.0,0.0,0.0,0.0,0.0,0.0,0.0,0.0,0.0,0.0,0.0,0.0,0.0,0.0,0.0,0.0,0.0,0.0,0.0,0.0,0.0,4.7878,0.0,0.0,0.0,0.0,0.0,0.0,0.0,0.0,0.0,0.0,0.0,0.0,0.0,0.0,0.0,0.0,0.0,0.0,0.0,0.0,0.0,0.0,0.0,0.0,0.0,0.0,0.0,0.0,0.0,0.0,0.0,0.0,0.0,0.0,0.0,7.3665,7.3665,7.4272,7.5604,7.6654,7.7587,7.8347,7.8949,7.8435,7.6978,0.0,0.0,0.0,0.0,0.0,0.0,0.0,0.0,0.0,0.0,0.0,0.0,0.0,0.0,0.0,0.0,0.0,0.0,0.0,0.0,0.0,0.0,0.0,0.0,0.0,0.0,0.0,0.0,0.0,0.0,0.0,0.0,0.0,0.0,0.0,0.0,0.0,0.0,0.0,0.0,0.0,0.0,0.0,0.0,0.0,0.0,0.0,0.0,0.0,0.0,0.0,0.0,0.0,0.0,0.0,0.0,0.0,0.0,0.0,0.0,0.0,0.0,0.0,0.0,0.0,0.0,0.0,0.0,0.0,0.0,0.0,4.8955,0.0,0.0,0.0,0.0,0.0,0.0,0.0,0.0,0.0,0.0,0.0,0.0,0.0,0.0,0.0,0.0,0.0,0.0,0.0,0.0,0.0,0.0,0.0,7.5823,7.6735,7.8453,7.7158,7.648,7.7158,7.4659,7.3411,7.4114,7.3269,7.3085,7.368,7.3966,7.4843,7.6158,7.6931,7.8351,8.0424,8.0021,7.934,7.8521,7.8056,0.0,0.0,0.0,0.0,0.0,0.0,0.0,0.0,0.0,0.0,0.0,0.0,0.0,0.0,0.0,0.0,0.0,0.0,0.0,0.0,0.0,0.0,0.0,0.0,0.0,0.0,0.0,0.0,0.0,0.0,0.0,0.0,0.0,0.0,0.0,0.0,0.0,0.0,0.0,0.0,0.0,0.0,0.0,0.0,0.0,0.0,0.0,0.0,0.0,0.0,0.0,0.0,0.0,0.0,0.0,0.0,0.0,0.0,0.0,0.0,0.0,0.0,0.0,5.7782,5.865,5.9638,5.9638,5.9518,5.9099,5.5299,5.2187,4.9942,0.0,0.0,0.0,0.0,0.0,0.0,0.0,0.0,0.0,0.0,0.0,0.0,0.0,0.0,0.0,0.0,0.0,0.0,0.0,0.0,0.0,0.0,7.6003,7.7352,7.849,7.8986,7.8887,7.8095,7.6742,7.5755,7.4996,7.4774,7.4542,7.4458,7.6016,7.6553,7.6071,7.8775,8.1055,8.2957,8.4242,8.4762,8.4369,7.8695,7.716,7.8783,0.0,0.0,0.0,0.0,0.0,0.0,0.0,0.0,0.0,0.0,0.0,0.0,0.0,0.0,0.0,0.0,0.0,0.0,0.0,0.0,0.0,0.0,0.0,0.0,0.0,0.0,0.0,0.0,0.0,0.0,0.0,0.0,0.0,0.0,0.0,0.0,0.0,0.0,0.0,0.0,0.0,5.2582,5.2262,0.0,0.0,0.0,0.0,0.0,0.0,0.0,0.0,0.0,0.0,0.0,0.0,0.0,0.0,5.8052,5.9308,6.0116,6.0475,6.1702,6.2091,6.1702,6.1702,6.26,6.4096,6.3468,0.0,5.5777,5.3862,0.0,0.0,0.0,0.0,0.0,0.0,0.0,0.0,0.0,0.0,0.0,0.0,0.0,0.0,0.0,0.0,0.0,0.0,0.0,0.0,0.0,7.6265,7.7824,7.9773,8.1355,8.1587,7.9871,7.9345,7.842,7.6667,7.5395,7.4946,7.5202,7.6107,7.7313,7.8611,8.1455,8.3724,8.5453,8.6628,8.7399,8.7692,8.4235,8.2126,8.0891,7.8783,0.0,0.0,0.0,0.0,0.0,0.0,0.0,0.0,0.0,0.0,0.0,0.0,0.0,0.0,0.0,0.0,0.0,0.0,0.0,0.0,0.0,0.0,0.0,0.0,0.0,0.0,0.0,0.0,0.0,0.0,0.0,0.0,0.0,0.0,0.0,0.0,0.0,0.0,0.0,5.4516,5.6854,5.5149,5.7556,5.8502,0.0,0.0,0.0,0.0,0.0,0.0,0.0,0.0,0.0,5.8052,5.9009,6.0086,6.1313,6.266,6.4066,6.5562,6.6849,6.7717,6.8166,6.8166,6.8645,6.9453,6.9064,6.7358,6.4545,6.0446,5.6765,5.3623,0.0,0.0,0.0,0.0,5.072,5.1109,0.0,0.0,0.0,0.0,0.0,0.0,0.0,0.0,0.0,0.0,0.0,0.0,7.5543,7.7127,7.9203,8.2267,8.3806,8.4208,8.3184,8.177,8.0338,7.8806,7.6745,7.5688,7.598,7.6913,7.8623,8.12,8.4527,8.6958,8.861,9.0005,9.1106,9.1877,9.1253,8.8536,8.4175,8.2024,8.0114,7.8278,0.0,0.0,0.0,0.0,0.0,0.0,0.0,0.0,0.0,0.0,0.0,0.0,0.0,0.0,0.0,0.0,0.0,0.0,0.0,0.0,0.0,0.0,0.0,0.0,0.0,0.0,0.0,0.0,0.0,0.0,0.0,0.0,0.0,0.0,0.0,0.0,0.0,5.6829,5.9574,5.731,6.0248,6.1322,0.0,0.0,0.0,0.0,0.0,0.0,5.8501,5.9907,6.1164,6.2331,6.3169,6.4156,6.5323,6.646,6.8286,7.0769,7.1727,7.2804,7.3911,7.3911,7.3911,7.3881,7.3373,7.2595,7.1248,6.5981,6.1104,5.6885,5.5867,5.464,5.3503,5.3653,5.4012,5.4551,0.0,0.0,0.0,0.0,0.0,0.0,0.0,0.0,0.0,0.0,0.0,7.2962,7.6293,7.8956,8.2141,8.6339,8.6082,8.6632,8.8867,8.3702,8.082,8.1236,7.9374,7.7846,7.6826,7.9635,8.1631,8.2788,8.7851,9.1143,9.2868,9.5951,9.7823,9.8631,9.8594,9.5437,8.9821,8.4395,8.2345,8.2467,7.8386,0.0,0.0,0.0,0.0,0.0,0.0,0.0,0.0,0.0,0.0,0.0,0.0,0.0,0.0,0.0,0.0,0.0,0.0,0.0,0.0,0.0,0.0,0.0,0.0,0.0,0.0,0.0,0.0,0.0,0.0,0.0,0.0,0.0,0.0,0.0,0.0,0.0,0.0,5.7258,6.1126,0.0,0.0,0.0,0.0,5.9697,6.0924,6.1972,6.275,6.4006,6.5054,6.5742,6.6999,6.8884,7.1427,7.2146,7.3552,7.5557,7.5617,7.6006,7.6634,7.6634,7.6634,7.6634,7.6604,7.5497,7.3343,6.8046,6.5323,6.4096,6.0326,5.9189,5.9488,5.8261,5.7842,5.7693,0.0,0.0,0.0,0.0,0.0,0.0,0.0,0.0,7.1312,7.1312,7.2811,7.5205,7.8709,8.2799,8.6824,9.0593,9.2574,9.3272,9.2611,8.7811,8.4385,8.301,7.945,7.819,7.974,8.147,8.4448,8.8655,9.261,9.6171,9.9328,10.1494,10.2999,10.3806,10.3219,10.1494,9.8704,9.1436,8.7332,8.5224,8.0547,7.7909,0.0,0.0,0.0,0.0,0.0,0.0,0.0,0.0,0.0,0.0,0.0,0.0,0.0,0.0,0.0,0.0,0.0,0.0,0.0,0.0,0.0,0.0,0.0,0.0,0.0,0.0,0.0,0.0,0.0,0.0,0.0,0.0,0.0,0.0,0.0,0.0,0.0,6.3348,6.7178,0.0,6.5413,6.3797,6.3199,6.3857,6.4336,6.5473,6.7418,6.9153,7.059,7.1667,7.2595,7.3732,7.5048,7.5318,7.6006,7.7143,7.7562,7.7861,7.81,7.81,7.7861,7.7442,7.7023,7.6215,7.5018,7.2684,6.9812,6.6729,6.4904,6.3797,6.3228,6.275,6.2839,6.3079,0.0,0.0,0.0,0.0,0.0,0.0,0.0,0.0,7.121,7.0973,7.3963,7.738,8.0891,8.6283,9.1243,9.5178,9.6722,9.6906,9.5584,9.0231,8.6203,8.4251,8.0593,7.9658,8.1809,8.4715,8.8535,9.3088,9.6869,10.0503,10.399,10.5311,10.6413,10.7183,10.6596,10.5899,10.4798,9.8814,9.3822,8.9456,8.4717,8.2355,8.1077,0.0,0.0,0.0,0.0,0.0,0.0,0.0,0.0,0.0,0.0,0.0,0.0,0.0,0.0,0.0,0.0,0.0,0.0,0.0,0.0,0.0,0.0,0.0,0.0,0.0,0.0,0.0,0.0,0.0,0.0,0.0,0.0,0.0,0.0,0.0,6.6071,6.8076,7.1637,7.3073,7.0859,6.9243,6.8525,6.8974,6.9423,7.053,7.2505,7.4061,7.5288,7.6155,7.6874,7.7412,7.7831,7.8071,7.837,7.8819,7.9267,7.9477,7.9477,7.9238,7.8908,7.846,7.7771,7.7143,7.6514,7.6066,7.3791,7.05,6.9153,6.8106,6.7328,6.7089,6.7298,6.7508,0.0,0.0,0.0,0.0,0.0,0.0,0.0,7.1312,7.1041,7.0331,7.4809,7.9365,8.2654,8.9257,9.5327,10.0099,9.8264,9.7199,9.797,9.0788,8.5993,8.489,8.3011,8.24,8.3218,8.9437,9.3732,9.5768,10.0503,10.41,10.6596,10.7367,10.8175,10.8909,10.8909,10.8505,10.7661,10.6082,10.1714,9.5621,9.1326,8.8509,8.648,0.0,0.0,0.0,0.0,0.0,0.0,0.0,0.0,0.0,0.0,0.0,0.0,0.0,0.0,0.0,0.0,0.0,0.0,0.0,0.0,0.0,0.0,0.0,0.0,0.0,0.0,0.0,0.0,0.0,0.0,0.0,0.0,0.0,5.9009,6.4366,6.8824,7.0859,7.4061,7.5617,7.433,7.4779,7.5138,7.5138,7.6305,7.7293,7.7921,7.8579,7.8908,7.8908,7.9567,7.9896,7.9896,8.0554,8.0853,8.0853,8.0883,8.0883,8.0823,8.0195,7.9896,7.9806,7.9118,7.846,7.7831,7.7831,7.7083,7.5677,7.3043,7.1996,7.1906,7.1248,7.0979,7.0649,0.0,0.0,0.0,0.0,0.0,0.0,0.0,7.1312,7.1244,7.1041,7.7089,8.2465,8.5144,9.4196,10.131,10.4504,10.2485,10.0765,10.0165,9.139,8.5194,8.2956,8.2713,8.4944,8.9834,9.3601,9.7588,10.1604,10.4687,10.7477,10.99,11.0707,11.1478,11.2286,11.2286,11.2176,11.1882,11.1478,10.9606,10.6119,9.7346,9.2341,8.9589,0.0,0.0,0.0,0.0,0.0,0.0,0.0,0.0,0.0,0.0,0.0,0.0,0.0,0.0,0.0,0.0,0.0,0.0,0.0,0.0,0.0,0.0,0.0,0.0,0.0,0.0,0.0,0.0,0.0,0.0,0.0,0.0,6.3904,6.3434,6.7268,7.1547,7.5437,7.8849,8.0913,8.1033,8.1183,8.1093,8.0644,8.0913,8.1212,8.1392,8.1572,8.1661,8.1661,8.1841,8.1961,8.1961,8.214,8.223,8.223,8.2709,8.2439,8.1512,8.1811,8.1422,8.0494,7.9836,7.9148,7.8489,7.8011,7.7322,7.6455,7.5258,7.448,7.3971,7.3313,7.2445,7.1398,0.0,0.0,0.0,0.0,0.0,0.0,0.0,7.1312,7.1355,7.142,7.8981,8.5276,8.7813,9.7132,10.3917,10.5715,10.2999,10.0281,9.8064,9.0494,8.5072,8.294,0.0,8.9314,9.4176,9.7838,10.1604,10.5495,10.7881,11.001,11.1698,11.291,11.3791,11.4598,11.5002,11.5296,11.5589,11.5296,11.4598,11.3093,10.6009,10.0875,9.7096,9.1926,8.8317,8.5882,8.3513,8.1768,8.0169,7.7626,0.0,0.0,0.0,0.0,0.0,0.0,0.0,0.0,0.0,0.0,0.0,0.0,0.0,0.0,0.0,0.0,0.0,0.0,0.0,0.0,0.0,0.0,0.0,0.0,6.6283,6.9417,6.9916,7.1936,7.5198,8.0105,8.2649,8.4474,8.5701,8.5821,8.5521,8.4893,8.4833,8.4714,8.4414,8.4414,8.4414,8.4384,8.4684,8.4684,8.4414,8.4384,8.4265,8.3995,8.4085,8.3756,8.3008,8.3128,8.2739,0.0,8.1033,8.0405,7.9956,7.9028,7.825,0.0,0.0,0.0,0.0,0.0,7.3642,7.2595,0.0,0.0,0.0,0.0,0.0,0.0,0.0,7.1278,7.1396,7.1601,8.0197,8.7205,8.9581,9.7962,10.387,10.4813,10.1039,9.7086,9.3362,8.85,8.5668,8.5309,9.0421,9.4685,9.7603,10.2191,10.5678,10.7991,11.0414,11.1992,11.28,11.4415,11.5516,11.6397,11.7204,11.7902,11.8599,11.7902,11.7608,11.7425,11.5185,11.1295,10.6192,10.0796,9.7661,9.5794,9.2713,8.7706,8.2244,8.0185,0.0,0.0,0.0,0.0,0.0,0.0,0.0,0.0,0.0,0.0,0.0,0.0,0.0,0.0,0.0,0.0,0.0,0.0,0.0,0.0,0.0,0.0,0.0,0.0,7.0931,7.4372,7.7214,7.7741,7.9567,8.4265,8.5551,8.6748,8.8604,8.8873,8.8634,8.7975,8.7915,8.7616,8.6928,0.0,0.0,0.0,0.0,8.7526,8.6898,8.6898,8.6569,8.591,8.5402,8.5043,8.4803,8.4295,8.3995,8.3786,8.2529,8.1961,8.1781,8.0554,7.9597,7.8759,7.7382,7.6485,7.5916,7.5258,7.4629,7.4031,0.0,0.0,0.0,0.0,0.0,0.0,0.0,7.0939,7.1334,7.1342,7.9546,8.562,8.6192,9.5004,10.156,10.3294,9.8694,9.3891,8.9609,8.6111,8.6787,9.2615,9.6049,9.9646,10.3403,10.7,10.9386,11.0487,11.291,11.4488,11.5296,11.6287,11.7498,11.8893,11.9076,11.959,12.0398,12.0288,12.0214,12.0104,11.8893,11.4782,10.8872,10.5091,10.1478,9.8043,9.4976,9.3869,9.3033,8.7811,8.6298,8.5733,8.05,7.7066,0.0,0.0,0.0,0.0,0.0,0.0,0.0,0.0,0.0,0.0,0.0,0.0,0.0,0.0,0.0,0.0,0.0,0.0,0.0,7.2626,7.6712,8.0307,8.2168,8.3307,8.4354,8.5372,8.7048,8.8484,8.9382,8.995,8.998,8.9322,8.9292,8.8993,8.8334,8.8304,0.0,8.8304,8.8424,8.8424,8.8304,8.8304,8.7975,8.7317,0.0,0.0,8.5521,8.591,8.5521,8.4474,8.3696,8.3068,8.2499,8.1721,8.0704,7.9447,7.7562,7.6754,7.6574,7.5946,7.5617,7.5347,0.0,0.0,0.0,0.0,0.0,0.0,0.0,7.05,7.1016,7.1935,7.8189,8.3167,8.4371,9.0504,9.4891,9.5737,9.1639,8.8275,8.6429,8.733,9.076,9.7397,10.092,10.4614,10.8688,11.0781,11.2396,11.3607,11.5222,11.6397,11.7204,11.8489,11.9921,12.1499,12.1903,12.249,12.3298,12.2894,12.271,12.26,12.1793,11.9297,11.5699,11.2396,10.8705,10.4943,10.139,9.8772,9.6204,9.1194,8.9328,8.836,8.4522,8.1322,7.8686,0.0,0.0,0.0,0.0,0.0,0.0,0.0,0.0,0.0,0.0,0.0,0.0,0.0,0.0,6.9386,7.1593,0.0,7.7881,7.9129,8.3406,8.6518,8.6083,8.7828,8.8947,8.8286,8.9052,8.992,9.0579,9.1237,9.1207,9.0219,9.0459,9.0489,9.016,9.016,9.016,9.016,9.016,8.998,8.9651,8.9352,8.9023,8.8693,8.8693,8.8155,8.7197,8.7197,8.6838,8.615,8.5162,8.4534,8.4115,8.2828,8.1302,7.9716,7.8729,7.7921,7.7203,7.6245,7.5916,7.5766,0.0,0.0,0.0,0.0,0.0,0.0,0.0,6.9992,7.0716,7.2138,7.6608,8.0351,8.2213,8.5593,8.7493,8.6966,8.4716,8.3921,8.5434,9.0034,9.5593,10.189,10.5789,10.9496,11.3277,11.4084,11.5185,11.669,11.7718,11.8489,11.9187,12.0691,12.2196,12.3812,12.4399,12.528,12.6087,12.55,12.5206,12.5096,12.4509,12.3812,12.2967,12.0214,11.649,11.2385,10.8797,10.3517,9.7662,9.4135,9.1228,8.8835,8.7516,8.5723,8.3592,8.0784,7.9228,0.0,0.0,0.0,0.0,0.0,0.0,0.0,0.0,0.0,7.1041,7.2529,7.3646,7.5303,7.8483,8.1596,8.4069,8.5398,8.9255,9.1692,9.0182,9.1602,9.2529,9.1855,9.1134,9.1087,9.1746,9.2284,9.2165,9.1087,9.1506,9.1805,9.1805,9.1805,9.1805,9.1805,9.1805,9.1506,9.0848,9.0309,8.992,8.9651,8.9262,8.8933,8.8663,8.8274,8.7945,8.7646,8.627,8.5611,8.5372,8.3666,8.1871,8.0195,8.0075,7.9267,7.8041,7.6754,7.6185,7.5976,0.0,0.0,0.0,0.0,0.0,0.0,0.0,0.0,7.0284,7.0439,7.4791,7.7719,7.7283,8.0964,8.2758,8.0996,8.2463,8.5367,8.9858,9.3363,9.935,10.8492,11.1405,11.4011,11.6617,11.7498,11.8306,11.9187,12.0802,12.1572,12.1683,12.26,12.3885,12.539,12.55,12.6381,12.7813,12.7702,12.7702,12.7702,12.7592,12.7482,12.7299,12.6197,12.2393,11.7157,11.4123,10.8547,10.2633,10.0029,9.6486,9.2793,9.1947,9.1034,8.9342,8.4437,8.1562,7.8991,7.4559,7.1921,7.05,7.0838,7.1007,7.1718,0.0,0.0,7.6454,7.7942,7.987,8.1629,8.2678,8.5858,8.8788,8.9957,9.2246,9.4118,9.4827,9.4076,9.4179,9.5778,9.3274,9.1776,9.2434,9.2554,9.2554,9.2404,9.2464,9.2494,9.2494,9.2494,9.2494,9.2494,9.2494,9.2165,9.1506,9.1446,9.0818,8.9681,9.019,8.9801,8.8693,8.9202,8.8813,8.7646,8.627,8.5372,8.4773,8.3965,8.2798,8.1512,8.0913,8.0225,7.9417,7.81,7.7233,7.6634,0.0,0.0,0.0,0.0,0.0,0.0,0.0,0.0,0.0,7.0128,7.239,7.3974,7.4076,7.5706,7.6277,7.4967,7.8541,8.3856,9.064,9.6494,10.388,11.3077,11.5773,11.8012,11.9994,12.0398,12.0912,12.1793,12.249,12.3004,12.3481,12.4289,12.528,12.6418,12.7409,12.818,12.8804,12.9318,12.9501,12.9501,12.9501,12.9207,12.8694,12.7886,12.4105,11.8446,11.3149,10.8412,0.0,9.8169,9.5687,9.4755,9.3977,9.2624,9.0527,8.6636,8.3287,7.9667,7.4289,7.2496,7.209,7.1988,7.3578,7.598,7.8923,8.0513,8.2069,8.4437,8.5993,8.7583,8.9647,9.1981,9.3908,0.0,9.7268,9.872,9.8002,9.673,9.5549,9.4556,9.2681,9.2015,9.3062,9.3541,9.3451,9.2673,9.2943,9.3182,9.3182,9.3182,9.3182,9.3182,9.3182,9.2673,9.1626,9.1626,9.1147,9.0249,9.0519,9.0339,8.983,8.9711,8.8963,8.7676,8.7107,8.606,8.4684,8.4414,8.3307,8.1751,8.1482,8.0734,7.9656,7.831,7.7382,7.6724,0.0,0.0,0.0,0.0,0.0,0.0,0.0,0.0,0.0,0.0,7.0534,7.1278,7.2022,7.209,7.1887,7.1379,7.5506,8.1668,9.0078,9.7856,10.6227,11.5284,11.8886,12.1389,12.3077,12.3298,12.3812,12.4619,12.4619,12.4913,12.55,12.6087,12.6895,12.7923,12.9097,12.9905,13.0309,13.119,13.141,13.119,13.141,13.0712,12.9428,12.7776,12.3357,11.7403,11.175,10.6453,10.1358,9.4841,9.2632,9.2725,9.2827,9.1846,9.0053,8.6907,8.3016,7.8855,7.4762,7.4018,7.4525,7.5033,7.7502,8.0716,8.4099,8.6027,8.7888,9.0662,9.1981,9.3334,9.5533,9.6954,9.8104,9.9085,10.1115,10.218,10.1082,9.888,9.638,9.3605,9.1491,9.0788,9.2105,9.3511,9.399,9.3212,9.3601,9.393,9.411,9.396,9.396,9.4139,9.396,9.3212,9.1895,9.1895,9.1476,9.0638,9.0638,9.0638,9.0608,8.998,8.9052,8.7975,8.7796,8.6659,8.4983,8.4803,8.3756,8.229,8.1931,8.1093,7.9956,7.8789,7.7711,7.6754,0.0,0.0,0.0,0.0,0.0,0.0,0.0,0.0,0.0,0.0,0.0,0.0,0.0,7.1345,7.1345,7.1312,7.4052,7.9638,8.8549,9.6338,10.496,11.4577,12.0325,12.3922,12.5573,12.6381,12.7115,12.7996,12.7996,12.7996,12.7996,12.7996,12.8877,13.0382,13.0419,13.13,13.2805,13.3612,13.3502,13.2915,13.3686,13.2584,13.0015,12.6087,12.0362,11.397,11.0816,10.3724,9.545,9.1591,8.7951,8.5351,8.7516,8.8632,8.8429,8.4708,7.9938,7.598,7.6589,7.6792,7.7638,8.1224,8.3321,8.5621,9.0019,9.2218,9.3943,9.6176,9.78,9.8848,9.895,9.9593,10.0608,10.213,10.2434,10.3009,10.4231,9.993,9.6205,9.4795,9.0035,8.7347,0.0,9.1746,9.387,9.4499,9.4558,9.4858,9.5486,9.4917,9.4858,9.5516,9.4917,9.393,9.2583,9.2583,9.1925,9.0638,9.0638,9.0638,9.0608,8.998,8.9292,8.8634,8.7975,8.6928,8.5611,8.4983,8.4295,8.3547,8.226,8.1362,8.0704,8.0016,7.8519,7.6814,0.0,0.0,0.0,0.0,0.0,0.0,0.0,0.0,0.0,0.0,0.0,0.0,0.0,0.0,0.0,0.0,7.4018,7.8511,8.4993,9.4031,10.1964,10.8767,11.6638,12.1129,12.1632,12.5056,12.7059,12.7241,12.8938,12.9685,12.9685,13.0199,13.0786,13.13,13.2401,13.3208,13.3796,13.4603,13.4493,13.3612,13.2805,13.11,12.8476,12.4552,11.6709,10.7334,0.0,9.6146,9.0528,8.4751,8.2683,8.2543,8.3287,8.3693,8.3287,8.0073,7.8585,7.801,7.8314,8.0175,8.2813,8.6027,8.9106,9.2387,9.6311,9.8409,9.9863,10.1081,10.01,9.895,9.8476,9.8172,9.851,9.9999,10.1893,10.3585,10.4566,10.2004,9.8002,9.2746,9.0369,0.0,0.0,0.0,0.0,9.375,9.4349,9.4708,9.4917,9.5157,9.5157,9.4947,9.4738,9.4169,9.3272,9.2823,9.2165,9.1297,9.0848,9.0638,9.0638,9.0399,8.9711,8.8663,8.8454,8.7347,8.5641,8.4983,8.4325,8.3636,8.2769,8.202,8.1362,8.0704,7.9477,7.8011,0.0,0.0,0.0,0.0,0.0,0.0,0.0,0.0,0.0,0.0,0.0,0.0,0.0,0.0,0.0,0.0,0.0,7.6352,8.1638,8.9523,9.645,10.2211,10.9682,11.4022,11.4555,11.7641,11.9845,12.1099,12.267,12.4298,12.5861,12.7018,12.7567,12.7967,12.9753,13.0628,13.0727,13.1635,13.1126,12.9674,12.6987,12.4228,12.0996,11.5709,10.7549,0.0,9.2115,8.7443,8.3231,7.8638,7.7739,7.8551,7.8822,7.9092,7.9092,7.801,7.8923,8.0648,8.2238,8.5384,8.9072,9.259,9.5702,9.8645,10.1521,10.2806,10.3111,10.2502,9.9796,9.7123,9.5838,9.4349,9.4248,9.7056,9.9153,10.1318,10.3889,10.1486,9.7364,9.2143,8.9937,8.7547,0.0,0.0,0.0,9.2583,9.3511,9.411,9.4588,9.5247,9.5516,9.5306,9.5097,9.4648,9.396,9.3062,9.2135,9.1267,9.0848,9.0638,9.0638,9.0638,9.004,8.9023,8.8783,8.7826,8.6329,8.5432,8.4684,8.4025,8.3367,8.2559,8.1691,8.1033,7.9956,7.8609,0.0,0.0,0.0,0.0,0.0,0.0,0.0,0.0,0.0,0.0,0.0,0.0,0.0,0.0,0.0,0.0,0.0,0.0,7.845,8.3114,8.86,9.4982,9.9914,10.325,10.4714,10.4959,10.6882,11.0442,11.0442,11.2719,11.6969,11.8443,11.9443,12.0378,12.2572,12.3597,12.3663,12.4444,12.3539,12.1053,11.6669,11.2723,10.8414,10.0899,9.3802,8.7344,8.2801,7.8351,7.439,7.368,7.3477,7.368,7.439,7.5168,7.6284,7.8686,8.0953,8.3693,8.826,9.2252,9.6142,10.0506,10.2773,10.4193,10.5513,10.5208,10.3787,10.0608,9.6865,9.3521,9.1156,0.0,8.8419,9.3622,9.4857,9.7089,10.2908,9.9216,9.5208,0.0,0.0,0.0,0.0,0.0,0.0,9.1267,0.0,9.3152,9.4588,9.5277,9.5905,9.6503,9.5905,9.5277,9.4618,9.3272,9.1955,9.0638,9.0638,9.0638,9.0638,9.0638,9.0279,8.9591,8.8963,8.8304,8.7556,8.621,8.5282,8.4654,8.3965,8.2888,8.1691,8.1033,7.9956,7.8639,0.0,0.0,0.0,0.0,0.0,0.0,0.0,0.0,0.0,0.0,0.0,0.0,0.0,0.0,0.0,0.0,0.0,0.0,7.3984,7.8871,8.2647,8.4933,9.2097,9.62,9.6612,10.007,10.2374,10.3321,10.4577,10.6088,10.777,10.822,10.9083,11.0446,11.098,11.1482,11.2121,11.2335,11.1408,10.9483,10.6628,10.3693,10.0831,9.6449,9.0293,8.367,8.1864,7.772,7.2935,7.2732,7.3409,7.4356,7.4559,7.5879,7.8179,8.2069,8.4809,8.7786,9.3368,9.7631,10.1216,10.399,10.6189,10.7407,10.6122,10.4802,10.257,9.7867,9.2252,8.7129,8.3832,8.3965,0.0,9.078,9.6069,0.0,10.4701,10.4438,0.0,9.7019,0.0,9.21,8.9419,8.7784,0.0,0.0,9.1776,9.2883,9.5217,9.5965,9.6174,9.5845,9.5666,9.5277,9.4618,9.3272,9.1955,9.0638,9.0638,9.0638,9.0638,9.0638,9.001,8.8933,8.8753,8.8035,8.6838,8.5521,8.4863,8.4594,8.3457,8.2499,8.1691,8.1033,8.0285,7.9297,0.0,0.0,0.0,0.0,0.0,0.0,0.0,0.0,0.0,0.0,0.0,0.0,0.0,0.0,0.0,0.0,0.0,0.0,0.0,7.4965,7.7266,7.8314,8.278,8.5587,8.6264,8.86,9.0881,9.3118,9.3518,9.5152,9.8129,9.8156,9.8685,9.9459,10.0518,10.1012,10.096,10.096,10.0229,0.0,0.0,9.2198,8.9949,8.6263,8.1992,7.7976,7.7536,7.5642,7.3578,7.4897,7.5912,7.686,7.8483,8.1021,8.4167,8.8294,9.1338,9.4451,9.9457,10.3314,10.6392,10.8287,10.92,10.8693,10.4769,10.2502,9.9028,9.1513,8.573,8.0827,7.7172,7.8596,8.1976,0.0,0.0,0.0,10.5107,10.5614,10.4237,0.0,9.9254,0.0,9.3311,9.1906,9.1607,0.0,9.1955,9.2643,9.5037,9.6055,9.6414,9.6025,9.6025,9.5277,9.375,9.3272,9.2224,9.0638,9.0938,9.0908,9.0638,9.0638,9.0249,8.9501,0.0,8.8245,8.7467,8.612,8.5222,8.4654,8.3906,8.2858,8.1691,8.1033,8.0375,7.9567,0.0,0.0,0.0,0.0,0.0,0.0,0.0,0.0,0.0,0.0,0.0,0.0,0.0,0.0,0.0,0.0,0.0,0.0,0.0,0.0,7.2834,7.4119,7.4255,7.4931,7.6284,7.5608,7.7468,8.2035,8.0648,8.2678,8.782,8.7916,8.802,8.8269,9.0153,9.0769,9.0188,9.0188,8.941,8.7753,8.3084,8.0412,7.8754,0.0,7.2902,7.2259,7.236,7.3172,7.4762,7.8585,8.004,8.0919,8.4539,8.8294,9.2116,9.5872,9.8882,10.1792,10.5513,10.8591,11.1027,11.2279,11.1501,10.8693,10.2603,9.9187,9.4328,8.4265,7.8989,7.5218,7.1842,7.369,7.7576,8.368,0.0,9.7507,10.4875,10.5109,10.4607,10.4956,10.3282,10.083,9.7214,9.6355,9.5331,9.4102,9.2853,9.2913,9.4648,9.5905,9.6533,9.6444,9.6354,9.5157,9.2763,9.3302,9.2673,9.0908,9.1386,9.1327,9.0758,9.0668,9.0608,9.0459,8.9322,0.0,8.8454,8.7197,8.594,8.4833,8.4654,8.3487,8.1811,8.1063,8.0375,7.9627,0.0,0.0,0.0,0.0,0.0,0.0,0.0,0.0,0.0,0.0,6.803,6.8639,0.0,0.0,0.0,0.0,0.0,0.0,0.0,0.0,0.0,7.1887,7.2462,7.2902,7.3172,7.3037,7.3409,7.4322,7.3477,7.3883,7.5473,7.5451,7.613,7.7333,7.7692,7.8167,7.8585,7.8585,7.8111,7.7198,7.5642,7.4525,7.368,7.2902,0.0,0.0,7.2191,7.2191,7.3105,8.1054,8.4945,8.7008,9.0087,9.4045,9.8273,10.2062,10.399,10.5614,10.9403,11.1703,11.309,11.3327,11.1805,10.8591,10.1927,9.6785,9.075,8.1555,7.5911,7.1958,6.9943,7.2144,7.6427,8.3024,9.109,9.8751,10.5089,10.7789,10.9366,11.0066,10.6753,10.3957,10.275,9.8885,0.0,0.0,0.0,9.5067,9.5396,9.6144,9.6324,9.5785,9.5247,9.4469,9.3421,9.3511,9.3152,9.2254,9.1835,9.1566,9.1446,9.0878,9.0339,8.983,8.9591,0.0,8.7796,8.7018,8.621,8.5432,8.4325,8.3367,8.2439,8.1242,8.0375,7.9627,0.0,0.0,0.0,0.0,0.0,0.0,0.0,0.0,6.6542,7.0297,7.0466,7.0094,6.9654,6.9958,0.0,0.0,0.0,0.0,0.0,0.0,0.0,0.0,0.0,0.0,7.1853,7.1853,7.2191,7.2969,0.0,7.1887,7.2935,7.2191,7.2225,7.2902,7.2902,7.3105,7.3409,7.3409,7.3206,7.2868,7.2496,7.2157,7.1853,7.1853,0.0,0.0,7.2157,7.2665,7.4052,8.0682,8.6467,9.1744,9.6683,10.1318,10.5411,10.7982,10.9572,11.0892,11.309,11.4816,11.5831,11.5425,11.2211,10.6934,9.8645,9.2421,8.5574,7.5973,7.148,6.8869,6.7317,7.0185,7.4119,7.8086,8.4829,9.2623,10.1263,10.3787,10.6141,11.037,10.8645,10.6168,10.3617,10.0874,9.8722,0.0,0.0,9.6833,9.6144,9.6084,9.5905,9.5606,9.4947,9.4289,9.3601,9.393,9.3601,9.2613,9.2284,9.1955,9.1596,9.0938,9.0459,9.016,8.983,0.0,8.8155,8.7496,8.6599,8.5611,8.4624,8.3636,8.2649,8.1661,8.0674,7.9716,0.0,0.0,0.0,0.0,0.0,0.0,0.0,6.759,6.8335,7.3747,7.395,7.2699,7.0297,7.0398,7.0534,0.0,0.0,0.0,0.0,0.0,0.0,0.0,0.0,0.0,0.0,0.0,0.0,7.3003,7.1887,0.0,0.0,0.0,0.0,0.0,7.1312,7.1312,7.1312,7.1312,7.1312,0.0,0.0,7.1312,0.0,0.0,0.0,0.0,0.0,7.3003,7.4864,7.9498,8.5689,9.2522,9.895,10.5479,11.0892,11.1568,11.3395,11.5289,11.5898,11.7015,11.7894,11.7116,11.2109,10.4904,9.5669,8.8564,8.1117,7.1446,6.8503,6.717,6.5744,6.8642,7.1813,7.3307,7.8907,8.6666,9.6891,9.975,10.3282,11.0147,10.9949,10.7872,10.4163,10.2406,0.0,0.0,0.0,0.0,9.6623,9.5935,9.5516,9.5396,9.4888,9.4349,9.381,9.4349,9.408,9.3032,9.2883,9.2464,9.1805,9.1147,9.0788,9.0608,9.01,0.0,0.0,8.8125,8.7107,8.5821,8.5013,8.4085,8.3068,8.214,8.1033,8.0016,0.0,0.0,0.0,0.0,0.0,0.0,0.0,6.891,7.0906,7.6792,7.7502,7.6352,7.3409,7.2563,7.165,0.0,0.0,0.0,0.0,0.0,0.0,0.0,0.0,0.0,0.0,0.0,0.0,7.1515,7.1379,0.0,0.0,0.0,0.0,0.0,0.0,7.1312,7.1312,7.1312,0.0,0.0,0.0,0.0,0.0,0.0,0.0,0.0,0.0,7.1921,7.3375,7.8551,8.2137,8.5351,9.0729,10.1589,11.1873,11.008,11.2888,11.671,11.6812,11.7421,11.7894,11.7116,11.0892,10.2976,9.533,8.7347,7.9431,7.1728,6.9483,6.8597,6.7188,6.8392,7.0203,7.1925,7.8646,8.6436,9.44,10.1145,10.7272,11.267,11.073,10.8703,10.7828,10.3334,0.0,0.0,0.0,0.0,9.6623,9.5935,9.5306,9.4708,9.4648,9.4588,9.4528,9.4588,9.4558,9.4409,9.378,9.3152,9.2494,9.1835,9.1207,9.0638,9.0579,0.0,0.0,8.8634,8.7796,8.6449,8.5192,8.4654,8.4295,8.2469,8.1332,8.0614,0.0,0.0,0.0,0.0,0.0,0.0,0.0,6.8707,7.0838,7.7773,7.8653,7.8382,7.7604,7.6082,7.3409,0.0,0.0,0.0,0.0,0.0,0.0,0.0,0.0,0.0,0.0,0.0,0.0,7.1312,7.1312,0.0,0.0,0.0,0.0,0.0,0.0,7.1312,7.1312,7.1312,0.0,0.0,0.0,0.0,0.0,0.0,0.0,0.0,0.0,0.0,7.2124,7.4661,7.7874,8.1054,8.2272,9.0188,10.0066,10.5005,10.92,11.2989,11.6609,11.8503,11.9112,11.7894,11.0418,10.169,9.5093,8.6163,7.757,7.1447,6.8677,6.7068,6.6064,6.6129,6.6462,6.7094,7.0549,7.6255,8.4968,8.9564,9.5443,10.5181,10.605,10.6447,0.0,0.0,0.0,0.0,0.0,0.0,9.7192,9.6144,9.5486,9.5217,9.4828,9.4618,9.4618,9.4618,9.4618,9.4588,9.39,9.3242,9.2583,9.1925,9.1267,9.0638,9.0638,0.0,0.0,8.8843,8.8125,8.7137,8.5402,8.4714,8.4534,8.2948,8.1691,8.0764,0.0,0.0,0.0,0.0,0.0,6.4512,6.8504,6.8808,7.1041,7.7874,7.8788,7.9058,7.9803,7.7174,7.3676,6.962,0.0,0.0,0.0,0.0,0.0,0.0,0.0,0.0,0.0,0.0,0.0,7.0973,7.121,7.1312,0.0,0.0,7.1312,0.0,0.0,0.0,0.0,0.0,0.0,0.0,0.0,0.0,0.0,0.0,0.0,0.0,0.0,0.0,0.0,0.0,0.0,7.6623,7.5574,7.987,8.7313,9.7664,10.4295,10.9302,11.441,11.7691,11.9315,11.8097,10.9708,10.0405,9.4857,8.5317,7.6183,7.0939,6.8533,6.681,6.4897,6.4405,6.4214,6.3605,6.5385,6.9976,7.8815,8.2079,8.7595,9.8088,0.0,0.0,0.0,0.0,0.0,0.0,0.0,0.0,0.0,9.6683,9.5785,9.5606,9.4947,9.4618,9.4618,9.4618,9.4618,9.4588,9.411,9.3421,9.2583,9.2135,9.1446,9.0638,9.0638,0.0,0.0,8.8963,8.8185,8.7227,8.5402,8.4594,8.4295,8.3187,8.1931,8.0794,0.0,0.0,0.0,0.0,0.0,0.0,0.0,6.9688,7.2056,7.7299,7.801,7.828,7.9058,7.4704,7.1845,7.2303,0.0,0.0,0.0,0.0,0.0,0.0,0.0,0.0,0.0,0.0,7.0195,7.0195,7.0939,7.1312,7.1312,7.1312,7.1312,7.1312,0.0,0.0,0.0,0.0,0.0,0.0,0.0,0.0,0.0,0.0,0.0,0.0,0.0,0.0,0.0,0.0,0.0,0.0,0.0,7.2428,7.598,8.7922,9.8273,10.6494,10.9606,11.4207,11.7928,11.7116,10.8524,9.9085,9.4586,8.4945,7.5439,7.0195,6.9688,6.8707,6.3901,6.4156,6.4393,6.2405,6.5574,7.0914,7.8287,8.3046,8.8023,0.0,0.0,9.5986,0.0,0.0,0.0,0.0,0.0,0.0,0.0,9.7611,9.6264,9.5606,9.4947,9.4618,9.4618,9.4618,9.4618,9.4618,9.4588,9.39,9.2613,9.2583,9.1865,0.0,0.0,0.0,0.0,8.8963,8.7885,8.6569,8.5222,8.4325,8.3666,8.3008,8.1931,8.0794,0.0,0.0,0.0,0.0,0.0,0.0,0.0,6.6745,6.9214,7.2935,7.4289,7.5777,7.8111,7.3838,7.0894,7.108,0.0,0.0,0.0,0.0,0.0,0.0,0.0,0.0,0.0,0.0,6.8759,6.8851,7.0512,7.1312,7.1312,7.1312,7.1312,7.1312,7.1312,0.0,0.0,0.0,0.0,0.0,0.0,0.0,0.0,0.0,0.0,0.0,0.0,0.0,0.0,0.0,0.0,0.0,0.0,0.0,0.0,7.8348,8.7482,9.6548,9.9559,10.3821,10.6629,10.3314,9.6751,9.0357,8.738,8.0006,7.2935,6.9755,6.816,6.641,6.3484,6.4509,6.5514,6.4876,6.8747,7.2645,7.4884,8.1766,0.0,9.1952,10.105,10.718,0.0,0.0,0.0,0.0,0.0,0.0,0.0,9.7401,9.6473,9.6264,9.5187,9.4618,9.4618,9.4618,9.4618,9.4618,9.4139,9.3451,9.2583,9.2135,9.1446,0.0,0.0,0.0,0.0,8.8484,8.7766,8.7197,8.5402,8.4594,8.4205,8.2679,8.1542,8.0734,0.0,0.0,0.0,0.0,0.0,0.0,0.0,6.4918,6.6745,6.891,7.0229,7.2124,7.5134,7.0822,6.8338,6.994,0.0,0.0,0.0,0.0,0.0,0.0,0.0,0.0,0.0,6.6452,6.8045,6.9478,7.1337,7.2472,7.2969,7.3274,7.2834,7.1718,7.1718,0.0,0.0,0.0,0.0,0.0,0.0,0.0,6.9891,0.0,0.0,0.0,0.0,0.0,0.0,0.0,0.0,0.0,0.0,0.0,0.0,0.0,7.9092,8.6839,9.1237,9.5736,9.8476,9.5669,9.0459,8.5452,8.3186,7.7333,7.1684,6.918,6.759,6.6055,6.3724,6.4289,6.498,6.42,6.6939,6.9706,7.1602,0.0,0.0,9.1039,0.0,0.0,0.0,0.0,0.0,0.0,0.0,0.0,0.0,9.7281,9.6563,9.6563,9.5306,9.4618,9.4618,9.4618,9.4469,9.4229,9.378,9.3092,9.2224,9.1805,9.1267,0.0,0.0,0.0,0.0,8.8245,8.7556,8.7167,8.5671,8.4773,8.4175,8.2709,8.1572,8.0704,0.0,0.0,0.0,0.0,0.0,0.0,0.0,0.0,0.0,6.5425,6.6237,6.7793,7.0601,6.6204,6.4738,6.8594,0.0,0.0,0.0,0.0,0.0,0.0,0.0,0.0,0.0,6.5267,6.7608,7.1095,7.281,7.4306,7.5642,7.6454,7.5303,7.2563,7.2462,0.0,0.0,0.0,0.0,0.0,7.0601,7.0297,0.0,0.0,0.0,0.0,0.0,0.0,0.0,0.0,0.0,0.0,0.0,0.0,0.0,0.0,0.0,0.0,0.0,8.9072,9.2421,9.215,8.7854,8.3152,8.1054,7.6183,0.0,6.847,6.7861,6.7045,6.4387,6.3969,6.3416,6.1655,6.2105,6.4159,6.8805,7.2732,0.0,0.0,0.0,0.0,0.0,0.0,0.0,0.0,0.0,0.0,0.0,9.7252,9.6563,9.6503,9.5277,9.4618,9.4618,9.4618,9.4259,9.3571,9.3541,9.2853,9.1626,9.1536,9.1147,0.0,0.0,0.0,0.0,8.8155,8.7257,8.6599,8.591,8.4863,8.3696,8.2918,8.1841,8.0704,0.0,0.0,0.0,0.0,0.0,0.0,0.0,0.0,0.0,0.0,6.5155,6.6237,6.6948,6.5448,6.4491,0.0,0.0,0.0,0.0,0.0,0.0,0.0,0.0,0.0,0.0,6.3654,6.5543,6.7483,7.0533,7.2943,7.4864,7.5642,7.5303,7.4052,7.2902,7.1379,0.0,0.0,0.0,0.0,6.9485,6.9045,0.0,0.0,0.0,0.0,7.0838,7.1312,0.0,0.0,0.0,0.0,0.0,0.0,0.0,0.0,7.05,7.2225,7.439,0.0,8.0953,7.8111,7.5912,7.4322,0.0,7.121,6.8741,6.803,0.0,6.6742,6.5733,6.5313,6.5492,6.6181,6.791,6.9683,7.1284,0.0,0.0,0.0,0.0,0.0,0.0,0.0,0.0,0.0,0.0,0.0,0.0,9.6982,9.6324,9.5845,9.5037,9.4618,9.4618,9.4618,9.4259,9.3571,9.3062,9.2404,9.1596,9.0579,9.004,0.0,0.0,0.0,8.8095,8.7257,8.6808,8.6569,8.5402,8.4743,8.4235,8.205,8.1063,8.0644,0.0,0.0,0.0,0.0,0.0,0.0,0.0,0.0,0.0,0.0,0.0,0.0,0.0,0.0,0.0,0.0,0.0,0.0,0.0,0.0,0.0,0.0,0.0,0.0,6.0655,6.2274,6.4661,6.7754,7.0312,7.3142,7.6149,7.6217,7.5676,7.4525,7.236,7.0331,0.0,0.0,0.0,0.0,6.8808,0.0,0.0,0.0,0.0,0.0,7.077,7.1075,0.0,7.121,7.0804,7.0128,0.0,0.0,0.0,0.0,6.9435,6.9879,7.0558,7.2834,7.4424,7.2394,7.1345,7.0703,7.0364,6.9045,6.7793,6.7489,0.0,6.6542,6.5487,6.5278,6.531,6.5541,6.7169,7.0258,0.0,0.0,0.0,0.0,0.0,0.0,0.0,0.0,0.0,0.0,0.0,0.0,0.0,9.6803,9.6084,9.6055,9.4798,9.4289,9.4618,9.4289,9.381,9.3122,9.2464,9.1805,9.1147,9.013,8.9681,0.0,0.0,0.0,8.7646,8.6958,8.6689,8.6569,8.5551,8.4803,8.4025,8.1991,8.0883,8.0195,0.0,0.0,0.0,0.0,0.0,0.0,0.0,0.0,0.0,0.0,0.0,0.0,0.0,0.0,0.0,0.0,0.0,0.0,0.0,0.0,0.0,0.0,0.0,6.0027,6.0236,6.1373,6.4298,6.9134,7.0995,7.4104,7.8145,7.7976,7.6724,7.4492,7.1751,6.9485,0.0,0.0,0.0,0.0,6.8233,0.0,0.0,0.0,0.0,0.0,0.0,0.0,0.0,7.1109,7.0804,7.0161,7.006,0.0,0.0,0.0,0.0,0.0,7.0095,7.0838,7.131,7.1289,7.0669,6.9857,6.9248,6.8402,6.7557,6.6948,6.6812,0.0,0.0,6.529,0.0,6.4441,6.6055,0.0,0.0,0.0,0.0,0.0,0.0,0.0,0.0,0.0,0.0,0.0,0.0,0.0,0.0,9.6593,9.5905,9.6264,9.4528,9.387,9.4439,9.378,9.3092,9.2434,9.1895,9.1207,9.0459,8.983,8.9471,8.9292,0.0,0.0,8.7496,8.6808,8.6539,8.6449,8.5701,8.4654,8.3427,8.211,8.0853,7.9716,0.0,0.0,0.0,0.0,0.0,0.0,0.0,0.0,0.0,0.0,0.0,0.0,0.0,0.0,0.0,0.0,0.0,0.0,0.0,0.0,0.0,0.0,5.9189,5.9787,6.0924,6.1164,6.3268,6.7587,7.1649,7.5382,7.8991,8.1359,7.9667,7.4559,7.2834,7.0161,6.6981,6.7117,6.7015,6.6846,6.7083,0.0,0.0,0.0,0.0,0.0,0.0,0.0,0.0,7.1278,7.0804,7.0094,6.9451,0.0,0.0,0.0,0.0,0.0,7.0204,7.1291,7.1512,7.131,7.0297,6.9248,6.9113,6.7996,6.6948,6.6846,6.6812,6.6914,6.732,6.847,6.9634,0.0,0.0,0.0,0.0,0.0,0.0,0.0,0.0,0.0,0.0,0.0,0.0,0.0,0.0,0.0,0.0,9.6294,9.5965,9.4947,9.405,9.3631,9.375,9.3092,9.2434,9.1776,9.1656,9.0997,8.9801,8.9142,8.8544,8.7975,0.0,8.6838,8.6778,8.612,8.5851,8.5731,8.4504,8.3576,8.2769,8.1422,8.0494,7.966,0.0,0.0,0.0,0.0,0.0,0.0,0.0,0.0,0.0,0.0,0.0,0.0,0.0,0.0,0.0,0.0,0.0,0.0,0.0,0.0,0.0,6.0116,5.9488,5.9398,6.0027,6.1433,6.3853,6.7148,7.2812,7.7525,8.1267,8.1956,7.9329,7.3916,7.1616,6.9214,6.6812,6.6812,6.6812,6.6812,0.0,0.0,0.0,0.0,0.0,0.0,0.0,0.0,0.0,0.0,6.9891,6.9553,6.9214,0.0,0.0,0.0,0.0,0.0,6.7945,6.8596,6.9255,7.1416,7.1766,7.1041,6.9451,0.0,6.7523,6.7963,6.7692,6.7624,0.0,0.0,7.4119,0.0,0.0,0.0,0.0,0.0,0.0,0.0,0.0,0.0,0.0,0.0,0.0,0.0,0.0,0.0,0.0,0.0,9.5396,9.5157,9.378,9.3062,9.3062,9.2045,9.1566,9.1626,9.1267,9.0579,8.9651,8.8993,8.8334,8.7676,0.0,8.6689,8.6629,8.597,8.5701,8.5551,8.4235,8.3337,8.2559,8.0883,7.9866,7.9267,0.0,0.0,0.0,0.0,0.0,0.0,0.0,0.0,0.0,0.0,0.0,0.0,0.0,0.0,0.0,0.0,0.0,0.0,0.0,0.0,5.8309,6.0086,5.9638,5.9847,6.0924,6.3357,6.6331,6.9589,7.6111,8.1309,8.5086,8.3027,7.9295,7.4153,7.1007,6.8571,6.6812,6.6812,6.6812,6.6779,0.0,0.0,0.0,0.0,0.0,0.0,0.0,0.0,0.0,0.0,0.0,0.0,0.0,0.0,0.0,6.7247,6.5931,6.5016,6.5892,6.6288,6.7346,7.0725,7.2141,0.0,0.0,0.0,0.0,0.0,0.0,0.0,0.0,7.3849,0.0,0.0,0.0,0.0,0.0,0.0,0.0,0.0,0.0,0.0,0.0,0.0,0.0,0.0,0.0,0.0,0.0,0.0,9.4917,9.5127,9.3481,9.2524,9.2374,9.1207,9.0908,9.1386,9.0878,9.0219,8.9412,8.8903,8.8245,8.7437,8.6898,8.6599,8.6389,8.5731,8.5372,8.5132,8.3965,8.3098,8.229,8.0405,7.9532,7.9053,0.0,0.0,0.0,0.0,0.0,0.0,0.0,0.0,0.0,0.0,0.0,0.0,0.0,0.0,0.0,0.0,0.0,0.0,0.0,0.0,5.8329,5.7468,5.9069,6.2032,6.634,6.8249,7.1803,7.7169,8.331,8.7795,9.0683,8.6467,8.1663,7.6487,7.28,6.9519,6.6812,6.6812,6.6812,6.6745,6.6034,0.0,0.0,0.0,0.0,0.0,0.0,0.0,0.0,0.0,0.0,0.0,0.0,0.0,6.8682,6.6593,6.5088,6.447,6.5731,6.6669,6.7497,6.8124,6.9382,0.0,7.6284,7.5134,0.0,7.5879,0.0,0.0,0.0,0.0,0.0,0.0,0.0,0.0,0.0,0.0,0.0,0.0,0.0,0.0,0.0,0.0,0.0,0.0,0.0,0.0,0.0,0.0,0.0,9.375,9.3002,9.2314,9.1686,9.0997,9.0668,9.0698,9.0668,8.998,8.8753,8.8693,8.7975,8.6748,8.6689,8.6329,8.5731,8.5043,8.4414,8.3816,8.3098,8.2439,8.1661,8.0308,7.9821,7.9587,0.0,0.0,0.0,0.0,0.0,0.0,0.0,0.0,0.0,0.0,0.0,0.0,0.0,0.0,0.0,0.0,0.0,0.0,0.0,0.0,5.6496,5.7663,5.886,6.1463,6.5682,7.0487,7.5396,8.0458,8.7945,9.1659,9.188,8.5993,8.0479,7.5303,7.1075,6.8571,6.7421,6.6508,6.6373,6.6745,6.6,6.5865,0.0,0.0,0.0,0.0,0.0,0.0,0.0,0.0,6.8301,6.8876,6.7624,6.8098,6.8648,6.6585,6.5679,6.5125,6.4444,6.6409,6.8698,6.8885,7.1326,0.0,0.0,7.6776,7.6742,8.0849,8.2103,0.0,0.0,0.0,0.0,0.0,0.0,0.0,0.0,0.0,0.0,0.0,0.0,0.0,0.0,0.0,0.0,0.0,0.0,0.0,0.0,0.0,0.0,9.3601,9.2554,9.1865,9.1626,9.0968,9.0638,9.0638,9.0219,8.9561,8.8663,8.8274,8.7556,8.6659,8.624,8.591,8.5611,8.4534,8.3965,8.3666,8.3008,8.235,8.1661,8.0791,8.0188,7.9761,0.0,0.0,0.0,0.0,0.0,0.0,0.0,0.0,0.0,0.0,0.0,0.0,0.0,0.0,0.0,0.0,0.0,0.0,5.7947,5.5721,5.5236,5.7051,5.7993,6.0326,6.4336,7.2262,7.8595,8.3108,9.209,9.4924,9.1575,8.5554,8.0344,7.5811,7.0601,6.8808,6.9519,6.732,6.6542,6.6745,6.6,6.5561,0.0,0.0,0.0,0.0,0.0,0.0,0.0,0.0,6.6229,6.6623,6.6997,6.7603,6.7837,6.6428,6.5824,6.5134,6.292,6.4738,6.7509,6.8206,0.0,0.0,8.0074,8.0531,8.1617,8.7024,8.7651,8.7719,8.9444,0.0,0.0,0.0,0.0,0.0,0.0,0.0,0.0,0.0,0.0,0.0,0.0,0.0,0.0,0.0,0.0,0.0,0.0,0.0,0.0,0.0,9.2075,9.1506,9.1327,9.0848,9.0638,9.0638,8.9771,8.9112,8.8663,8.8005,8.7317,8.6629,8.597,8.5581,8.5312,8.4205,8.3606,8.3367,8.2948,8.235,8.1721,8.1093,8.0345,7.9712,0.0,0.0,0.0,0.0,0.0,0.0,0.0,0.0,0.0,0.0,0.0,0.0,0.0,0.0,0.0,0.0,0.0,0.0,5.8297,5.6232,5.4946,5.4885,5.6364,5.8949,6.3044,7.3876,8.1553,8.5886,9.6244,9.7461,9.0019,8.5554,8.1866,7.8754,7.209,7.0737,7.3206,6.9451,6.7489,6.6745,6.6,6.5256,6.4613,0.0,0.0,0.0,0.0,0.0,0.0,0.0,6.2574,6.18,6.6397,6.7045,6.608,6.5989,6.5494,6.4301,6.1463,6.166,6.332,0.0,0.0,0.0,8.5431,8.7448,8.8632,9.4654,9.2895,9.0527,9.1237,0.0,0.0,0.0,0.0,0.0,0.0,0.0,0.0,0.0,0.0,0.0,0.0,0.0,0.0,0.0,0.0,0.0,0.0,0.0,0.0,0.0,9.1626,9.1297,9.0638,9.0638,9.0638,9.0608,8.9322,8.8693,8.8663,8.8005,8.7317,8.6629,8.597,8.5312,8.4654,8.3995,8.3337,8.2739,8.2739,8.235,8.1721,8.1064,8.0408,7.9634,0.0,0.0,0.0,0.0,0.0,0.0,0.0,0.0,0.0,0.0,0.0,0.0,0.0,0.0,0.0,0.0,0.0,0.0,5.644,5.4293,5.3586,5.4946,5.6761,5.8715,6.0787,7.0436,8.041,9.0433,9.2638,9.0087,8.3118,8.0326,7.7044,7.3578,7.2631,7.1515,7.0263,6.8064,6.7015,6.6745,6.6,6.5256,6.4416,0.0,0.0,0.0,0.0,0.0,0.0,0.0,0.0,0.0,6.4883,6.7107,6.8341,6.7513,6.7913,6.7937,6.4589,6.4995,0.0,6.9306,0.0,0.0,0.0,8.7593,0.0,0.0,9.9153,9.7326,9.7529,0.0,0.0,0.0,0.0,0.0,0.0,0.0,0.0,0.0,0.0,0.0,0.0,0.0,0.0,0.0,0.0,0.0,0.0,0.0,0.0,0.0,9.1177,9.0848,9.0638,9.0638,9.0399,8.995,8.9082,8.8693,8.8634,8.7496,8.6868,8.6629,8.5492,8.4893,8.4624,8.3517,8.2649,8.208,8.208,8.1661,8.1063,8.0911,8.0644,8.0347,0.0,0.0,0.0,0.0,0.0,0.0,0.0,0.0,0.0,0.0,6.1569,6.1197,0.0,0.0,0.0,0.0,0.0,0.0,0.0,5.3341,5.2634,5.4512,5.5999,5.8593,6.2395,6.9603,7.649,8.2999,8.5965,8.4244,7.845,7.8969,7.8007,7.5811,7.7874,7.6995,7.3815,7.2022,6.9688,6.7252,6.7421,6.6019,6.3835,0.0,0.0,0.0,0.0,0.0,0.0,0.0,0.0,0.0,6.2696,6.4598,6.5511,6.5849,6.5913,6.5741,6.4718,0.0,0.0,7.2128,7.7413,8.324,9.0047,0.0,0.0,0.0,0.0,10.1589,0.0,0.0,0.0,0.0,0.0,0.0,0.0,0.0,0.0,0.0,0.0,0.0,0.0,0.0,0.0,0.0,0.0,0.0,0.0,0.0,0.0,9.1237,9.0848,9.0519,9.0249,9.0249,8.992,8.9262,8.8604,8.8304,8.8274,8.7167,8.6689,8.6599,8.5282,8.4414,8.3846,8.2798,8.214,8.1751,8.1512,8.0973,8.0405,8.0462,8.0405,8.0377,0.0,0.0,5.893,5.893,0.0,0.0,0.0,0.0,0.0,0.0,6.1197,6.0825,0.0,0.0,0.0,0.0,0.0,0.0,0.0,0.0,5.206,5.3895,5.5127,5.9002,6.6155,6.9954,7.0566,6.7958,7.7096,7.9335,7.5012,7.9894,8.2209,8.2238,8.5249,8.4471,8.0716,7.8213,7.3485,6.7824,6.9417,6.7066,6.2903,6.4219,0.0,0.0,0.0,0.0,0.0,0.0,0.0,0.0,6.0107,6.0613,5.9808,6.2141,6.1491,6.0685,6.3298,0.0,0.0,7.4695,8.0682,0.0,0.0,0.0,0.0,0.0,0.0,0.0,0.0,0.0,0.0,0.0,0.0,0.0,0.0,0.0,0.0,0.0,0.0,0.0,0.0,0.0,0.0,0.0,0.0,0.0,0.0,0.0,9.1267,9.0668,9.0579,9.0279,8.9771,8.9651,8.9262,8.8663,8.8035,8.7676,8.7586,8.6898,8.6509,8.6329,8.5073,8.3876,8.2709,8.205,8.1781,8.1721,8.1063,8.0405,7.9836,7.9866,7.9869,7.9812,0.0,0.0,5.8118,5.8118,0.0,0.0,0.0,0.0,0.0,0.0,0.0,0.0,0.0,0.0,0.0,0.0,0.0,0.0,0.0,0.0,5.2271,5.4667,5.8806,6.1977,6.3709,6.5053,6.4285,6.0996,6.9326,7.1938,6.9224,7.5569,7.898,7.9938,8.2915,8.1866,7.7536,7.2969,6.9222,6.6419,6.7887,6.5869,6.2099,6.2608,5.9945,0.0,0.0,0.0,0.0,0.0,0.0,0.0,5.7831,5.9527,6.0313,6.1184,6.2971,6.4926,6.6146,6.8182,0.0,0.0,8.858,9.4834,10.0225,10.1821,0.0,0.0,0.0,0.0,0.0,0.0,0.0,0.0,0.0,0.0,0.0,0.0,0.0,0.0,0.0,0.0,0.0,0.0,0.0,0.0,0.0,0.0,9.0668,9.0788,9.0788,9.0638,9.013,9.007,9.0429,8.9412,8.8813,0.0,8.8035,8.7407,8.6868,8.621,8.5342,8.4325,8.3517,8.3008,8.2709,8.205,8.1781,8.1721,8.1063,8.0405,7.9806,7.9857,8.0152,8.0544,0.0,0.0,0.0,0.0,0.0,0.0,0.0,0.0,0.0,0.0,0.0,0.0,0.0,0.0,0.0,0.0,0.0,0.0,0.0,0.0,5.2937,5.5845,5.8342,5.9886,6.0643,6.0929,5.957,5.6633,6.1446,6.4771,6.6898,7.2989,7.7609,8.0851,8.4167,8.2983,7.8247,7.4424,7.095,6.8059,6.9086,6.7045,6.3339,6.3161,6.0202,5.5937,5.5735,0.0,0.0,0.0,0.0,0.0,0.0,0.0,5.807,5.8882,6.0075,6.2102,6.6647,0.0,0.0,8.7473,0.0,9.9481,10.2749,10.3128,10.3262,0.0,0.0,0.0,0.0,0.0,0.0,0.0,0.0,0.0,0.0,0.0,0.0,0.0,0.0,0.0,0.0,0.0,0.0,0.0,0.0,9.0489,9.019,9.016,9.016,9.016,8.9531,8.9352,8.9711,8.8723,8.7885,8.7257,8.7227,8.6689,8.5731,8.5701,8.4803,8.3277,8.3247,8.2679,8.1811,8.1452,8.1123,8.0764,8.0105,7.9627,7.9297,7.9292,7.9791,8.0327,0.0,0.0,0.0,0.0,0.0,0.0,0.0,0.0,0.0,0.0,0.0,0.0,0.0,0.0,0.0,0.0,0.0,0.0,0.0,0.0,0.0,5.6712,5.6663,5.7051,5.82,5.8107,5.6874,5.4371,5.5494,5.9598,6.6555,7.1584,7.6984,8.2543,8.5384,8.4167,7.9803,7.6657,7.308,6.9558,7.0377,6.8182,6.4498,6.4312,6.0994,5.6404,5.5616,5.4734,5.3953,5.457,0.0,0.0,0.0,0.0,5.5239,5.6436,5.6434,5.7769,6.5511,0.0,7.8491,9.239,9.8713,0.0,10.3889,10.3821,10.3787,0.0,0.0,0.0,0.0,0.0,0.0,0.0,0.0,0.0,0.0,0.0,0.0,0.0,0.0,0.0,0.0,0.0,0.0,0.0,0.0,9.0369,8.9711,8.9681,8.9621,8.9501,8.8873,8.8574,8.8693,8.7796,8.6868,8.5881,8.618,8.5701,8.4564,8.5103,8.4414,8.2769,8.3098,8.238,8.0943,8.0734,8.0375,7.9926,7.9238,7.8968,7.8938,7.8819,7.9173,7.9791,0.0,0.0,0.0,0.0,0.0,0.0,0.0,0.0,0.0,0.0,5.8457,5.8017,0.0,0.0,0.0,0.0,0.0,0.0,0.0,0.0,0.0,5.6279,5.7397,5.8262,5.9047,5.8487,5.7156,5.5059,5.5739,5.998,0.0,7.1569,7.663,8.2374,8.1596,8.0513,7.8822,7.1988,6.8093,6.6593,6.7833,6.5913,6.2453,6.3563,6.1646,5.8563,5.948,5.8319,5.6555,5.7109,5.5968,0.0,0.0,0.0,5.4491,5.5239,5.6572,5.867,6.3036,0.0,8.6912,0.0,9.9085,10.2401,0.0,0.0,10.2908,0.0,0.0,0.0,0.0,0.0,0.0,0.0,0.0,0.0,0.0,0.0,0.0,0.0,0.0,0.0,0.0,0.0,0.0,0.0,9.0638,9.0369,8.9711,8.9681,8.9412,8.8843,8.8185,8.8095,8.8693,8.6868,8.615,8.6539,8.5492,8.4594,8.3876,8.3965,8.3547,8.2709,8.1661,8.1362,8.1572,8.0405,8.0225,8.0614,7.9926,7.9686,7.9627,7.8998,7.9173,7.9761,0.0,0.0,0.0,0.0,0.0,0.0,0.0,0.0,0.0,0.0,0.0,5.7881,0.0,0.0,0.0,5.7881,5.7287,5.6645,5.6103,5.4078,0.0,5.4988,5.4896,5.5323,5.6389,5.5353,5.4425,5.3503,5.4117,0.0,0.0,7.1302,7.6366,8.2881,7.9295,7.7739,7.7435,7.0737,6.7786,6.7681,6.7892,6.6819,6.5204,6.42,6.2694,6.089,5.9902,5.8902,5.8022,5.8249,5.7182,5.5725,5.5725,0.0,0.0,0.0,5.6033,5.8757,6.6572,7.6155,8.5734,0.0,9.7413,9.988,10.2445,0.0,0.0,0.0,0.0,0.0,0.0,0.0,0.0,0.0,0.0,0.0,0.0,0.0,0.0,0.0,0.0,0.0,0.0,0.0,0.0,0.0,9.01,8.9651,8.8634,8.8574,8.8424,8.8155,8.7496,8.7257,8.7556,8.6329,8.5462,8.5013,8.4055,8.3277,8.2649,8.2649,8.229,8.1661,8.1452,8.0883,8.0075,7.9896,7.9746,7.9656,7.9357,7.9238,7.9208,7.8908,7.9053,7.9173,0.0,0.0,0.0,0.0,0.0,0.0,0.0,0.0,0.0,0.0,0.0,0.0,0.0,0.0,0.0,0.0,5.7682,5.6776,5.4988,5.304,0.0,0.0,0.0,5.2606,5.3443,5.2636,5.2127,5.1947,0.0,0.0,6.9583,7.2152,7.775,0.0,8.004,7.7705,7.7367,7.1515,6.962,7.0364,6.8605,6.7692,6.7167,6.5554,6.4241,6.2974,6.099,5.9943,5.9484,5.9323,5.8451,5.7434,5.7086,5.6347,0.0,0.0,0.0,5.8233,0.0,0.0,8.1035,8.9898,9.3959,9.6928,0.0,0.0,0.0,0.0,0.0,0.0,0.0,0.0,0.0,0.0,0.0,0.0,0.0,0.0,0.0,0.0,0.0,0.0,0.0,0.0,0.0,0.0,8.9681,8.9082,8.7766,8.7706,8.7616,8.7437,8.6778,8.6419,8.6419,8.5432,8.4384,8.3217,8.2589,8.1991,8.1542,8.1542,8.1183,8.0584,8.1063,8.0434,7.9088,7.9417,7.9267,7.8789,7.8789,7.8789,7.8789,7.8789,7.8789,7.8789,0.0,0.0,0.0,0.0,0.0,0.0,0.0,0.0,0.0,0.0,0.0,0.0,0.0,5.7881,5.7881,5.7881,5.7915,5.6954,5.4768,5.4141,5.3101,5.1379,0.0,0.0,5.1379,5.1917,5.1887,5.1259,0.0,0.0,7.062,7.4941,8.2048,9.106,8.5493,8.1934,7.9667,7.439,7.3003,7.395,6.962,6.7049,6.5933,6.7167,6.6356,6.4498,6.4349,6.3116,6.139,6.0732,5.9697,5.8542,5.7339,5.6991,5.6704,0.0,0.0,0.0,6.2538,6.8106,0.0,8.1079,8.83,9.4382,0.0,0.0,0.0,0.0,0.0,0.0,0.0,0.0,0.0,0.0,0.0,0.0,0.0,0.0,0.0,0.0,0.0,0.0,0.0,0.0,0.0,0.0,8.9681,8.9082,8.7766,8.7706,8.7407,8.6748,8.609,8.5731,8.5731,8.3876,8.2559,8.1871,8.1212,8.0883,8.0853,8.0853,8.0494,7.9866,7.9896,7.9866,7.9716,7.9088,7.8819,7.8789,7.8789,7.8789,7.8789,7.8789,7.8789,7.8789,0.0,0.0,0.0,0.0,0.0,0.0,0.0,0.0,0.0,0.0,0.0,0.0,0.0,5.7881,5.7881,5.7881,5.7222,5.6669,5.6417,5.4473,5.297,5.2336,0.0,0.0,0.0,5.1439,0.0,0.0,0.0,5.9061,6.8326,7.1537,7.769,8.5795,8.3691,8.2103,8.0445,7.3308,7.0297,7.0128,6.803,6.7489,6.7726,6.6305,6.617,0.0,0.0,0.0,0.0,6.3097,6.2013,6.0554,6.017,5.8902,5.7479,5.6184,5.6585,5.8248,6.2152,6.4957,0.0,7.6241,8.1761,8.6564,9.1224,0.0,0.0,0.0,0.0,0.0,0.0,0.0,0.0,0.0,0.0,0.0,0.0,0.0,0.0,0.0,0.0,0.0,0.0,0.0,0.0,0.0,0.0,8.8005,8.7107,8.7048,8.6928,8.6689,8.603,8.5073,8.3816,8.2709,8.1601,8.0524,8.0704,8.0345,7.9537,7.9956,7.9567,7.8519,7.8519,7.8519,7.8549,7.8729,7.8549,7.819,7.8639,7.8789,7.8789,7.8789,7.9083,7.9407,0.0,0.0,0.0,0.0,0.0,5.8457,0.0,0.0,0.0,0.0,0.0,0.0,0.0,0.0,5.8626,5.8626,5.7387,5.6639,5.6809,5.4378,5.2723,5.2305,5.1635,5.1229,5.1229,5.1439,5.1648,0.0,0.0,0.0,0.0,6.9364,7.5054,8.2083,8.1303,8.1765,8.2746,0.0,0.0,7.1447,6.8944,6.8402,6.9011,0.0,0.0,0.0,0.0,0.0,0.0,0.0,6.318,6.1883,6.1745,6.0019,5.7881,5.6787,5.6944,5.8052,6.0685,6.2211,6.4838,0.0,7.5988,7.9634,8.6501,0.0,0.0,0.0,0.0,0.0,0.0,0.0,0.0,0.0,0.0,0.0,0.0,0.0,0.0,0.0,0.0,0.0,0.0,0.0,0.0,0.0,0.0,0.0,8.6718,8.6689,8.6479,8.603,8.5372,8.4205,8.2439,8.1572,8.0674,7.9806,8.0016,7.9656,7.8789,7.9028,7.8669,7.7801,7.7562,7.7472,7.7502,7.7951,7.8011,7.7861,7.828,7.8579,7.8819,7.9058,7.9382,7.9821,0.0,5.7374,5.7848,5.7881,5.7881,5.7881,5.7881,0.0,0.0,0.0,0.0,0.0,0.0,0.0,0.0,6.0182,5.8519,5.7069,5.5898,5.4065,5.2516,5.1416,5.1353,5.1259,5.1259,5.1887,5.1917,0.0,0.0,0.0,0.0,6.8671,7.4944,8.0617,7.873,8.119,8.6433,0.0,8.146,7.8416,0.0,6.9789,6.9688,0.0,0.0,0.0,7.165,7.0094,0.0,6.458,0.0,6.256,6.1998,6.0206,5.8133,5.7432,5.6809,5.6629,0.0,0.0,0.0,6.8974,0.0,0.0,8.3051,0.0,0.0,0.0,0.0,0.0,0.0,0.0,0.0,0.0,0.0,0.0,0.0,0.0,0.0,0.0,0.0,0.0,0.0,0.0,0.0,0.0,8.7676,8.7377,8.6718,8.6659,8.603,8.4684,8.4025,8.3068,8.1721,8.0464,7.9806,7.9776,7.9118,7.8789,7.8759,7.813,7.7831,7.7771,7.7113,7.6814,7.6814,7.6844,7.7233,7.7771,7.7831,7.822,7.8878,7.9567,7.9772,7.9972,5.6697,5.6968,5.7273,5.7814,5.7881,5.7881,5.7881,0.0,0.0,0.0,0.0,0.0,0.0,0.0,6.1738,6.1738,6.0829,5.9611,5.8163,5.6887,5.6025,5.5693,5.4559,5.396,5.396,5.3265,5.2815,0.0,0.0,0.0,0.0,6.2588,6.7641,7.298,7.5726,7.761,7.8517,7.4086,0.0,7.4661,7.0297,7.1041,0.0,0.0,0.0,0.0,0.0,7.2428,7.236,0.0,7.0331,6.8297,0.0,6.3621,6.2514,6.0042,5.9491,5.9593,5.9031,0.0,0.0,0.0,0.0,0.0,7.1738,7.5929,8.0712,0.0,0.0,0.0,0.0,0.0,0.0,0.0,0.0,0.0,0.0,0.0,0.0,0.0,0.0,0.0,0.0,0.0,0.0,0.0,8.7257,8.6868,8.6689,8.621,8.5132,8.3367,8.3128,8.217,8.0375,8.0016,7.9567,7.9058,7.8878,7.8789,7.8789,7.8609,7.825,7.7771,7.7113,7.6574,7.6245,7.7143,7.7382,7.7203,7.816,7.8933,7.9527,7.9707,8.0387,8.1244,5.6258,5.6596,5.7036,5.7746,5.8152,5.8355,5.8355,0.0,0.0,0.0,0.0,0.0,0.0,0.0,6.5121,6.3869,6.2821,6.1514,5.9801,5.8548,5.7756,5.7641,5.6463,5.5677,5.5441,5.4755,5.3996,5.3174,0.0,0.0,0.0,0.0,6.3398,6.7502,6.9858,7.1425,7.1821,0.0,0.0,0.0,7.1548,0.0,0.0,7.5439,7.642,0.0,0.0,0.0,7.6792,7.5879,7.3883,0.0,0.0,0.0,6.4473,6.236,6.1613,6.1252,6.0163,5.9864,6.0274,6.1725,0.0,0.0,6.7347,6.985,7.3323,0.0,0.0,0.0,0.0,0.0,0.0,0.0,0.0,0.0,0.0,0.0,0.0,0.0,0.0,0.0,0.0,8.9228,8.7885,8.6928,8.6479,8.615,8.5881,8.5492,8.4504,8.2828,8.223,8.1272,7.9836,7.9537,7.9178,7.8789,7.8789,7.8789,7.8789,7.8519,7.8011,7.7382,7.6724,7.6066,7.5587,7.6874,7.7173,7.6963,7.828,7.9173,7.9882,8.0368,8.1166,8.1782,0.0,5.6122,5.6867,5.7848,5.8626,5.9235,0.0,0.0,0.0,0.0,0.0,0.0,0.0,0.0,0.0,6.6542,6.4816,6.3026,6.1119,5.9745,5.8873,5.8529,5.7872,5.726,5.69,5.6404,5.5404,5.3839,0.0,0.0,0.0,0.0,0.0,6.3966,6.3516,6.4565,6.6542,0.0,0.0,7.1447,7.439,7.598,0.0,0.0,8.2543,0.0,8.3152,8.2644,8.0818,7.845,7.5642,0.0,0.0,0.0,0.0,0.0,6.3292,6.1918,6.1333,6.101,6.152,6.3996,6.2002,0.0,6.67,6.5832,6.5652,7.1959,0.0,0.0,0.0,0.0,0.0,0.0,0.0,0.0,0.0,0.0,0.0,0.0,0.0,0.0,8.7866,8.7586,8.7018,8.5701,8.5581,8.5282,8.4534,8.4504,8.3876,8.2469,8.1302,8.0375,7.9716,7.9088,7.8789,7.8789,7.8789,7.8789,7.8759,7.819,7.7592,7.6993,7.6305,7.5647,7.5198,7.6335,7.6814,7.6963,7.828,7.9203,7.9917,8.1269,8.1744,8.1971,5.4702,5.4938,5.5818,5.8355,5.9404,6.052,0.0,0.0,0.0,0.0,0.0,0.0,0.0,0.0,7.0872,7.0263,6.7726,6.5241,6.304,6.267,6.2455,6.2427,6.1929,6.159,6.1457,5.9001,5.7746,5.7734,0.0,0.0,0.0,0.0,0.0,6.2522,6.4377,6.4614,6.3748,0.0,0.0,7.0669,7.3646,0.0,8.2103,8.3118,8.5114,8.7177,8.5824,8.6196,8.6839,0.0,8.0242,7.713,0.0,0.0,0.0,6.6377,0.0,0.0,0.0,0.0,0.0,0.0,0.0,0.0,6.1762,6.2151,6.384,0.0,0.0,0.0,0.0,0.0,0.0,0.0,0.0,0.0,0.0,0.0,0.0,0.0,0.0,0.0,8.6988,8.6868,8.6329,8.5013,8.4923,8.4384,8.3217,8.3128,8.229,8.0464,8.0135,7.9686,7.8998,7.8849,7.8789,7.8789,7.8789,7.8789,7.8789,7.8639,7.8519,7.834,7.7143,7.6574,7.6485,7.6724,7.6814,7.6963,7.828,7.9152,7.9929,8.0664,8.1386,8.1961,5.5141,5.575,5.707,5.9708,0.0,0.0,0.0,0.0,0.0,0.0,0.0,0.0,0.0,0.0,7.2766,7.0906,6.8673,6.6745,6.5256,6.5155,6.4986,6.4613,6.4388,6.4095,6.3903,6.0665,5.9283,5.9896,0.0,0.0,0.0,0.0,0.0,0.0,6.2825,6.2464,6.1192,0.0,6.6906,6.9045,7.5405,0.0,8.4877,8.711,8.9342,9.1135,8.9647,8.9342,8.8801,8.3186,8.1291,0.0,0.0,7.2935,7.2539,0.0,6.8526,6.6602,0.0,0.0,0.0,6.213,0.0,0.0,0.0,6.1104,6.195,6.4789,6.6208,0.0,0.0,0.0,0.0,0.0,0.0,0.0,0.0,0.0,0.0,0.0,0.0,0.0,8.5791,8.5701,8.5282,8.4295,8.3936,8.3307,8.232,8.1961,8.1183,7.9866,7.9477,7.9148,7.8789,7.846,7.831,7.831,7.7981,7.7981,7.831,7.831,7.831,7.825,7.7263,7.6814,7.6814,7.6814,7.6993,7.7382,7.8789,7.9656,8.0312,8.1119,8.1542,8.1898,5.5886,5.6664,5.822,6.0655,0.0,0.0,0.0,0.0,0.0,0.0,0.0,0.0,0.0,0.0,0.0,7.2732,6.9688,6.8064,0.0,0.0,0.0,6.573,6.5967,6.5715,6.4951,6.215,6.0993,6.1685,0.0,0.0,0.0,0.0,0.0,0.0,6.1703,6.1173,0.0,0.0,0.0,6.9282,0.0,8.2408,8.464,8.9816,9.2083,9.2522,9.2624,9.1677,8.9444,8.3152,8.234,8.278,7.6183,7.5033,0.0,0.0,0.0,0.0,0.0,0.0,0.0,0.0,0.0,6.2604,0.0,0.0,0.0,6.1732,0.0,0.0,0.0,0.0,0.0,0.0,0.0,0.0,0.0,0.0,0.0,0.0,0.0,0.0,8.4205,8.3666,8.3367,8.3367,8.226,8.1572,8.1422,8.0883,8.0315,7.9627,7.9088,7.8729,7.8609,7.819,7.7861,7.7622,7.7203,7.7293,7.7801,7.7801,7.7891,7.7951,7.7293,7.7023,7.7023,7.7023,7.7263,7.7943,7.9178,8.0007,8.0508,8.1332,8.1568,8.1479,5.5987,5.5852,5.6867,5.9742,0.0,0.0,6.7218,6.8944,0.0,0.0,0.0,0.0,0.0,0.0,0.0,0.0,0.0,0.0,7.439,0.0,6.6474,6.573,6.6948,6.6694,6.472,6.3823,6.367,6.4218,0.0,0.0,0.0,0.0,0.0,0.0,6.4002,0.0,0.0,0.0,6.96,0.0,7.9498,7.9938,0.0,8.6501,8.9106,8.9072,9.2286,9.2455,9.0831,0.0,8.6873,8.4911,0.0,7.9092,7.7435,7.5879,0.0,0.0,0.0,0.0,0.0,0.0,6.8547,0.0,0.0,0.0,6.245,6.1433,0.0,0.0,0.0,0.0,0.0,0.0,0.0,0.0,7.1989,0.0,7.7411,8.1814,0.0,0.0,0.0,7.9986,7.9537,8.1841,7.9208,7.825,7.9956,7.9956,7.9627,7.8938,7.8819,7.8519,7.7921,7.843,7.81,7.6933,7.7442,7.7741,7.7801,7.7801,7.813,7.8639,7.7981,7.7711,7.7711,7.7711,7.7682,7.7883,7.8579,7.8908,7.9148,8.0377,8.055,8.0195,5.6393,5.7036,5.8423,6.0994,0.0,6.4681,6.8064,7.209,7.527,0.0,0.0,0.0,0.0,0.0,0.0,0.0,0.0,7.3477,0.0,0.0,6.9789,6.776,0.0,0.0,6.7252,6.548,6.496,6.5899,6.3033,0.0,0.0,0.0,0.0,0.0,6.3967,0.0,6.4254,0.0,6.9147,0.0,0.0,0.0,0.0,8.8395,9.2692,9.3233,9.3977,9.3537,9.2015,0.0,8.6771,0.0,0.0,0.0,0.0,0.0,0.0,0.0,0.0,0.0,0.0,0.0,0.0,0.0,6.5761,0.0,6.2241,0.0,0.0,0.0,0.0,0.0,0.0,0.0,6.5892,0.0,0.0,0.0,7.248,0.0,0.0,0.0,0.0,0.0,0.0,0.0,7.7143,7.6574,7.8549,7.828,7.813,7.822,7.7861,7.7711,7.7801,7.7352,7.7023,7.6814,7.6335,7.6514,7.7233,7.7233,7.7801,7.8759,7.81,7.8041,7.834,7.7981,7.8011,7.834,7.8669,7.9083,7.9527,8.0016,8.0021,7.9867,5.7306,5.8118,5.937,6.14,0.0,6.4546,6.8504,7.2935,0.0,0.0,0.0,0.0,8.5283,8.3253,0.0,0.0,0.0,7.7976,0.0,0.0,7.2293,0.0,0.0,0.0,0.0,0.0,6.6142,6.6812,6.4671,0.0,0.0,0.0,0.0,0.0,0.0,6.5541,6.6136,0.0,0.0,7.3105,7.7333,8.0006,8.234,9.0188,9.4721,9.6683,9.5229,9.4349,9.3131,8.8158,8.7583,0.0,8.4979,0.0,0.0,0.0,0.0,0.0,7.5706,0.0,0.0,0.0,0.0,0.0,0.0,0.0,0.0,0.0,0.0,0.0,0.0,0.0,0.0,0.0,0.0,6.4904,0.0,6.5832,0.0,0.0,0.0,0.0,0.0,0.0,0.0,0.0,0.0,7.3881,7.6604,7.6275,7.6485,7.7502,7.7083,7.6963,7.7293,7.6724,7.6485,7.6574,7.5976,7.6066,7.6814,7.6814,7.7442,7.8489,7.8011,7.819,7.8759,7.828,7.837,7.8789,7.8789,7.9113,7.9527,7.9761,7.972,7.9842,5.893,5.8389,5.8389,0.0,0.0,0.0,0.0,0.0,0.0,0.0,0.0,0.0,0.0,0.0,0.0,0.0,0.0,8.3118,8.5249,0.0,7.2597,0.0,0.0,6.9147,0.0,0.0,0.0,6.6812,0.0,0.0,0.0,0.0,6.6068,6.6779,6.8215,7.0161,7.2259,7.4492,7.7976,8.2137,8.3727,8.7854,9.2759,0.0,9.2421,9.6683,9.5229,0.0,0.0,9.188,9.1135,0.0,0.0,0.0,0.0,0.0,0.0,0.0,0.0,0.0,0.0,7.5614,0.0,0.0,0.0,0.0,7.0295,0.0,0.0,0.0,0.0,0.0,6.5473,6.4246,6.4036,0.0,0.0,0.0,0.0,0.0,0.0,0.0,0.0,7.2026,7.1248,0.0,6.9812,0.0,7.3762,7.4001,7.4869,7.6784,7.6844,7.6544,7.5976,7.7143,7.7143,7.5946,7.7143,7.7412,7.6814,7.6814,7.7203,7.7831,7.7831,7.819,7.8789,7.8759,7.8759,7.8789,7.8789,7.8789,7.8849,7.9527,7.9821,7.9852,5.9539,5.9539,0.0,0.0,0.0,0.0,0.0,7.0635,0.0,0.0,0.0,0.0,0.0,0.0,9.4992,0.0,0.0,9.0019,8.8801,8.4031,0.0,0.0,0.0,7.4289,0.0,0.0,0.0,0.0,0.0,0.0,0.0,0.0,6.6531,6.759,0.0,6.9477,0.0,0.0,0.0,0.0,0.0,9.0019,9.5635,0.0,0.0,9.7428,9.5973,9.5432,0.0,9.3402,9.2116,9.1237,9.1,8.9072,8.6704,8.5689,8.4843,0.0,0.0,0.0,8.3186,7.872,0.0,0.0,0.0,0.0,0.0,0.0,0.0,0.0,0.0,0.0,6.6221,6.4904,6.4306,6.3558,0.0,0.0,0.0,0.0,0.0,0.0,0.0,0.0,0.0,0.0,6.6879,0.0,7.047,7.1876,7.3073,7.421,7.5078,7.5647,7.5916,7.5886,7.6096,7.6514,7.6066,7.6425,7.7442,7.6604,7.7023,7.843,7.7981,7.819,7.8789,7.8789,7.8789,7.8789,7.8789,7.8789,7.8819,7.9083,7.9437,7.9852,6.0791,6.1129,0.0,0.0,0.0,0.0,0.0,0.0,0.0,0.0,8.7482,0.0,9.9897,0.0,10.0709,0.0,10.0202,9.6582,9.1744,8.941,0.0,8.2577,8.0818,0.0,0.0,0.0,0.0,0.0,0.0,7.0026,0.0,0.0,6.7569,6.8402,0.0,7.0976,7.3815,0.0,8.0276,0.0,0.0,9.1,0.0,0.0,9.665,9.7766,0.0,9.5398,9.5229,9.4011,9.2928,9.215,9.2353,9.0594,8.826,8.7211,8.6399,8.5486,8.393,8.4403,0.0,8.146,7.9763,0.0,7.4273,0.0,0.0,0.0,0.0,0.0,0.0,0.0,6.8304,6.7423,6.5317,6.2899,0.0,6.0027,0.0,0.0,0.0,0.0,0.0,0.0,0.0,0.0,0.0,0.0,0.0,6.8824,7.0769,7.2146,7.3702,7.4839,7.5527,7.5635,7.6025,7.6864,7.6425,7.6634,7.7464,7.6634,7.6933,7.8123,7.7622,7.7981,7.8789,7.8789,7.8789,7.8789,7.8789,7.8789,7.8789,7.8789,7.9267,7.9899,6.2618,6.3159,0.0,0.0,6.5425,0.0,0.0,0.0,8.0547,0.0,9.0256,9.6548,10.3179,10.399,10.5479,10.8997,10.7306,0.0,9.4857,9.4857,0.0,0.0,8.3862,8.3355,8.1799,0.0,0.0,0.0,0.0,0.0,7.0398,6.9553,6.9147,6.9282,7.2157,0.0,7.6082,8.1224,8.4809,8.7211,8.9342,9.1135,9.2556,9.3199,9.5263,9.7529,9.5466,9.4721,9.4586,9.3842,9.3571,9.3436,9.2658,9.1913,9.0797,8.7922,8.755,8.7482,8.4606,8.4336,8.4708,8.393,0.0,0.0,0.0,0.0,8.2937,0.0,0.0,0.0,0.0,0.0,0.0,7.1267,6.6564,6.2091,5.9548,0.0,5.9668,0.0,0.0,0.0,0.0,0.0,0.0,0.0,0.0,0.0,0.0,6.5173,6.8196,7.0679,7.2804,7.424,7.4929,7.6085,7.6794,7.6884,7.8153,7.8093,7.6914,7.6733,7.6844,7.6854,7.6754,7.7562,7.8789,7.8789,7.8789,7.8789,7.8789,7.8789,7.8819,7.8849,7.9336,8.0192,6.3971,6.5527,6.6609,0.0,6.644,6.7252,0.0,0.0,0.0,0.0,9.5466,10.2401,10.7982,10.9572,11.0384,11.079,10.9809,0.0,0.0,0.0,0.0,9.7461,9.4315,9.1406,8.8767,8.437,0.0,7.8991,0.0,0.0,7.3409,7.1041,6.9925,6.9992,0.0,0.0,7.6826,8.0344,8.4437,8.8632,8.9748,9.144,0.0,0.0,9.3064,9.4721,9.4721,9.4721,9.4586,9.3842,9.3571,9.3436,9.2658,9.2286,9.1778,8.9918,8.9512,8.9478,8.87,8.8632,8.8463,8.7177,8.6298,8.5148,0.0,0.0,0.0,0.0,0.0,0.0,0.0,0.0,0.0,6.8789,6.4471,6.1373,6.0685,0.0,0.0,6.1074,0.0,0.0,0.0,0.0,0.0,0.0,0.0,0.0,0.0,0.0,6.8016,6.8704,7.2086,7.445,7.5617,7.5983,7.6554,7.7524,7.7352,7.733,7.7456,7.6594,7.6644,7.7455,7.7074,7.7562,7.8789,7.8789,7.8789,7.8789,7.8789,7.9113,7.9557,8.0146,8.0761,8.1538,6.5474,0.0,0.0,6.8436,0.0,0.0,7.3409,0.0,0.0,8.9342,9.7089,0.0,10.7001,11.0993,11.3395,11.3327,11.2617,0.0,0.0,0.0,0.0,10.2198,9.9897,9.7326,9.4282,8.941,0.0,8.2238,0.0,0.0,7.4052,7.1751,7.05,7.0263,0.0,7.4187,7.6657,8.0919,8.5012,8.8632,8.9072,9.0391,0.0,9.1135,9.1744,9.3131,9.3571,9.3706,9.3706,9.3605,9.3571,9.3503,9.3064,9.2928,9.2692,9.1508,9.1169,9.1169,9.1169,9.0932,9.0628,9.0493,9.0121,8.9241,8.6941,8.7989,8.8903,0.0,0.0,0.0,0.0,0.0,0.0,6.5924,6.3018,6.1433,0.0,0.0,0.0,0.0,6.0954,0.0,0.0,0.0,0.0,0.0,0.0,0.0,0.0,0.0,6.652,6.7089,7.1248,7.4121,7.5437,7.6361,7.6993,7.7293,7.7284,7.724,7.7347,7.6912,7.6974,7.7373,7.7233,7.7808,7.8789,7.8789,7.8789,7.8789,7.8789,7.9437,8.0297,8.0698,8.1422,8.2378,6.7161,0.0,0.0,0.0,0.0,0.0,0.0,8.1697,0.0,9.0899,0.0,10.3483,10.4904,11.0892,11.5086,11.5729,0.0,11.2888,10.8388,10.9809,10.849,10.3077,10.3179,10.1995,9.895,9.4112,8.9173,0.0,0.0,0.0,7.3612,7.2056,7.0973,7.0432,0.0,0.0,0.0,8.1866,8.552,8.7448,8.7854,8.8869,9.0222,9.0222,9.1068,9.2286,9.2489,9.259,9.2658,9.3334,9.3571,9.3571,9.347,9.3503,9.3436,9.2658,9.2421,9.2455,9.2556,9.2015,9.1778,9.3233,9.3571,9.3064,9.1102,9.1068,9.1102,8.9918,8.7922,8.667,0.0,0.0,0.0,6.3759,0.0,0.0,0.0,0.0,0.0,0.0,0.0,0.0,0.0,0.0,0.0,0.0,0.0,0.0,0.0,0.0,6.4575,6.5832,7.0201,7.3373,7.5108,7.6722,7.7354,7.7074,7.7434,7.733,7.6703,7.7343,7.7233,7.6831,7.742,7.8082,7.8789,7.8789,7.8789,7.8789,7.8849,7.9761,8.0834,8.1004,8.1898,8.31,0.0,0.0,0.0,0.0,0.0,8.1832,8.6602,9.215,9.665,9.9119,10.6494,0.0,11.2685,11.4511,11.5695,11.5831,11.5695,0.0,0.0,0.0,0.0,11.0655,10.8896,10.6595,10.3585,9.6717,9.1508,0.0,0.0,0.0,0.0,7.2293,7.1244,7.1142,7.2157,0.0,7.6014,8.0784,0.0,8.4505,8.7008,8.8869,9.0222,9.0222,9.0729,9.1677,9.2928,9.3368,9.3402,9.3537,9.3571,9.347,9.2827,9.3064,9.3436,9.2658,9.2421,9.2556,9.3199,9.2827,9.2455,9.3368,9.3571,9.347,9.3098,9.259,9.2319,9.2725,9.1,8.897,8.738,0.0,0.0,0.0,0.0,0.0,0.0,0.0,0.0,0.0,0.0,6.1373,0.0,0.0,0.0,0.0,0.0,0.0,0.0,0.0,6.4366,0.0,6.8615,0.0,0.0,0.0,7.6921,7.8407,7.742,7.6585,7.6031,7.6195,7.6455,7.6783,7.6907,7.77,7.8789,7.8789,7.8789,7.8819,7.9437,8.0146,8.0894,8.205,8.298,8.3701,0.0,0.0,0.0,0.0,0.0,0.0,0.0,10.0214,0.0,10.1014,10.5208,10.8693,10.9403,11.3293,11.5831,11.5831,11.5831,11.5628,11.5289,11.4511,11.3496,11.1974,11.0181,0.0,10.5885,9.9288,9.3842,8.9681,0.0,0.0,0.0,0.0,7.1109,7.0737,0.0,7.3138,0.0,0.0,0.0,8.3761,8.6771,8.8869,9.0256,9.0628,9.1237,9.2015,9.3165,9.3842,9.4214,9.4586,9.4485,9.4112,9.374,9.3605,9.3503,9.3131,9.303,9.3098,9.347,9.3605,9.3706,9.4079,9.4451,9.462,9.4248,9.3876,9.3503,9.3064,9.1812,8.9488,8.5348,7.8947,0.0,0.0,0.0,0.0,0.0,0.0,0.0,0.0,0.0,0.0,0.0,0.0,0.0,0.0,0.0,0.0,0.0,0.0,6.2271,0.0,0.0,0.0,7.424,0.0,7.6722,7.724,7.6974,7.6694,7.6374,7.7089,7.7301,7.7395,7.7748,7.8142,7.8789,7.8789,7.8789,7.8819,7.9527,8.0248,8.0943,8.19,8.2709,8.331,0.0,7.6242,0.0,0.0,8.9361,0.0,0.0,10.547,10.72,10.3077,10.4295,10.5783,10.6697,11.2076,11.5628,11.5831,11.5831,11.5492,11.4714,11.4173,11.3226,11.1906,11.0486,10.8963,10.7407,10.1825,9.6074,0.0,0.0,0.0,0.0,0.0,0.0,0.0,0.0,0.0,0.0,0.0,7.96,8.3761,8.6602,8.8835,9.0493,9.1068,9.1981,9.2996,9.3774,9.4417,9.506,9.577,9.5533,9.4924,9.4755,9.4315,9.3808,9.3808,9.3808,9.3842,9.4011,9.4485,9.4924,9.4924,9.5263,9.5398,9.4823,9.4349,9.3706,9.2624,9.1812,8.961,8.431,8.0233,0.0,0.0,0.0,0.0,0.0,0.0,0.0,0.0,0.0,0.0,6.1044,0.0,0.0,0.0,0.0,0.0,5.5718,0.0,0.0,0.0,0.0,6.9729,7.2158,0.0,7.6125,7.6073,7.6318,7.6379,7.6391,7.7621,7.8001,7.7573,7.8273,7.8699,7.8789,7.8789,7.8789,7.8849,7.9761,8.0345,8.0909,8.1658,8.2348,8.301,0.0,0.0,0.0,0.0,0.0,0.0,0.0,10.6458,11.0841,11.0458,11.1095,11.2177,11.3598,11.4376,11.5086,11.5729,11.5831,11.5492,11.4714,11.4613,11.4207,11.3429,11.1974,11.0486,10.8997,10.4396,9.8172,0.0,0.0,7.9837,0.0,0.0,0.0,0.0,0.0,0.0,0.0,7.6454,8.0073,8.3693,8.6061,8.87,9.1203,9.1271,9.2624,9.4586,9.533,9.5635,9.5804,9.6548,9.6311,9.5567,9.4924,9.4654,9.462,9.462,9.462,9.4755,9.5398,9.5635,9.5702,9.5702,9.5263,9.4789,9.4721,9.3098,9.1778,9.2319,9.1812,9.0154,8.6257,8.4656,8.2095,0.0,0.0,0.0,0.0,0.0,6.9694,6.6192,0.0,0.0,6.0595,6.1822,0.0,0.0,5.8979,0.0,0.0,0.0,0.0,6.0146,0.0,6.896,7.277,7.3716,7.5071,7.6763,7.5617,7.512,7.5068,7.5845,7.6407,7.6991,7.761,7.8172,7.8789,7.8789,7.8789,7.8878,8.0207,8.0731,8.0939,8.2288,8.2739,8.298,0.0,0.0,0.0,0.0,0.0,0.0,0.0,11.0488,11.1932,11.1512,11.2008,11.3278,11.531,11.5516,11.5825,11.6442,11.6545,11.6194,11.5323,11.4917,11.4376,11.3598,11.2211,11.0689,10.92,10.5208,9.9796,0.0,0.0,0.0,0.0,0.0,0.0,0.0,0.0,7.2529,7.5879,7.7841,8.0784,8.4437,8.7617,8.985,9.144,9.2827,9.3909,9.4857,9.6041,9.6447,9.6548,9.7292,9.6785,9.5736,9.5466,9.5364,9.5364,9.5364,9.5364,9.5432,9.5702,9.6108,9.6447,9.6447,9.6244,9.5905,9.5466,9.4315,9.3165,9.2556,9.1812,9.0831,8.9376,8.7004,8.4991,0.0,0.0,0.0,0.0,0.0,0.0,6.6805,0.0,6.1074,0.0,0.0,0.0,0.0,0.0,0.0,0.0,0.0,0.0,5.9458,0.0,6.6912,7.0537,7.2834,7.4504,7.5598,7.5545,7.5743,7.6025,7.6794,7.7352,7.8052,7.8346,7.8495,7.8789,7.8789,7.8789,7.8878,8.0237,8.0761,8.0939,8.2318,8.2769,8.2828,9.5869,0.0,9.7709,0.0,10.54,10.6562,11.2191,11.3205,11.2717,11.1272,11.2298,11.3862,11.5491,11.5935,11.6351,11.698,11.6921,11.644,11.5425,11.4782,11.4105,11.3598,11.2211,0.0,10.9572,10.6494,10.1995,9.6007,9.0154,0.0,0.0,0.0,0.0,0.0,7.2868,7.51,7.9025,8.0006,8.2408,8.5892,8.897,9.0763,9.1846,9.3909,9.4992,9.5466,9.6514,9.6886,9.6954,9.7495,9.6988,9.6108,9.6108,9.6108,9.6108,9.6108,9.6108,9.6176,9.6379,9.6819,9.7225,9.7225,9.7056,9.6751,9.6244,9.5229,9.3943,9.2387,9.1677,9.1305,9.1305,8.9004,8.7245,8.7719,0.0,0.0,0.0,7.6612,0.0,6.8052,6.364,5.9757,5.7004,5.7932,0.0,0.0,0.0,0.0,0.0,0.0,0.0,0.0,0.0,0.0,6.8697,7.1924,7.3891,7.4582,7.5245,7.585,7.6258,7.7072,7.8016,7.8789,7.8789,7.8789,7.8789,7.8789,7.8789,7.8878,8.0237,8.0761,8.0939,8.2318,8.2769,8.2828,10.0391,10.2007,10.4252,10.9178,11.127,11.219,11.1602,11.3378,11.3806,11.0695,11.3001,11.4874,11.4887,11.5623,11.6351,11.698,11.6224,11.5492,11.4782,11.4004,11.3598,0.0,0.0,11.1095,11.0316,10.8727,10.5005,9.9051,0.0,0.0,8.3321,0.0,7.6826,7.6893,7.8348,7.9837,8.1325,8.2813,8.5182,8.8091,8.9613,9.1102,9.259,9.4112,9.5601,9.6853,9.6886,9.6886,9.6886,9.6886,9.6886,9.6853,9.6853,9.6853,9.6853,9.6853,9.6853,9.7022,9.7766,9.8003,9.8003,9.8003,9.7428,9.6886,9.6853,9.5161,9.3165,9.1609,9.1305,9.1305,9.1305,9.0662,8.897,8.5351,0.0,0.0,0.0,7.6604,0.0,7.0731,6.7147,6.3139,5.853,5.9279,0.0,0.0,0.0,0.0,0.0,0.0,0.0,5.8141,6.3243,0.0,6.7937,7.1272,7.323,7.3891,7.4552,7.4899,7.4958,7.6219,7.761,7.8789,7.8789,7.8789,7.8789,7.8789,7.8789,7.8878,8.0237,8.0761,8.0939,8.2318,8.2769,8.2828,10.7022,10.7869,10.9349,11.2033,11.2947,11.3419,11.384,11.4912,11.492,11.2858,11.492,11.6524,11.6477,11.6745,11.7108,0.0,11.7246,11.6266,0.0,11.5222,11.4714,11.3632,11.3192,11.1805,10.9572,10.8524,10.5817,10.1419,0.0,0.0,0.0,8.0784,7.987,7.9938,8.0919,8.2746,8.5215,8.667,8.8158,8.9647,9.1135,9.2319,9.3368,9.489,9.6041,9.6954,9.7461,9.7664,9.7664,9.7664,9.7664,9.7664,9.7664,9.7664,9.7664,9.7664,9.7664,9.7698,9.7935,9.8003,9.8003,9.8003,9.7834,9.7529,9.6988,9.5161,9.3571,9.3605,9.2793,9.2049,9.2049,9.144,9.0222,8.8023,8.7245,0.0,8.1509,0.0,7.3315,6.8362,6.4159,6.0197,5.6479,5.8112,0.0,0.0,0.0,0.0,0.0,0.0,0.0,0.0,6.3778,0.0,6.8679,7.145,7.3297,7.3891,7.4552,7.5412,7.6258,7.7151,7.8022,7.8789,7.8789,7.8789,7.8789,7.8789,7.8789,7.8849,7.9791,8.0405,8.0909,8.1717,8.2378,8.2769,11.0487,11.09,11.1555,11.2634,11.316,11.3843,11.4397,11.5288,11.5603,11.4306,11.6173,11.7609,11.7428,11.7749,0.0,11.9215,11.7562,11.6648,11.6775,11.5926,11.4883,11.3699,11.309,11.167,10.9268,0.0,0.0,10.3314,9.8544,9.3064,8.7008,8.5655,8.5046,8.508,8.5554,8.6805,8.8598,8.9545,9.0188,9.0729,9.2252,9.3334,9.418,9.5635,9.665,9.736,9.7834,9.8003,9.8003,9.8003,9.8003,9.8003,9.8003,9.8003,9.8003,9.8003,9.8003,9.8003,9.8003,9.8003,9.8003,9.8003,9.8003,9.78,9.7056,9.5601,9.4485,9.4654,9.3267,9.2083,9.2387,9.1338,9.0154,8.9241,8.7854,8.5655,8.2069,0.0,7.2503,0.0,0.0,0.0,0.0,5.8979,6.0027,0.0,0.0,0.0,0.0,0.0,0.0,6.1728,6.4097,0.0,6.8953,7.1624,7.3232,7.3891,7.4552,7.5533,7.6864,7.724,7.7993,7.8789,7.8789,7.8789,7.8789,7.8789,7.8789,7.8819,7.9527,8.0192,8.0914,8.157,8.2258,8.2769,11.1295,11.1331,0.0,0.0,11.2771,0.0,11.3855,11.5093,11.584,11.5144,11.705,11.8048,11.746,11.866,11.9996,12.0935,0.0,0.0,0.0,11.616,11.452,11.3598,11.2211,11.079,10.92,10.8422,10.69,10.4667,9.966,9.648,9.5026,9.2759,9.1643,9.1609,9.1508,9.144,9.144,9.1508,9.1541,9.1677,9.3131,9.418,9.5026,9.6379,9.736,9.8003,9.8003,9.8003,9.8003,9.8003,9.8003,9.8003,9.8003,9.8003,9.8003,9.8003,9.8003,9.8003,9.8003,9.8003,9.8003,9.8003,9.8003,9.7834,9.7123,9.6345,9.5601,9.4924,9.2996,9.1643,9.2252,9.0628,8.9173,8.897,8.754,8.4973,8.0479,7.6206,7.1877,0.0,0.0,0.0,0.0,6.1373,6.1672,0.0,0.0,0.0,0.0,0.0,6.1278,6.1352,6.446,6.7131,6.9147,7.1682,7.3323,7.392,7.4582,7.5563,7.6864,7.686,7.764,7.8789,7.8789,7.8789,7.8789,7.8789,7.8789,7.8819,7.9497,8.0176,8.0864,8.1452,8.2258,8.2769,0.0,0.0,11.2491,11.3771,11.4283,11.4685,11.5379,11.5808,11.5901,11.5803,11.6797,11.7735,11.8145,11.904,12.0425,12.2481,12.0249,11.8589,11.8256,11.7782,11.6339,11.3632,11.2685,11.1264,10.92,10.8422,10.69,10.4667,10.1758,9.9829,9.8882,9.6616,9.5263,9.4687,9.3537,9.303,9.3064,9.3673,9.3909,9.3977,9.489,9.5702,9.6413,9.6751,9.736,9.8003,9.8003,9.8003,9.8003,9.8003,9.8003,9.8003,9.8003,9.8003,9.8003,9.8003,9.8003,9.8003,9.8003,9.8003,9.8003,9.8003,9.8003,9.7969,9.7766,9.6717,9.5736,9.5567,9.4214,9.2725,9.1744,9.1135,9.0019,8.7786,8.4823,8.1225,7.6768,7.2821,6.8716,0.0,6.3618,6.2979,6.1036,6.2061,6.2899,0.0,0.0,0.0,0.0,6.3039,6.3598,6.4089,6.6253,6.8486,7.0477,7.2043,7.3521,7.4612,7.5275,7.6107,7.6864,7.73,7.8052,7.8789,7.8789,7.8789,7.8789,7.8789,7.8789,7.8789,7.9023,7.9791,8.0834,8.1004,8.1717,8.2769,11.2286,11.2983,11.3791,11.4598,11.5112,11.5589,11.6397,11.6507,11.669,11.7021,11.7792,11.8489,11.8893,11.9678,12.0928,12.2576,12.1171,12.0246,12.0476,11.9954,11.7961,11.4899,11.3632,11.1959,10.9234,10.8084,10.6595,10.4667,10.2806,10.1487,10.0709,9.9491,9.8172,9.6785,9.5973,9.5229,9.462,9.5026,9.5195,9.5229,9.5635,9.6244,9.6886,9.6886,9.736,9.8003,9.8003,9.8003,9.8003,9.8003,9.8003,9.8003,9.8003,9.8003,9.8003,9.8003,9.8003,9.8003,9.8003,9.8003,9.8003,9.8003,9.8003,9.7901,9.7563,9.6616,9.5702,9.5364,9.3808,9.2387,9.1913,9.0966,8.9444,8.6805,8.3397,7.923,7.4067,7.0772,6.7419,6.3493,6.4104,6.4512,6.3434,6.4545,6.4964,6.4126,6.4277,0.0,6.2716,6.4069,6.4941,6.5002,6.7215,6.9423,7.1288,7.2954,7.4176,7.4869,7.5245,7.5875,7.6754,7.7134,7.7819,7.8789,7.8789,7.8789,7.8789,7.8789,7.8789,7.8789,7.8789,7.9437,8.0448,8.0675,8.1509,8.2378,11.2579,11.3791,11.4818,11.5002,11.5516,11.6287,11.7094,11.7204,11.7498,11.8306,11.9076,11.959,11.959,12.0581,12.1499,12.2196,12.1798,12.1994,12.3063,12.1544,11.9272,11.6205,11.4349,11.198,10.9234,10.7475,10.5885,10.4498,10.3179,10.2198,10.1589,10.1453,10.0371,9.851,9.8409,9.7563,9.6311,9.6311,9.621,9.6142,9.6142,9.6514,9.7056,9.7056,9.7428,9.8003,9.8003,9.8003,9.8003,9.8003,9.8003,9.8003,9.8003,9.8003,9.8003,9.8003,9.8003,9.8003,9.8003,9.8003,9.8003,9.8003,9.7935,9.7698,9.7157,9.6311,9.5499,9.4992,9.3165,9.1778,9.2184,9.0594,8.8463,8.5993,8.2218,7.7627,7.2049,0.0,6.6732,6.4305,6.538,6.6345,6.6582,6.7627,6.7388,6.5084,6.5739,6.5293,6.3061,6.5063,6.6116,6.5738,6.8024,7.02,7.2169,7.4016,7.4869,7.4869,7.4929,7.5628,7.6724,7.6877,7.764,7.8699,7.8759,7.8789,7.8789,7.8789,7.8789,7.8789,7.8789,7.9203,8.0062,8.0586,8.1271,8.2017,11.3277,11.4194,11.5002,11.5699,11.5883,11.6287,11.7094,11.7204,11.7498,11.8306,11.9076,11.959,11.959,12.1609,12.3004,12.3114,12.4182,12.4182,12.2233,12.0759,11.8639,11.6205,11.264,11.0288,10.9166,10.646,10.4599,10.3787,10.2908,10.2401,10.2299,10.169,10.1183,10.0811,10.0202,9.939,9.8578,9.8578,9.824,9.7664,9.7664,9.7732,9.7834,9.7834,9.7901,9.8003,9.8003,9.8003,9.8003,9.8003,9.8003,9.8003,9.8003,9.8003,9.8003,9.8003,9.8003,9.8003,9.8003,9.8003,9.8003,9.8003,9.7529,9.7191,9.7698,9.6311,9.5026,9.5533,9.4349,9.2861,9.1677,9.0696,8.8903,8.5384,7.9254,7.3792,7.0526,0.0,6.3978,6.3965,6.6192,6.8114,6.9183,6.9542,6.9512,6.9093,6.8141,6.7548,6.7143,6.7488,6.8145,6.916,7.0042,7.1595,7.355,7.4403,7.4869,7.4869,7.5472,7.5803,7.6133,7.7128,7.7759,7.8022,7.8495,7.8789,7.8789,7.8789,7.8789,7.8789,7.8789,7.9527,8.0622,8.0719,8.1569,8.2679,11.2873,11.3974,11.4892,11.5296,11.5699,11.6397,11.7718,11.7828,11.8122,11.8893,11.9774,12.0104,11.97,12.1389,12.249,12.2013,12.3885,12.4356,12.2794,12.2778,12.1231,11.7545,11.4936,11.1851,10.7948,10.5783,10.4498,10.4193,10.3077,10.2502,10.2502,10.2198,10.1792,10.1386,10.1014,10.0405,9.966,9.9254,9.8882,9.8544,9.8172,9.8003,9.8003,9.8003,9.8003,9.8003,9.8003,9.8003,9.8003,9.8003,9.8003,9.8003,9.8003,9.8003,9.8003,9.8003,9.8003,9.8003,9.8003,9.8003,9.8003,9.8003,9.7732,9.7461,9.7428,9.6311,9.5296,9.5229,9.4011,9.2624,9.1508,9.0357,8.8104,8.3421,7.7511,0.0,0.0,6.5565,6.4066,6.5443,6.7956,7.0081,7.1398,7.1547,7.1297,7.0575,6.9943,6.9303,6.859,6.9178,6.9873,7.046,7.1732,7.3208,7.4463,7.4779,7.4869,7.4869,7.5185,7.576,7.6455,7.6704,7.7382,7.8375,7.8346,7.8465,7.8789,7.8789,7.8789,7.8789,7.8789,7.9437,8.0327,8.0701,8.1362,8.2318,11.2689,11.4011,11.5112,11.5112,11.5589,11.6507,11.8195,11.8195,11.8489,11.97,12.0288,12.0398,11.9994,12.1389,12.2086,12.1205,12.3188,12.4179,12.3408,12.4509,12.324,11.8697,11.5981,11.2169,10.7068,10.558,10.487,10.4667,10.3585,10.2908,10.2806,10.2806,10.2401,10.169,10.169,10.1216,10.0438,9.9863,9.9424,9.9051,9.8476,9.8172,9.8003,9.8003,9.8003,9.8003,9.8003,9.8003,9.8003,9.8003,9.8003,9.8003,9.8003,9.8003,9.8037,9.8206,9.8273,9.824,9.807,9.8003,9.8003,9.8003,9.7867,9.7631,9.7225,9.6447,9.5635,9.506,9.3876,9.2473,9.0976,8.9562,8.6721,8.1016,0.0,0.0,0.0,6.5663,6.5443,6.7448,6.9871,7.1906,7.3223,7.3373,7.2835,7.1673,7.157,7.111,6.9939,7.0796,7.1476,7.1565,7.3103,7.4206,7.4869,7.4869,7.4869,7.4869,7.4869,7.5442,7.6288,7.6163,7.6894,7.8273,7.8136,7.8375,7.8789,7.8789,7.8789,7.8789,7.8789,7.9233,8.0122,8.0616,8.1298,8.2047,11.3497,11.4782,11.5883,11.5883,11.5993,11.6507,11.8195,11.7792,11.8122,12.0508,12.0178,11.9994,12.0691,12.2196,12.2894,12.2086,12.3481,12.4179,12.3408,12.3408,12.1972,11.8626,11.2879,10.8762,10.69,10.6122,10.5377,10.4667,10.4566,10.4193,10.3517,10.3517,10.3111,10.2401,10.2401,10.1995,10.1284,10.1284,10.0405,9.9085,9.9051,9.8612,9.8003,9.8003,9.8003,9.8003,9.8003,9.8003,9.8003,9.8003,9.8003,9.8003,9.8003,9.8003,9.8138,9.8815,9.9018,9.8848,9.8206,9.8003,9.8003,9.8003,9.7495,9.7123,9.7766,9.6819,9.577,9.5736,9.5093,9.3365,8.9641,8.7777,8.4662,7.8066,0.0,0.0,6.761,6.6995,6.7508,6.9512,7.1547,7.3283,7.4599,7.4719,7.445,7.3656,7.3699,7.3401,7.2611,7.2654,7.2993,7.3623,7.3801,7.4206,7.4869,7.4869,7.4869,7.4869,7.4869,7.4899,7.5018,7.6271,7.6852,7.6999,7.8153,7.8759,7.8789,7.8789,7.8789,7.8789,7.8789,7.9557,8.0773,8.0735,8.1628,8.2709,11.2873,11.4194,11.5296,11.5296,11.5699,11.6397,11.7498,11.7828,11.8489,11.9884,12.0288,12.0508,12.0912,12.1903,12.2196,12.1389,12.2784,12.3408,12.26,12.26,12.0845,11.7207,11.292,10.9733,10.7576,10.6392,10.5682,10.5377,10.4904,10.4566,10.4295,10.3787,10.3483,10.3179,10.2705,10.2299,10.2096,10.1589,10.1081,10.0472,9.9999,9.9627,9.9322,9.8848,9.8984,9.9254,9.8341,9.8307,9.8612,9.8172,9.8307,9.8679,9.8679,9.9018,9.9356,9.9153,9.9085,9.895,9.8206,9.8003,9.8003,9.8003,9.78,9.7664,9.7935,9.7225,9.648,9.648,9.5533,9.3769,9.071,8.849,8.549,7.9858,0.0,7.2521,7.0431,6.9682,7.0021,7.1607,7.3552,7.5108,7.6006,7.6096,7.5826,7.5198,7.515,7.4851,7.418,7.4194,7.4236,7.4522,7.4522,7.4582,7.4869,7.4869,7.4869,7.4869,7.4869,7.5155,7.5533,7.5976,7.6664,7.7412,7.7987,7.8435,7.8789,7.8789,7.8789,7.8789,7.8789,7.9557,8.0834,8.0735,8.1628,8.2769,11.2396,11.3717,11.4818,11.4818,11.5479,11.6287,11.7094,11.7498,11.8012,11.9076,11.97,12.0214,12.0508,12.1499,12.1793,12.0985,12.2123,12.26,12.1793,12.1683,12.0287,11.7119,11.3405,11.0713,10.9161,10.7168,10.6122,10.6122,10.5614,10.5276,10.5005,10.4295,10.3787,10.3585,10.2806,10.2502,10.2502,10.1995,10.1589,10.1386,10.0811,10.0303,9.9829,9.9288,9.9424,9.9728,9.8713,9.8815,9.9322,9.8578,9.8679,9.9085,9.9085,9.9796,10.0506,9.9965,9.9796,9.966,9.8916,9.8544,9.8307,9.807,9.8003,9.8003,9.8003,9.7597,9.7034,9.6237,9.5676,9.4321,9.0711,8.8659,8.5886,8.0862,7.7332,7.4585,7.2727,7.2505,7.2804,7.3732,7.5228,7.6365,7.6784,7.6814,7.6574,7.5946,7.5976,7.5677,7.4929,7.4869,7.4869,7.4869,7.4869,7.4869,7.4869,7.4869,7.4869,7.4869,7.4869,7.5155,7.5563,7.582,7.6534,7.7466,7.7729,7.8142,7.8789,7.8789,7.8789,7.8789,7.8789,7.9557,8.0834,8.0735,8.1628,8.2769,11.2396,11.3717,11.4818,11.4818,11.5479,11.6287,11.7094,11.6507,11.658,11.8195,11.8416,11.8709,11.948,12.1095,12.1793,12.0985,12.1609,12.1683,12.0912,12.0912,12.0179,11.8623,11.4008,11.1557,11.143,10.8478,10.69,10.69,10.69,10.6494,10.5817,10.5073,10.4295,10.3585,10.2806,10.2502,10.2502,10.2502,10.2096,10.1386,10.1386,10.0472,9.9119,9.9119,9.9119,9.9119,9.9119,9.9593,10.01,9.9356,9.9119,9.9119,9.9119,10.0168,10.1386,10.1386,10.1386,10.1183,10.0405,9.966,9.8916,9.8206,9.8003,9.8003,9.8003,9.8003,9.7236,9.4713,9.5636,9.5092,8.9242,8.7744,8.5583,8.0425,7.7973,7.6185,7.421,7.5078,7.5916,7.5916,7.6455,7.6844,7.6844,7.6844,7.6604,7.5976,7.5976,7.5677,7.4929,7.4869,7.4869,7.4869,7.4869,7.4869,7.4869,7.4869,7.4869,7.4869,7.4869,7.4869,7.4899,7.5563,7.6245,7.6762,7.7466,7.8142,7.8789,7.8789,7.8789,7.8789,7.8789,7.9557,8.0834,8.0735,8.1628,8.2769,11.2396,11.3717,11.4818,11.4818,11.5479,11.6103,11.6287,11.7094,11.7682,11.7608,11.8489,11.9297,11.959,11.9994,12.0508,12.0912,12.1095,12.0912,11.9994,11.948,11.8886,11.8499,11.5125,11.2389,11.0668,10.8205,10.69,10.69,10.69,10.6798,10.6595,10.5817,10.5073,10.4295,10.3585,10.3009,10.2502,10.2502,10.2401,10.2198,10.2198,10.1893,10.1419,10.0878,10.1014,10.1318,10.0303,10.0405,10.0912,10.01,10.0202,10.0777,10.1318,10.1419,10.1386,10.1386,10.1386,10.1081,9.9796,9.966,9.9593,9.8307,9.8003,9.8138,9.8645,9.8375,9.7539,9.6003,9.5242,9.3631,8.9229,8.8575,8.7138,8.2558,8.1634,8.0767,7.8303,7.7592,7.7412,7.7861,7.7682,7.7711,7.816,7.819,7.7921,7.7293,7.6385,7.5545,7.4899,7.4869,7.4869,7.4869,7.4869,7.4869,7.4869,7.4869,7.4869,7.4869,7.4869,7.4869,7.4899,7.5563,7.5983,7.6185,7.7307,7.7993,7.8112,7.8669,7.8789,7.8789,7.8789,7.9557,8.0834,8.0735,8.1628,8.2769,11.1919,11.3203,11.4305,11.4305,11.5296,11.6103,11.6397,11.6984,11.7388,11.7204,11.8306,11.9113,11.9113,11.97,12.0288,12.0875,12.0581,12.0178,11.959,11.8819,11.8306,11.7902,11.5629,11.3376,11.1272,10.9034,10.7465,10.69,10.69,10.69,10.69,10.5817,10.5107,10.4667,10.3585,10.2908,10.2502,10.2502,10.2502,10.2502,10.2502,10.2299,10.1995,10.1589,10.169,10.1893,10.1014,10.1183,10.169,10.0912,10.098,10.1487,10.1893,10.1995,10.1792,10.1792,10.1792,10.1487,9.9965,9.9863,9.9863,9.8375,9.8003,9.8206,9.8916,9.8178,9.6954,9.5819,9.4626,9.2756,8.9534,8.9545,8.8848,8.5292,8.4904,8.4157,8.1389,8.0285,7.9716,7.9597,7.9238,7.9058,7.9178,7.9208,7.8729,7.745,7.6524,7.576,7.5245,7.5245,7.5442,7.5593,7.5593,7.5593,7.5593,7.5593,7.5442,7.4869,7.4869,7.4869,7.4869,7.5245,7.5593,7.594,7.6774,7.739,7.7789,7.8172,7.8495,7.8789,7.8789,7.9467,8.0448,8.0347,8.1238,8.2378,11.1295,11.2506,11.357,11.3681,11.5002,11.6213,11.7021,11.6617,11.6397,11.7021,11.7902,11.8416,11.8416,11.9811,12.0691,12.0912,11.9994,11.948,11.948,11.8709,11.7902,11.7131,11.5856,11.4273,11.2624,11.0383,10.8366,10.69,10.69,10.69,10.69,10.5479,10.4769,10.4599,10.3212,10.2603,10.2502,10.2502,10.2502,10.2502,10.2502,10.2096,10.1487,10.1487,10.1487,10.1487,10.1487,10.1893,10.2401,10.169,10.1487,10.1487,10.1487,10.1995,10.2502,10.2502,10.2502,10.2198,10.0709,10.0303,9.9999,9.8544,9.8206,9.8375,9.9051,9.778,9.6157,9.4857,9.3946,9.2493,8.9748,9.0328,9.0351,8.7765,8.7494,8.665,8.3461,8.2858,8.232,8.1123,8.0883,8.0554,7.9896,7.9776,7.8883,7.7009,7.6355,7.6,7.594,7.603,7.6211,7.6818,7.6818,7.6818,7.6818,7.6818,7.6151,7.5125,7.5125,7.5096,7.4929,7.4929,7.5245,7.588,7.603,7.6744,7.7844,7.7789,7.8172,7.8789,7.8789,7.9173,7.9797,7.9753,8.0583,8.169,11.1992,11.291,11.3791,11.4415,11.5296,11.6103,11.6213,11.7204,11.7498,11.6397,11.7498,11.8416,11.8416,11.8709,11.948,12.0802,11.9517,11.8709,11.8709,11.7314,11.6397,11.6287,11.5971,11.455,11.1844,11.0138,10.8366,10.69,10.69,10.69,10.69,10.5986,10.5276,10.4667,10.3787,10.3009,10.2502,10.2502,10.2502,10.2502,10.2502,10.2401,10.2299,10.2299,10.2299,10.2299,10.2299,10.2401,10.2502,10.2299,10.2299,10.2299,10.2299,10.2401,10.2502,10.2502,10.2502,10.2299,10.1386,10.1115,10.0912,9.9965,9.9728,9.9762,9.9931,9.9678,9.8618,9.5883,9.4298,9.2361,8.8799,8.9053,8.9252,8.7119,8.7645,8.7486,8.5383,8.3726,8.2649,8.238,8.1422,8.0554,7.9896,7.9327,7.8585,7.7724,7.7494,7.7223,7.6606,7.6553,7.6605,7.6837,7.6837,7.6837,7.6837,7.6837,7.6613,7.6455,7.6455,7.6168,7.576,7.576,7.579,7.594,7.6383,7.7039,7.7794,7.837,7.8699,7.8789,7.8789,7.9173,7.9852,7.9802,8.0338,8.1141,11.2873,11.3607,11.4415,11.5185,11.5993,11.669,11.7094,11.7498,11.7718,11.7204,11.7902,11.8489,11.8893,11.9297,11.9921,12.0802,11.9407,11.8416,11.8416,11.7278,11.6397,11.5993,11.5723,11.4216,11.1553,11.0348,10.8744,10.69,10.69,10.69,10.69,10.6122,10.5411,10.4667,10.3889,10.3212,10.2502,10.2502,10.2502,10.2502,10.2502,10.2502,10.2502,10.2502,10.2502,10.2502,10.2502,10.2502,10.2502,10.2502,10.2502,10.2502,10.2502,10.2502,10.2502,10.2502,10.2502,10.2299,10.1589,10.1081,10.0608,9.9863,9.9694,9.9863,10.0608,10.0002,9.892,9.7764,9.5162,9.23,8.9939,8.976,8.9328,8.7005,8.7951,8.8162,8.6014,8.4803,8.3936,8.3307,8.2619,8.1691,8.0405,7.9686,7.8938,7.7927,7.7748,7.7614,7.7283,7.73,7.7407,7.7729,7.7729,7.7729,7.7729,7.7729,7.7748,7.7745,7.7074,7.6664,7.6344,7.6361,7.6258,7.6348,7.6628,7.711,7.7831,7.8166,7.8465,7.8789,7.8789,7.9053,7.9377,7.9377,7.9791,8.0448,11.3791,11.4305,11.5112,11.5993,11.6801,11.7498,11.8306,11.8012,11.7792,11.8306,11.8489,11.8893,11.948,12.0398,12.0912,12.0912,11.9407,11.8416,11.8416,11.7498,11.6598,11.5641,11.5049,11.3665,11.1211,11.0541,10.9054,10.69,10.69,10.69,10.69,10.602,10.5276,10.4667,10.3787,10.3077,10.2502,10.2502,10.2502,10.2502,10.2502,10.2502,10.2502,10.2502,10.2502,10.2502,10.2502,10.2502,10.2502,10.2502,10.2502,10.2502,10.2502,10.2502,10.2502,10.2502,10.2502,10.2401,10.1792,10.1115,10.0405,9.966,9.9491,9.9796,10.0912,9.9949,9.9013,9.9197,9.5948,9.2626,9.1667,9.0528,8.9176,8.7035,8.7857,8.8165,8.6074,8.5611,8.5132,8.4025,8.3696,8.2828,8.0973,8.0195,7.9297,7.8071,7.8047,7.7957,7.7965,7.7927,7.8172,7.8789,7.8789,7.8789,7.8789,7.8789,7.8789,7.8789,7.77,7.7055,7.6966,7.6924,7.6921,7.6981,7.7039,7.7377,7.8022,7.8022,7.8346,7.8789,7.8789,7.8789,7.8789,7.8789,7.9143,7.9767,11.4488,11.4708,11.5296,11.6801,11.7131,11.7498,11.8306,11.8893,11.9076,11.8489,11.9003,11.948,11.959,12.0398,12.0912,12.0912,11.9407,11.8416,11.8416,11.6984,11.5526,11.4058,11.3927,11.248,10.9583,10.9441,10.8469,10.69,10.69,10.69,10.69,10.5479,10.4769,10.4599,10.328,10.2603,10.2502,10.2502,10.2502,10.2502,10.2502,10.2502,10.2502,10.2502,10.2502,10.2502,10.2502,10.2502,10.2502,10.2502,10.2502,10.2502,10.2502,10.2502,10.2502,10.2502,10.2502,10.2502,10.2401,10.2299,10.1995,10.1284,10.1081,10.098,10.0506,10.0751,10.051,9.8844,9.6246,9.3521,9.1074,8.8836,8.7065,8.6689,8.6495,8.6074,8.5701,8.5192,8.4773,8.4594,8.3576,8.235,8.0943,8.0195,7.9507,7.8699,7.8699,7.8669,7.8609,7.8669,7.8729,7.8789,7.8789,7.8789,7.8789,7.8789,7.8789,7.8789,7.8669,7.8172,7.77,7.7695,7.7605,7.7635,7.764,7.8052,7.8699,7.8699,7.8729,7.8789,7.8789,7.8789,7.8789,7.8789,7.8819,7.8968,11.6103,11.6507,11.7204,11.8306,11.8489,11.8709,11.9003,11.937,11.948,11.9113,11.9407,11.9774,12.0288,12.0214,12.0398,12.0875,11.9811,11.8893,11.8416,11.7718,11.6556,11.5129,11.3837,11.2282,11.0476,10.9161,10.8039,10.69,10.69,10.6697,10.6291,10.5614,10.487,10.4092,10.3382,10.2908,10.2502,10.2502,10.2502,10.2502,10.2502,10.2502,10.2502,10.2502,10.2502,10.2502,10.2502,10.2502,10.2502,10.2502,10.2502,10.2502,10.2502,10.2502,10.2502,10.2502,10.2502,10.2502,10.2502,10.1893,10.1115,10.0811,10.01,9.9525,9.9559,10.0202,10.0454,9.9545,9.6833,9.4122,9.2551,8.9452,8.6988,8.624,8.621,8.6,8.5252,8.5521,8.5551,8.4803,8.3876,8.2649,8.0973,8.0524,7.9926,7.8878,7.8789,7.8789,7.8789,7.8789,7.8789,7.8789,7.8789,7.8789,7.8789,7.8789,7.8789,7.8789,7.8789,7.8699,7.8375,7.8375,7.8375,7.8375,7.8375,7.8495,7.8789,7.8789,7.8789,7.8789,7.8789,7.8789,7.8789,7.8789,7.8789,7.8878]},{"header":{"parameterUnit":"m.s-1","parameterCategory":1,"la1":30.6,"la2":28.766,"lo1":-90.7593,"lo2":-88.6598,"dy":0.0162,"dx":0.0183,"nx":116,"ny":114,"refTime":"2024-03-23T06:00:00:Z","depth":0,"parameterNumber":3,"parameterNumberName":"V-component_of_WINDS"},"data":[0.0,0.0,0.0,0.0,0.0,0.0,0.0,0.0,0.0,0.0,0.0,0.0,0.0,0.0,0.0,0.0,0.0,0.0,0.0,0.0,0.0,0.0,0.0,0.0,0.0,0.0,0.0,0.0,0.0,0.0,0.0,0.0,0.0,0.0,0.0,0.0,0.0,0.0,0.0,0.0,0.0,0.0,0.0,0.0,0.0,0.0,0.0,0.0,0.0,0.0,0.0,0.0,0.0,0.0,0.0,0.0,0.0,0.0,0.0,0.0,0.0,0.0,0.0,0.0,0.0,0.0,0.0,0.0,0.0,0.0,0.0,0.0,0.0,0.0,0.0,0.0,0.0,0.0,0.0,0.0,0.0,0.0,0.0,0.0,0.0,0.0,0.0,0.0,0.0,0.0,0.0,0.0,0.0,0.0,0.0,0.0,0.0,0.0,0.0,0.0,0.0,0.0,0.0,0.0,0.0,0.0,0.0,0.0,0.0,0.0,0.0,0.0,0.0,0.0,0.0,0.0,0.0,0.0,0.0,0.0,0.0,0.0,0.0,0.0,0.0,0.0,0.0,0.0,0.0,0.0,0.0,0.0,0.0,0.0,0.0,0.0,0.0,0.0,0.0,0.0,0.0,0.0,0.0,0.0,0.0,0.0,0.0,0.0,0.0,0.0,0.0,0.0,0.0,0.0,0.0,0.0,0.0,0.0,0.0,0.0,0.0,0.0,0.0,0.0,0.0,0.0,0.0,0.0,0.0,0.0,0.0,0.0,0.0,0.0,0.0,0.0,0.0,0.0,0.0,0.0,0.0,0.0,0.0,0.0,0.0,0.0,0.0,0.0,0.0,0.0,0.0,0.0,0.0,0.0,0.0,0.0,0.0,0.0,0.0,0.0,0.0,0.0,0.0,0.0,0.0,0.0,0.0,0.0,0.0,0.0,0.0,0.0,0.0,0.0,0.0,0.0,0.0,0.0,0.0,0.0,0.0,0.0,0.0,0.0,0.0,0.0,0.0,0.0,0.0,0.0,0.0,0.0,0.0,0.0,0.0,0.0,0.0,0.0,0.0,0.0,0.0,0.0,0.0,0.0,0.0,0.0,0.0,0.0,0.0,0.0,0.0,0.0,0.0,0.0,0.0,0.0,0.0,0.0,0.0,0.0,0.0,0.0,0.0,0.0,0.0,0.0,0.0,0.0,0.0,0.0,0.0,0.0,0.0,0.0,0.0,0.0,0.0,0.0,0.0,0.0,0.0,0.0,0.0,0.0,0.0,0.0,0.0,0.0,0.0,0.0,0.0,0.0,0.0,0.0,0.0,0.0,0.0,0.0,0.0,0.0,0.0,0.0,0.0,0.0,0.0,0.0,0.0,0.0,0.0,0.0,0.0,0.0,0.0,0.0,0.0,0.0,0.0,0.0,0.0,0.0,0.0,0.0,0.0,0.0,0.0,0.0,0.0,0.0,0.0,0.0,0.0,0.0,0.0,0.0,0.0,0.0,0.0,0.0,0.0,0.0,0.0,0.0,0.0,0.0,0.0,0.0,0.0,0.0,0.0,0.0,0.0,0.0,0.0,0.0,0.0,0.0,0.0,0.0,0.0,0.0,0.0,0.0,0.0,0.0,0.0,0.0,0.0,0.0,0.0,0.0,0.0,0.0,0.0,0.0,0.0,0.0,0.0,0.0,0.0,0.0,0.0,0.0,0.0,0.0,0.0,0.0,0.0,0.0,0.0,0.0,0.0,0.0,0.0,0.0,0.0,0.0,0.0,0.0,0.0,0.0,0.0,0.0,0.0,0.0,0.0,0.0,0.0,0.0,0.0,0.0,0.0,0.0,0.0,0.0,0.0,0.0,0.0,0.0,0.0,0.0,0.0,0.0,0.0,0.0,0.0,0.0,0.0,0.0,0.0,0.0,0.0,0.0,0.0,0.0,0.0,0.0,0.0,0.0,0.0,0.0,0.0,0.0,0.0,0.0,0.0,0.0,0.0,0.0,0.0,0.0,0.0,0.0,0.0,0.0,0.0,0.0,0.0,0.0,0.0,0.0,0.0,0.0,0.0,0.0,0.0,0.0,0.0,0.0,0.0,0.0,0.0,0.0,0.0,0.0,0.0,0.0,0.0,0.0,0.0,0.0,0.0,0.0,0.0,0.0,0.0,0.0,0.0,0.0,0.0,0.0,0.0,0.0,0.0,0.0,0.0,0.0,0.0,0.0,0.0,0.0,0.0,0.0,0.0,0.0,0.0,0.0,0.0,0.0,0.0,0.0,0.0,0.0,0.0,0.0,0.0,0.0,0.0,0.0,0.0,0.0,0.0,0.0,0.0,0.0,0.0,0.0,0.0,0.0,0.0,0.0,0.0,0.0,0.0,0.0,0.0,0.0,0.0,0.0,0.0,0.0,0.0,0.0,0.0,0.0,0.0,0.0,0.0,0.0,0.0,0.0,0.0,0.0,0.0,0.0,0.0,0.0,0.0,0.0,0.0,0.0,0.0,0.0,0.0,0.0,0.0,0.0,0.0,0.0,0.0,0.0,0.0,0.0,0.0,0.0,0.0,0.0,0.0,0.0,0.0,0.0,0.0,0.0,0.0,0.0,0.0,0.0,0.0,0.0,0.0,0.0,0.0,0.0,0.0,0.0,0.0,0.0,0.0,0.0,0.0,0.0,0.0,0.0,0.0,0.0,0.0,0.0,0.0,0.0,0.0,0.0,0.0,0.0,0.0,0.0,0.0,0.0,0.0,0.0,0.0,0.0,0.0,0.0,0.0,0.0,0.0,0.0,0.0,0.0,0.0,0.0,0.0,0.0,0.0,0.0,0.0,0.0,0.0,0.0,0.0,0.0,0.0,0.0,0.0,0.0,0.0,0.0,0.0,0.0,0.0,0.0,0.0,0.0,0.0,0.0,0.0,0.0,0.0,0.0,0.0,0.0,0.0,0.0,0.0,0.0,0.0,0.0,0.0,0.0,0.0,0.0,0.0,0.0,0.0,0.0,0.0,0.0,0.0,0.0,0.0,0.0,0.0,0.0,0.0,0.0,0.0,0.0,0.0,0.0,0.0,0.0,0.0,0.0,0.0,0.0,0.0,0.0,0.0,0.0,0.0,0.0,0.0,0.0,0.0,0.0,0.0,0.0,0.0,0.0,0.0,0.0,0.0,0.0,0.0,0.0,0.0,0.0,0.0,0.0,0.0,0.0,0.0,0.0,0.0,0.0,0.0,0.0,0.0,0.0,0.0,0.0,0.0,0.0,0.0,0.0,0.0,0.0,0.0,0.0,0.0,0.0,0.0,0.0,0.0,0.0,0.0,0.0,0.0,0.0,0.0,0.0,0.0,0.0,0.0,0.0,0.0,0.0,0.0,0.0,0.0,0.0,0.0,0.0,0.0,0.0,0.0,0.0,0.0,0.0,0.0,0.0,0.0,0.0,0.0,0.0,0.0,0.0,0.0,0.0,0.0,0.0,0.0,0.0,0.0,0.0,0.0,0.0,0.0,0.0,0.0,0.0,0.0,0.0,0.0,0.0,0.0,0.0,0.0,0.0,0.0,0.0,0.0,0.0,0.0,0.0,0.0,0.0,0.0,0.0,0.0,0.0,0.0,0.0,0.0,0.0,0.0,0.0,0.0,0.0,0.0,0.0,0.0,0.0,0.0,0.0,0.0,0.0,0.0,0.0,0.0,0.0,0.0,0.0,0.0,0.0,0.0,0.0,0.0,0.0,0.0,0.0,0.0,0.0,0.0,0.0,0.0,0.0,0.0,0.0,0.0,0.0,0.0,0.0,0.0,0.0,0.0,0.0,0.0,0.0,0.0,0.0,0.0,0.0,0.0,0.0,0.0,0.0,0.0,0.0,0.0,0.0,0.0,0.0,0.0,0.0,0.0,0.0,0.0,0.0,0.0,0.0,0.0,0.0,0.0,0.0,0.0,0.0,0.0,0.0,0.0,0.0,0.0,0.0,0.0,0.0,0.0,0.0,0.0,0.0,0.0,0.0,0.0,0.0,0.0,0.0,0.0,0.0,0.0,0.0,0.0,0.0,0.0,0.0,0.0,0.0,0.0,0.0,0.0,0.0,0.0,0.0,0.0,0.0,0.0,0.0,0.0,0.0,0.0,0.0,0.0,0.0,0.0,0.0,0.0,0.0,0.0,0.0,0.0,0.0,0.0,0.0,0.0,0.0,0.0,0.0,0.0,0.0,0.0,0.0,0.0,0.0,0.0,0.0,0.0,0.0,0.0,0.0,0.0,0.0,0.0,0.0,0.0,0.0,0.0,0.0,0.0,0.0,0.0,0.0,0.0,0.0,0.0,0.0,0.0,0.0,0.0,0.0,0.0,0.0,0.0,0.0,0.0,0.0,0.0,0.0,0.0,0.0,0.0,0.0,0.0,0.0,0.0,0.0,0.0,0.0,0.0,0.0,0.0,0.0,0.0,0.0,0.0,0.0,0.0,0.0,0.0,0.0,0.0,0.0,0.0,0.0,0.0,0.0,0.0,0.0,0.0,0.0,0.0,0.0,0.0,0.0,0.0,0.0,0.0,0.0,0.0,0.0,0.0,0.0,0.0,0.0,0.0,0.0,0.0,0.0,0.0,0.0,0.0,0.0,0.0,0.0,0.0,0.0,0.0,0.0,0.0,0.0,0.0,0.0,0.0,0.0,0.0,0.0,0.0,0.0,0.0,0.0,0.0,0.0,0.0,0.0,0.0,0.0,0.0,0.0,0.0,0.0,0.0,0.0,0.0,0.0,0.0,0.0,0.0,0.0,0.0,0.0,0.0,0.0,0.0,0.0,0.0,0.0,0.0,0.0,0.0,0.0,0.0,0.0,0.0,0.0,0.0,0.0,0.0,0.0,0.0,0.0,0.0,0.0,0.0,0.0,0.0,0.0,0.0,0.0,0.0,0.0,0.0,0.0,0.0,0.0,0.0,0.0,0.0,0.0,0.0,0.0,0.0,0.0,0.0,0.0,0.0,0.0,0.0,0.0,0.0,0.0,0.0,0.0,0.0,0.0,0.0,0.0,0.0,0.0,0.0,0.0,0.0,0.0,0.0,0.0,0.0,0.0,0.0,0.0,0.0,0.0,0.0,0.0,0.0,0.0,0.0,0.0,0.0,0.0,0.0,0.0,0.0,0.0,0.0,0.0,0.0,0.0,0.0,0.0,0.0,0.0,0.0,0.0,0.0,0.0,0.0,0.0,0.0,0.0,0.0,0.0,0.0,0.0,0.0,0.0,0.0,0.0,0.0,0.0,0.0,0.0,0.0,0.0,0.0,0.0,0.0,0.0,0.0,0.0,0.0,0.0,0.0,0.0,0.0,0.0,0.0,0.0,0.0,0.0,0.0,0.0,0.0,0.0,0.0,0.0,0.0,0.0,0.0,0.0,0.0,0.0,0.0,0.0,0.0,0.0,0.0,0.0,0.0,0.0,0.0,0.0,0.0,0.0,0.0,0.0,0.0,0.0,0.0,0.0,0.0,0.0,0.0,0.0,0.0,0.0,0.0,0.0,0.0,0.0,0.0,0.0,0.0,0.0,0.0,0.0,0.0,0.0,0.0,0.0,0.0,0.0,0.0,0.0,0.0,0.0,0.0,0.0,0.0,0.0,0.0,0.0,0.0,0.0,0.0,0.0,0.0,0.0,0.0,0.0,0.0,0.0,0.0,0.0,0.0,0.0,0.0,0.0,0.0,0.0,0.0,0.0,0.0,0.0,0.0,0.0,0.0,0.0,0.0,0.0,0.0,0.0,0.0,0.0,0.0,0.0,0.0,0.0,0.0,0.0,0.0,0.0,0.0,0.0,0.0,0.0,0.0,0.0,0.0,0.0,0.0,0.0,0.0,0.0,0.0,0.0,0.0,0.0,0.0,0.0,0.0,0.0,0.0,0.0,0.0,0.0,0.0,0.0,0.0,0.0,0.0,0.0,0.0,0.0,0.0,0.0,0.0,0.0,0.0,0.0,0.0,0.0,0.0,0.0,0.0,0.0,0.0,0.0,0.0,0.0,0.0,0.0,0.0,0.0,0.0,0.0,0.0,0.0,0.0,0.0,0.0,0.0,0.0,0.0,0.0,0.0,0.0,0.0,0.0,0.0,0.0,0.0,0.0,0.0,0.0,0.0,-4.0174,0.0,0.0,0.0,0.0,0.0,0.0,0.0,0.0,0.0,0.0,0.0,0.0,0.0,0.0,0.0,0.0,0.0,0.0,0.0,0.0,0.0,0.0,0.0,0.0,0.0,0.0,0.0,0.0,0.0,0.0,0.0,0.0,0.0,0.0,0.0,-4.0414,-4.0414,-4.0117,-3.9357,-3.718,-3.4139,-3.0467,-2.9322,-2.9912,-3.1885,0.0,0.0,0.0,0.0,0.0,0.0,0.0,0.0,0.0,0.0,0.0,0.0,0.0,0.0,0.0,0.0,0.0,0.0,0.0,0.0,0.0,0.0,0.0,0.0,0.0,0.0,0.0,0.0,0.0,0.0,0.0,0.0,0.0,0.0,0.0,0.0,0.0,0.0,0.0,0.0,0.0,0.0,0.0,0.0,0.0,0.0,0.0,0.0,0.0,0.0,0.0,0.0,0.0,0.0,0.0,0.0,0.0,0.0,0.0,0.0,0.0,0.0,0.0,0.0,0.0,0.0,0.0,0.0,0.0,0.0,0.0,-4.1078,0.0,0.0,0.0,0.0,0.0,0.0,0.0,0.0,0.0,0.0,0.0,0.0,0.0,0.0,0.0,0.0,0.0,0.0,0.0,0.0,0.0,0.0,0.0,-3.1407,-3.0614,-2.8749,-3.196,-3.3453,-3.196,-3.7427,-4.0066,-3.8581,-4.0405,-4.1771,-4.2539,-4.2275,-4.1273,-3.9645,-3.6694,-3.3258,-2.9272,-2.9125,-3.0059,-3.1724,-3.1934,0.0,0.0,0.0,0.0,0.0,0.0,0.0,0.0,0.0,0.0,0.0,0.0,0.0,0.0,0.0,0.0,0.0,0.0,0.0,0.0,0.0,0.0,0.0,0.0,0.0,0.0,0.0,0.0,0.0,0.0,0.0,0.0,0.0,0.0,0.0,0.0,0.0,0.0,0.0,0.0,0.0,0.0,0.0,0.0,0.0,0.0,0.0,0.0,0.0,0.0,0.0,0.0,0.0,0.0,0.0,0.0,0.0,0.0,0.0,0.0,0.0,0.0,0.0,-4.8485,-4.9213,-5.0042,-5.0042,-4.9941,-4.959,-4.6401,-4.379,-4.1907,0.0,0.0,0.0,0.0,0.0,0.0,0.0,0.0,0.0,0.0,0.0,0.0,0.0,0.0,0.0,0.0,0.0,0.0,0.0,0.0,0.0,0.0,-3.1482,-3.086,-2.8762,-2.9335,-3.0479,-3.2148,-3.4973,-3.7153,-3.8833,-3.9341,-4.0684,-4.2988,-4.1489,-4.049,-3.9811,-3.5693,-3.2543,-3.0194,-3.0662,-3.106,-3.1335,-3.1396,-3.2158,-3.3037,0.0,0.0,0.0,0.0,0.0,0.0,0.0,0.0,0.0,0.0,0.0,0.0,0.0,0.0,0.0,0.0,0.0,0.0,0.0,0.0,0.0,0.0,0.0,0.0,0.0,0.0,0.0,0.0,0.0,0.0,0.0,0.0,0.0,0.0,0.0,0.0,0.0,0.0,0.0,0.0,0.0,-4.3926,-4.3273,0.0,0.0,0.0,0.0,0.0,0.0,0.0,0.0,0.0,0.0,0.0,0.0,0.0,0.0,-4.8711,-4.9766,-5.0444,-5.0745,-5.1774,-5.2101,-5.1774,-5.1774,-5.2528,-5.3783,-5.3256,0.0,-4.6803,-4.5196,0.0,0.0,0.0,0.0,0.0,0.0,0.0,0.0,0.0,0.0,0.0,0.0,0.0,0.0,0.0,0.0,0.0,0.0,0.0,0.0,0.0,-3.2373,-3.1049,-2.9232,-3.1026,-3.1727,-3.086,-3.5951,-3.846,-3.76,-4.0088,-4.1972,-4.3418,-4.1323,-3.8758,-3.624,-3.3324,-3.172,-3.1102,-3.153,-3.181,-3.1917,-3.1914,-3.1525,-3.1254,-3.3037,0.0,0.0,0.0,0.0,0.0,0.0,0.0,0.0,0.0,0.0,0.0,0.0,0.0,0.0,0.0,0.0,0.0,0.0,0.0,0.0,0.0,0.0,0.0,0.0,0.0,0.0,0.0,0.0,0.0,0.0,0.0,0.0,0.0,0.0,0.0,0.0,0.0,0.0,0.0,-4.4343,-4.5427,-4.3868,-4.5987,-4.6743,0.0,0.0,0.0,0.0,0.0,0.0,0.0,0.0,0.0,-4.8711,-4.9515,-5.0419,-5.1448,-5.2578,-5.3758,-5.5013,-5.6093,-5.6821,-5.7198,-5.7198,-5.76,-5.8278,-5.7951,-5.652,-5.416,-5.072,-4.7631,-4.4995,0.0,0.0,0.0,0.0,-4.2559,-4.2886,0.0,0.0,0.0,0.0,0.0,0.0,0.0,0.0,0.0,0.0,0.0,0.0,-3.5427,-3.3336,-3.1599,-3.0146,-3.238,-3.2747,-3.0482,-3.598,-3.8534,-3.6748,-4.0377,-4.3041,-4.3867,-4.0895,-3.7501,-3.3634,-3.2025,-3.165,-3.2251,-3.2759,-3.316,-3.344,-3.3213,-3.2225,-3.0845,-3.1897,-3.2368,-3.2624,0.0,0.0,0.0,0.0,0.0,0.0,0.0,0.0,0.0,0.0,0.0,0.0,0.0,0.0,0.0,0.0,0.0,0.0,0.0,0.0,0.0,0.0,0.0,0.0,0.0,0.0,0.0,0.0,0.0,0.0,0.0,0.0,0.0,0.0,0.0,0.0,0.0,-4.6019,-4.6964,-4.4977,-4.7496,-4.8342,0.0,0.0,0.0,0.0,0.0,0.0,-4.9088,-5.0268,-5.1322,-5.2302,-5.3005,-5.3833,-5.4813,-5.5767,-5.7298,-5.9382,-6.0186,-6.109,-6.2019,-6.2019,-6.2019,-6.1994,-6.1567,-6.0914,-5.9784,-5.5365,-5.1272,-4.7732,-4.6878,-4.5849,-4.4895,-4.502,-4.5321,-4.5773,0.0,0.0,0.0,0.0,0.0,0.0,0.0,0.0,0.0,0.0,0.0,-3.6976,-3.5576,-3.4126,-3.2771,-3.1638,-3.1544,-3.1746,-3.2345,-3.3394,-3.4932,-3.745,-3.9791,-4.2048,-4.4355,-4.014,-3.6772,-3.4292,-3.3284,-3.3173,-3.3801,-3.4923,-3.5605,-3.5899,-3.5885,-3.4736,-3.2692,-3.0926,-3.1609,-3.3738,-3.2669,0.0,0.0,0.0,0.0,0.0,0.0,0.0,0.0,0.0,0.0,0.0,0.0,0.0,0.0,0.0,0.0,0.0,0.0,0.0,0.0,0.0,0.0,0.0,0.0,0.0,0.0,0.0,0.0,0.0,0.0,0.0,0.0,0.0,0.0,0.0,0.0,0.0,0.0,-4.7833,-5.1064,0.0,0.0,0.0,0.0,-5.0092,-5.1122,-5.2,-5.2653,-5.3708,-5.4587,-5.5164,-5.6219,-5.7801,-5.9935,-6.0537,-6.1718,-6.34,-6.345,-6.3776,-6.4304,-6.4304,-6.4304,-6.4304,-6.4279,-6.335,-6.1542,-5.7097,-5.4813,-5.3783,-5.0619,-4.9665,-4.9916,-4.8887,-4.8535,-4.841,0.0,0.0,0.0,0.0,0.0,0.0,0.0,0.0,-4.1172,-4.1172,-3.9533,-3.7907,-3.6494,-3.5573,-3.442,-3.3197,-3.3694,-3.3948,-3.3708,-3.6148,-3.7791,-3.8268,-4.1359,-4.2233,-4.0192,-3.7128,-3.498,-3.381,-3.4165,-3.5004,-3.6153,-3.6941,-3.7489,-3.7782,-3.7569,-3.6941,-3.5925,-3.328,-3.2219,-3.2501,-3.2339,-3.4281,0.0,0.0,0.0,0.0,0.0,0.0,0.0,0.0,0.0,0.0,0.0,0.0,0.0,0.0,0.0,0.0,0.0,0.0,0.0,0.0,0.0,0.0,0.0,0.0,0.0,0.0,0.0,0.0,0.0,0.0,0.0,0.0,0.0,0.0,0.0,0.0,0.0,-5.3155,-5.6369,0.0,-5.4888,-5.3532,-5.303,-5.3582,-5.3984,-5.4938,-5.657,-5.8027,-5.9232,-6.0136,-6.0914,-6.1868,-6.2973,-6.3199,-6.3776,-6.4731,-6.5082,-6.5333,-6.5534,-6.5534,-6.5333,-6.4982,-6.463,-6.3952,-6.2948,-6.0989,-5.8579,-5.5993,-5.4461,-5.3532,-5.3055,-5.2653,-5.2729,-5.2929,0.0,0.0,0.0,0.0,0.0,0.0,0.0,0.0,-4.1113,-4.0976,-3.912,-3.7741,-3.7078,-3.596,-3.5025,-3.4877,-3.5204,-3.5271,-3.479,-3.7145,-3.8606,-3.884,-4.1954,-4.1467,-3.6852,-3.5959,-3.4875,-3.3881,-3.5257,-3.658,-3.7849,-3.833,-3.8731,-3.9012,-3.8798,-3.8544,-3.8143,-3.5965,-3.4148,-3.2781,-3.2732,-3.4113,-3.6098,0.0,0.0,0.0,0.0,0.0,0.0,0.0,0.0,0.0,0.0,0.0,0.0,0.0,0.0,0.0,0.0,0.0,0.0,0.0,0.0,0.0,0.0,0.0,0.0,0.0,0.0,0.0,0.0,0.0,0.0,0.0,0.0,0.0,0.0,0.0,-5.544,-5.7123,-6.0111,-6.1316,-5.9458,-5.8102,-5.7499,-5.7876,-5.8252,-5.9182,-6.0839,-6.2144,-6.3174,-6.3902,-6.4505,-6.4957,-6.5308,-6.5509,-6.576,-6.6137,-6.6513,-6.6689,-6.6689,-6.6488,-6.6212,-6.5835,-6.5258,-6.4731,-6.4203,-6.3827,-6.1918,-5.9156,-5.8027,-5.7148,-5.6495,-5.6294,-5.647,-5.6646,0.0,0.0,0.0,0.0,0.0,0.0,0.0,-4.1172,-4.1016,-4.0605,-3.7912,-3.6378,-3.745,-3.5385,-3.4696,-3.6433,-3.5765,-3.5378,-3.5658,-3.5762,-3.6945,-3.9135,-4.1162,-3.9745,-3.4683,-3.6818,-3.6922,-3.4857,-3.658,-3.7889,-3.8798,-3.9078,-3.9372,-3.964,-3.964,-3.9493,-3.9185,-3.8611,-3.7021,-3.4803,-3.324,-3.3754,-3.538,0.0,0.0,0.0,0.0,0.0,0.0,0.0,0.0,0.0,0.0,0.0,0.0,0.0,0.0,0.0,0.0,0.0,0.0,0.0,0.0,0.0,0.0,0.0,0.0,0.0,0.0,0.0,0.0,0.0,0.0,0.0,0.0,0.0,-4.9515,-5.4009,-5.775,-5.9458,-6.2144,-6.345,-6.237,-6.2747,-6.3048,-6.3048,-6.4028,-6.4856,-6.5383,-6.5936,-6.6212,-6.6212,-6.6764,-6.7041,-6.7041,-6.7593,-6.7844,-6.7844,-6.7869,-6.7869,-6.7819,-6.7292,-6.7041,-6.6965,-6.6388,-6.5835,-6.5308,-6.5308,-6.468,-6.35,-6.1291,-6.0412,-6.0337,-5.9784,-5.9558,-5.9282,0.0,0.0,0.0,0.0,0.0,0.0,0.0,-4.1172,-4.1133,-4.1016,-3.8856,-3.7581,-3.8578,-3.7342,-3.6874,-3.8036,-3.7301,-3.7675,-3.9456,-3.9028,-3.9501,-4.136,-3.835,-3.6715,-3.6981,-3.6399,-3.6244,-3.6981,-3.8103,-3.9118,-4.0,-4.0294,-4.0575,-4.0869,-4.0869,-4.0829,-4.0722,-4.0575,-3.9893,-3.8624,-3.5431,-3.5215,-3.6652,0.0,0.0,0.0,0.0,0.0,0.0,0.0,0.0,0.0,0.0,0.0,0.0,0.0,0.0,0.0,0.0,0.0,0.0,0.0,0.0,0.0,0.0,0.0,0.0,0.0,0.0,0.0,0.0,0.0,0.0,0.0,0.0,-5.1059,-5.2992,-5.6445,-6.0035,-6.3299,-6.6162,-6.7894,-6.7995,-6.812,-6.8045,-6.7668,-6.7894,-6.8145,-6.8296,-6.8447,-6.8522,-6.8522,-6.8673,-6.8773,-6.8773,-6.8924,-6.8999,-6.8999,-6.9401,-6.9175,-6.8396,-6.8648,-6.8321,-6.7543,-6.699,-6.6413,-6.586,-6.5459,-6.4881,-6.4153,-6.3149,-6.2496,-6.2069,-6.1517,-6.0788,-5.991,0.0,0.0,0.0,0.0,0.0,0.0,0.0,-4.1172,-4.0783,-3.9793,-3.8735,-3.819,-3.7954,-3.7773,-3.7823,-3.8477,-3.7489,-3.7743,-3.987,-3.9818,-3.967,-3.9339,0.0,-3.6085,-3.686,-3.658,-3.6981,-3.8397,-3.9265,-4.004,-4.0655,-4.1096,-4.1416,-4.171,-4.1857,-4.1964,-4.2071,-4.1964,-4.171,-4.1163,-3.8584,-3.7716,-3.7759,-3.5748,-3.6357,-3.7789,-3.6964,-3.7696,-3.8885,-3.7861,0.0,0.0,0.0,0.0,0.0,0.0,0.0,0.0,0.0,0.0,0.0,0.0,0.0,0.0,0.0,0.0,0.0,0.0,0.0,0.0,0.0,0.0,0.0,0.0,-5.2019,-5.4479,-5.8149,-6.0362,-6.3099,-6.7216,-6.9351,-7.0882,-7.1912,-7.2012,-7.1761,-7.1234,-7.1184,-7.1083,-7.0832,-7.0832,-7.0832,-7.0807,-7.1058,-7.1058,-7.0832,-7.0807,-7.0706,-7.048,-7.0556,-7.028,-6.9652,-6.9752,-6.9426,0.0,-6.7995,-6.7467,-6.7091,-6.6312,-6.566,0.0,0.0,0.0,0.0,0.0,-6.1793,-6.0914,0.0,0.0,0.0,0.0,0.0,0.0,0.0,-4.1152,-4.0394,-3.8071,-3.8467,-3.8371,-3.6877,-3.7359,-3.8063,-3.8668,-3.7275,-3.7025,-3.8672,-3.9403,-3.8366,-3.5554,-3.6992,-3.7059,-3.5525,-3.7195,-3.8464,-3.9306,-4.0187,-4.0762,-4.1056,-4.1644,-4.2044,-4.2365,-4.2659,-4.2913,-4.3167,-4.2913,-4.2806,-4.2739,-4.1924,-4.0508,-3.8651,-3.6687,-3.7489,-3.9435,-3.8403,-3.9739,-4.1905,-4.1298,0.0,0.0,0.0,0.0,0.0,0.0,0.0,0.0,0.0,0.0,0.0,0.0,0.0,0.0,0.0,0.0,0.0,0.0,0.0,0.0,0.0,0.0,0.0,0.0,-5.4182,-5.7845,-6.4219,-6.5233,-6.6764,-7.0706,-7.1786,-7.2791,-7.4347,-7.4573,-7.4372,-7.382,-7.377,-7.3519,-7.2941,0.0,0.0,0.0,0.0,-7.3443,-7.2916,-7.2916,-7.264,-7.2087,-7.1661,-7.1359,-7.1158,-7.0732,-7.048,-7.0305,-6.925,-6.8773,-6.8622,-6.7593,-6.6789,-6.6086,-6.4931,-6.4178,-6.3701,-6.3149,-6.2621,-6.2119,0.0,0.0,0.0,0.0,0.0,0.0,0.0,-4.0957,-4.0977,-4.0569,-3.9444,-3.8569,-3.815,-3.7423,-3.8225,-4.1733,-3.9875,-3.9131,-4.0366,-3.947,-3.864,-3.8126,-3.711,-3.6761,-3.7635,-3.8945,-3.9813,-4.0214,-4.1096,-4.167,-4.1964,-4.2325,-4.2766,-4.3273,-4.334,-4.3527,-4.3821,-4.3781,-4.3754,-4.3714,-4.3273,-4.1777,-3.9626,-3.825,-3.7437,-3.7145,-3.8856,-4.0087,-4.0935,-4.1649,-4.3498,-4.5106,-4.2803,-4.2499,0.0,0.0,0.0,0.0,0.0,0.0,0.0,0.0,0.0,0.0,0.0,0.0,0.0,0.0,0.0,0.0,0.0,0.0,0.0,-5.4727,-5.6764,-6.0241,-6.8036,-6.9903,-7.0782,-7.1636,-7.3042,-7.4247,-7.5,-7.5477,-7.5502,-7.495,-7.4925,-7.4674,-7.4121,-7.4096,0.0,-7.4096,-7.4197,-7.4197,-7.4096,-7.4096,-7.382,-7.3268,0.0,0.0,-7.1761,-7.2087,-7.1761,-7.0882,-7.0229,-6.9702,-6.9225,-6.8572,-6.7719,-6.6664,-6.5082,-6.4404,-6.4254,-6.3726,-6.345,-6.3224,0.0,0.0,0.0,0.0,0.0,0.0,0.0,-4.0703,-4.0589,-3.9669,-3.9625,-3.9224,-3.8673,-3.8417,-3.9063,-4.1379,-4.128,-3.9997,-3.7805,-3.9339,-3.9699,-3.7631,-3.7482,-3.8076,-3.9559,-4.0321,-4.0909,-4.135,-4.1937,-4.2365,-4.2659,-4.3127,-4.3648,-4.4222,-4.4369,-4.4583,-4.4877,-4.473,-4.4663,-4.4623,-4.4329,-4.342,-4.2111,-4.0909,-4.0643,-4.1074,-4.3561,-4.4753,-4.5373,-4.6968,-4.7997,-4.8226,-4.637,-4.5776,-4.543,0.0,0.0,0.0,0.0,0.0,0.0,0.0,0.0,0.0,0.0,0.0,0.0,0.0,0.0,-4.1898,-4.323,0.0,-4.8666,-5.4384,-5.7056,-6.0862,-6.8167,-7.049,-7.2028,-7.3753,-7.4724,-7.5452,-7.6004,-7.6557,-7.6532,-7.5703,-7.5904,-7.5929,-7.5653,-7.5653,-7.5653,-7.5653,-7.5653,-7.5502,-7.5226,-7.4975,-7.4699,-7.4423,-7.4423,-7.3971,-7.3167,-7.3167,-7.2866,-7.2288,-7.146,-7.0932,-7.0581,-6.9501,-6.8221,-6.689,-6.6061,-6.5383,-6.4781,-6.3977,-6.3701,-6.3576,0.0,0.0,0.0,0.0,0.0,0.0,0.0,-4.041,-4.0009,-3.8559,-3.9456,-3.9843,-3.8774,-3.9007,-3.9642,-4.0322,-4.2469,-4.1613,-3.6265,-4.0086,-4.0823,-3.7337,-3.8504,-3.9853,-4.1229,-4.1523,-4.1924,-4.2472,-4.2846,-4.3127,-4.338,-4.3928,-4.4476,-4.5064,-4.5277,-4.5598,-4.5892,-4.5678,-4.5571,-4.5531,-4.5318,-4.5064,-4.4756,-4.3754,-4.4134,-4.5406,-4.7589,-4.8822,-4.9761,-5.1912,-5.2141,-5.1289,-5.0527,-4.9492,-4.8262,-4.6641,-4.5742,0.0,0.0,0.0,0.0,0.0,0.0,0.0,0.0,0.0,-4.1016,-4.1875,-4.2519,-4.3476,-4.5312,-4.7109,-4.9768,-5.3882,-5.7136,-6.0978,-6.6732,-6.9656,-7.2292,-7.5384,-7.6132,-7.6431,-7.6984,-7.7436,-7.7335,-7.6431,-7.6783,-7.7034,-7.7034,-7.7034,-7.7034,-7.7034,-7.7034,-7.6783,-7.623,-7.5778,-7.5452,-7.5226,-7.49,-7.4623,-7.4397,-7.4071,-7.3795,-7.3544,-7.2389,-7.1836,-7.1636,-7.0204,-6.8698,-6.7292,-6.7191,-6.6513,-6.5484,-6.4404,-6.3927,-6.3751,0.0,0.0,0.0,0.0,0.0,0.0,0.0,0.0,-4.0374,-4.0259,-3.9977,-3.96,-3.9165,-3.8401,-3.8811,-4.0825,-4.5007,-4.563,-4.0951,-4.2302,-4.2171,-3.9756,-4.0548,-4.1497,-4.2445,-4.2766,-4.306,-4.338,-4.3968,-4.4249,-4.4289,-4.4623,-4.509,-4.5638,-4.5678,-4.5999,-4.652,-4.648,-4.648,-4.648,-4.644,-4.64,-4.6333,-4.5932,-4.485,-4.3803,-4.6109,-4.7479,-4.8132,-5.0967,-5.2661,-5.3574,-5.3086,-5.2558,-5.1582,-4.875,-4.709,-4.5605,-4.3047,-4.1523,-4.0703,-4.0898,-4.0996,-4.1406,0.0,0.0,-4.4141,-4.5,-4.6113,-4.7129,-4.7734,-4.957,-5.23,-5.6759,-5.8767,-6.1413,-6.609,-6.9613,-7.2266,-7.4159,-7.5869,-7.7009,-7.7561,-7.7662,-7.7662,-7.7536,-7.7586,-7.7611,-7.7611,-7.7611,-7.7611,-7.7611,-7.7611,-7.7335,-7.6783,-7.6733,-7.6205,-7.5251,-7.5678,-7.5352,-7.4423,-7.4849,-7.4523,-7.3544,-7.2389,-7.1636,-7.1133,-7.0455,-6.9476,-6.8396,-6.7894,-6.7317,-6.6639,-6.5534,-6.4806,-6.4304,0.0,0.0,0.0,0.0,0.0,0.0,0.0,0.0,0.0,-4.0488,-4.054,-4.0583,-4.064,-4.0253,-4.0344,-4.1128,-4.4663,-4.5058,-4.1307,-4.3721,-4.4095,-4.1436,-4.2138,-4.2953,-4.3674,-4.3821,-4.4008,-4.4329,-4.4583,-4.477,-4.4943,-4.5237,-4.5598,-4.6012,-4.6373,-4.6654,-4.6881,-4.7068,-4.7135,-4.7135,-4.7135,-4.7028,-4.6841,-4.6547,-4.5171,-4.3697,-4.7448,-4.8268,0.0,-5.1923,-5.3862,-5.4707,-5.4258,-5.3476,-5.2266,-5.0019,-4.8086,-4.5996,-4.2891,-4.1855,-4.1621,-4.1562,-4.248,-4.3867,-4.5566,-4.6484,-4.7383,-4.875,-4.9648,-5.0566,-5.1758,-5.3105,-5.4766,0.0,-5.8445,-6.0793,-6.4253,-6.7731,-7.038,-7.1902,-7.5051,-7.721,-7.8088,-7.849,-7.8415,-7.7762,-7.7988,-7.8189,-7.8189,-7.8189,-7.8189,-7.8189,-7.8189,-7.7762,-7.6883,-7.6883,-7.6482,-7.5728,-7.5954,-7.5804,-7.5377,-7.5276,-7.4649,-7.3569,-7.3092,-7.2213,-7.1058,-7.0832,-6.9903,-6.8597,-6.8371,-6.7744,-6.684,-6.571,-6.4931,-6.4379,0.0,0.0,0.0,0.0,0.0,0.0,0.0,0.0,0.0,0.0,-4.0723,-4.1152,-4.1582,-4.1621,-4.1504,-4.1211,-4.3594,-4.4342,-4.2244,-4.4596,-4.5364,-4.3677,-4.3859,-4.4182,-4.4797,-4.4877,-4.5064,-4.5358,-4.5358,-4.5465,-4.5678,-4.5892,-4.6186,-4.656,-4.6988,-4.7282,-4.7428,-4.7749,-4.7829,-4.7749,-4.7829,-4.7575,-4.7108,-4.6507,-4.5509,-4.448,-4.7148,-4.7674,-4.7264,-5.0693,-5.2676,-5.3535,-5.3594,-5.3027,-5.1992,-5.0176,-4.793,-4.5527,-4.3164,-4.2734,-4.3027,-4.332,-4.4746,-4.6601,-4.8555,-4.9668,-5.0742,-5.2344,-5.3105,-5.3887,-5.5156,-5.5976,-5.664,-5.7207,-5.8379,-5.9889,-6.2247,-6.5758,-6.8431,-6.9264,-7.3102,-7.618,-7.7285,-7.8465,-7.8867,-7.8214,-7.854,-7.8817,-7.8967,-7.8842,-7.8842,-7.8992,-7.8842,-7.8214,-7.7109,-7.7109,-7.6758,-7.6055,-7.6055,-7.6055,-7.603,-7.5502,-7.4724,-7.382,-7.3669,-7.2715,-7.1309,-7.1158,-7.028,-6.9049,-6.8748,-6.8045,-6.7091,-6.6112,-6.5208,-6.4404,0.0,0.0,0.0,0.0,0.0,0.0,0.0,0.0,0.0,0.0,0.0,0.0,0.0,-4.1191,-4.1191,-4.1172,-4.2754,-4.4144,-4.5362,-4.5179,-4.5638,-4.7167,-4.5587,-4.5104,-4.5705,-4.5999,-4.6266,-4.6587,-4.6587,-4.6587,-4.6587,-4.6587,-4.6907,-4.7455,-4.7469,-4.7789,-4.8337,-4.8631,-4.8591,-4.8377,-4.8658,-4.8257,-4.7322,-4.5892,-4.5601,-4.5758,-4.4492,-4.3761,-4.3751,-4.5665,-4.7505,-4.9277,-5.0527,-5.1172,-5.1055,-4.8906,-4.6152,-4.3867,-4.4219,-4.4336,-4.4824,-4.6894,-4.8105,-4.9433,-5.1973,-5.3242,-5.4238,-5.5527,-5.6465,-5.707,-5.7129,-5.75,-5.8086,-5.8965,-5.914,-5.9473,-6.0481,-6.4586,-6.7051,-6.6068,-7.0027,-7.3293,0.0,-7.6984,-7.8766,-7.9294,-7.9344,-7.9595,-8.0122,-7.9645,-7.9595,-8.0147,-7.9645,-7.8817,-7.7687,-7.7687,-7.7134,-7.6055,-7.6055,-7.6055,-7.603,-7.5502,-7.4925,-7.4372,-7.382,-7.2941,-7.1836,-7.1309,-7.0732,-7.0104,-6.9024,-6.8271,-6.7719,-6.7141,-6.5886,-6.4454,0.0,0.0,0.0,0.0,0.0,0.0,0.0,0.0,0.0,0.0,0.0,0.0,0.0,0.0,0.0,0.0,-4.2734,-4.3519,-4.3306,-4.6371,-4.8361,-4.8142,-5.0716,-5.2041,-5.2257,-5.1162,-5.037,-5.0442,-4.8208,-4.7201,-4.7201,-4.7388,-4.7602,-4.7789,-4.819,-4.8484,-4.8698,-4.8992,-4.8952,-4.8631,-4.8337,-4.9342,-5.0932,-4.9062,-4.8044,-4.7228,0.0,-4.5859,-4.4643,-4.5538,-4.6542,-4.7656,-4.8086,-4.832,-4.8086,-4.623,-4.5371,-4.5039,-4.5215,-4.6289,-4.7812,-4.9668,-5.1445,-5.334,-5.5605,-5.6816,-5.7656,-5.8359,-5.7793,-5.7129,-5.6855,-5.668,-5.6875,-5.7734,-5.8828,-5.9805,-6.0371,-6.343,-6.5174,-6.3743,-6.7789,0.0,0.0,0.0,0.0,-7.8666,-7.9168,-7.9469,-7.9645,-7.9846,-7.9846,-7.967,-7.9495,-7.9018,-7.8264,-7.7888,-7.7335,-7.6607,-7.623,-7.6055,-7.6055,-7.5854,-7.5276,-7.4397,-7.4222,-7.3293,-7.1861,-7.1309,-7.0757,-7.0179,-6.9451,-6.8823,-6.8271,-6.7719,-6.6689,-6.5459,0.0,0.0,0.0,0.0,0.0,0.0,0.0,0.0,0.0,0.0,0.0,0.0,0.0,0.0,0.0,0.0,0.0,-4.2978,-4.3408,-4.586,-4.7826,-4.8479,-5.0855,-5.2264,-5.2508,-5.1152,-5.0871,-5.1716,-4.9562,-4.8962,-4.9895,-4.8758,-4.9288,-5.073,-5.0133,-5.0471,-5.1824,-5.2184,-5.1983,-5.1407,-5.0022,-5.0191,-5.136,-4.8818,-4.7323,0.0,-4.5927,-4.5036,-4.4488,-4.4491,-4.4883,-4.5351,-4.5508,-4.5664,-4.5664,-4.5039,-4.5566,-4.6562,-4.748,-4.9297,-5.1426,-5.3457,-5.5254,-5.6953,-5.8613,-5.9355,-5.9531,-5.918,-5.7617,-5.6074,-5.5332,-5.4473,-5.4414,-5.6035,-5.7246,-5.8496,-5.998,-6.1887,-6.3229,-6.3033,-6.5945,-6.8707,0.0,0.0,0.0,-7.7687,-7.8465,-7.8967,-7.9369,-7.9921,-8.0147,-7.9972,-7.9796,-7.9419,-7.8842,-7.8088,-7.731,-7.6582,-7.623,-7.6055,-7.6055,-7.6055,-7.5552,-7.4699,-7.4498,-7.3694,-7.2439,-7.1686,-7.1058,-7.0506,-6.9953,-6.9275,-6.8547,-6.7995,-6.7091,-6.5961,0.0,0.0,0.0,0.0,0.0,0.0,0.0,0.0,0.0,0.0,0.0,0.0,0.0,0.0,0.0,0.0,0.0,0.0,-4.5293,-4.396,-4.4658,-4.8396,-4.7122,-4.6511,-4.7445,-4.7281,-4.8147,-5.0041,-5.0041,-5.1072,-5.3615,-5.0276,-5.1317,-5.5177,-5.2345,-5.3421,-5.701,-5.7369,-5.6626,-5.5486,-5.2862,-5.0778,-4.9122,-4.5452,-4.424,-4.4025,-4.2189,-4.2099,-4.2949,-4.2539,-4.2422,-4.2539,-4.2949,-4.3398,-4.4043,-4.543,-4.6738,-4.832,-5.0957,-5.3262,-5.5508,-5.8027,-5.9336,-6.0156,-6.0918,-6.0742,-5.9922,-5.8086,-5.6207,-5.4267,-5.2894,0.0,-5.1306,-5.4325,-5.4765,-5.6055,-5.9414,-6.0206,-6.124,0.0,0.0,0.0,0.0,0.0,0.0,-7.6582,0.0,-7.8164,-7.9369,-7.9947,-8.0474,-8.0976,-8.0474,-7.9947,-7.9394,-7.8264,-7.7159,-7.6055,-7.6055,-7.6055,-7.6055,-7.6055,-7.5753,-7.5176,-7.4649,-7.4096,-7.3468,-7.2339,-7.156,-7.1033,-7.0455,-6.9551,-6.8547,-6.7995,-6.7091,-6.5986,0.0,0.0,0.0,0.0,0.0,0.0,0.0,0.0,0.0,0.0,0.0,0.0,0.0,0.0,0.0,0.0,0.0,0.0,-4.2715,-4.4396,-4.6048,-4.7322,-5.0265,-5.1961,-5.2183,-5.0714,-5.0208,-5.0672,-4.7934,-4.6956,-4.7982,-4.7055,-4.7714,-4.9174,-4.8544,-4.9053,-5.0213,-5.0309,-4.9894,-4.9031,-4.7474,-4.8078,-4.9451,-4.7563,-4.6753,-4.6618,-4.5846,-4.3972,-4.2109,-4.1992,-4.2383,-4.293,-4.3047,-4.3808,-4.5137,-4.7383,-4.8965,-5.0683,-5.3906,-5.6367,-5.8437,-6.0039,-6.1308,-6.2012,-6.1269,-6.0508,-5.9219,-5.6504,-5.4884,-5.3393,-5.1372,-5.1454,0.0,-5.5358,-5.6871,0.0,-6.0449,-6.1212,0.0,-6.2106,0.0,-6.7222,-6.9548,-7.1723,0.0,0.0,-7.7009,-7.7938,-7.9896,-8.0524,-8.07,-8.0424,-8.0273,-7.9947,-7.9394,-7.8264,-7.7159,-7.6055,-7.6055,-7.6055,-7.6055,-7.6055,-7.5527,-7.4623,-7.4473,-7.387,-7.2866,-7.1761,-7.1209,-7.0983,-7.0029,-6.9225,-6.8547,-6.7995,-6.7367,-6.6538,0.0,0.0,0.0,0.0,0.0,0.0,0.0,0.0,0.0,0.0,0.0,0.0,0.0,0.0,0.0,0.0,0.0,0.0,0.0,-4.3281,-4.4609,-4.5215,-4.7793,-4.9414,-4.9805,-4.8357,-4.8322,-4.9773,-4.7137,-4.6924,-4.8659,-4.6818,-4.707,-4.9318,-4.7945,-4.8451,-5.0337,-5.0337,-4.97,0.0,0.0,-4.6977,-4.8079,-4.6108,-4.5215,-4.5019,-4.4766,-4.3672,-4.248,-4.3242,-4.3828,-4.4375,-4.5312,-4.6777,-4.8594,-5.0976,-5.2734,-5.4531,-5.7422,-5.9648,-6.1426,-6.2519,-6.3047,-6.2754,-6.0488,-5.918,-5.7462,-5.4445,-5.2535,-5.1245,-5.0356,-5.0312,-5.1473,0.0,0.0,0.0,-6.0683,-6.0976,-6.14,0.0,-6.4765,0.0,-7.0635,-7.2453,-7.4514,0.0,-7.7159,-7.7737,-7.9746,-8.0599,-8.0901,-8.0574,-8.0574,-7.9947,-7.8666,-7.8264,-7.7385,-7.6055,-7.6306,-7.6281,-7.6055,-7.6055,-7.5728,-7.5101,0.0,-7.4046,-7.3393,-7.2263,-7.151,-7.1033,-7.0405,-6.9526,-6.8547,-6.7995,-6.7442,-6.6764,0.0,0.0,0.0,0.0,0.0,0.0,0.0,0.0,0.0,0.0,0.0,0.0,0.0,0.0,0.0,0.0,0.0,0.0,0.0,0.0,-4.2051,-4.2793,-4.2871,-4.3262,-4.4043,-4.3652,-4.4726,-4.7363,-4.6562,-4.7734,-5.0703,-4.6992,-4.7295,-5.0706,-4.8441,-4.9028,-5.207,-5.207,-5.1621,-5.0664,-4.7969,-4.6426,-4.5469,0.0,-4.209,-4.1719,-4.1777,-4.2246,-4.3164,-4.5371,-4.6211,-4.6719,-4.8808,-5.0976,-5.3183,-5.5351,-5.709,-5.8769,-6.0918,-6.2695,-6.4101,-6.4824,-6.4375,-6.2754,-5.9238,-5.7265,-5.5286,-5.1637,-4.9839,-4.8847,-4.8916,-4.8543,-4.966,-5.331,0.0,-5.658,-6.1161,-6.0991,-6.1618,-6.5266,-6.5798,-6.7691,-7.2593,-7.3602,-7.5491,-7.8612,-7.7913,-7.7963,-7.9419,-8.0474,-8.1001,-8.0926,-8.085,-7.9846,-7.7837,-7.8289,-7.7762,-7.6281,-7.6682,-7.6632,-7.6155,-7.608,-7.603,-7.5904,-7.495,0.0,-7.4222,-7.3167,-7.2113,-7.1184,-7.1033,-7.0054,-6.8648,-6.802,-6.7442,-6.6815,0.0,0.0,0.0,0.0,0.0,0.0,0.0,0.0,0.0,0.0,-3.9277,-3.9629,0.0,0.0,0.0,0.0,0.0,0.0,0.0,0.0,0.0,-4.1504,-4.1836,-4.209,-4.2246,-4.2168,-4.2383,-4.291,-4.2422,-4.2656,-4.3574,-4.2905,-4.3292,-4.4648,-4.418,-4.445,-4.5371,-4.5371,-4.5098,-4.457,-4.3672,-4.3027,-4.2539,-4.209,0.0,0.0,-4.168,-4.168,-4.2207,-4.6797,-4.9043,-5.0234,-5.2012,-5.4297,-5.6738,-5.8926,-6.0039,-6.0976,-6.3164,-6.4492,-6.5293,-6.543,-6.4551,-6.2695,-5.8848,-5.5879,-5.2659,-4.78,-4.8128,-4.8536,-4.5638,-4.7978,-5.2037,-5.7061,-5.6643,-5.8169,-6.5348,-6.4446,-6.3461,-6.4511,-6.8996,-7.2118,-7.2616,-7.691,0.0,0.0,0.0,-7.9771,-8.0047,-8.0675,-8.0825,-8.0373,-7.9921,-7.9269,-7.839,-7.8465,-7.8164,-7.7411,-7.7059,-7.6833,-7.6733,-7.6256,-7.5804,-7.5377,-7.5176,0.0,-7.3669,-7.3016,-7.2339,-7.1686,-7.0757,-6.9953,-6.9175,-6.817,-6.7442,-6.6815,0.0,0.0,0.0,0.0,0.0,0.0,0.0,0.0,-3.8418,-4.0586,-4.0684,-4.0469,-4.0215,-4.0391,0.0,0.0,0.0,0.0,0.0,0.0,0.0,0.0,0.0,0.0,-4.1484,-4.1484,-4.168,-4.2129,0.0,-4.1504,-4.2109,-4.168,-4.1699,-4.209,-4.209,-4.2207,-4.2383,-4.2383,-4.2266,-4.207,-4.1855,-4.166,-4.1484,-4.1484,0.0,0.0,-4.166,-4.1953,-4.2754,-4.6582,-4.9922,-5.2969,-5.582,-5.8496,-6.0859,-6.2344,-6.3262,-6.4023,-6.5293,-6.6289,-6.6875,-6.664,-6.4785,-6.1738,-5.6953,-5.3359,-4.9905,-4.5649,-4.6642,-4.7999,-4.7355,-5.0063,-5.3358,-5.6473,-5.6414,-5.7877,-6.3584,-6.329,-6.3776,-6.6974,-6.9883,-7.2627,-7.5628,-7.8105,-7.9943,0.0,0.0,-8.1252,-8.0675,-8.0624,-8.0474,-8.0223,-7.967,-7.9118,-7.854,-7.8817,-7.854,-7.7712,-7.7436,-7.7159,-7.6858,-7.6306,-7.5904,-7.5653,-7.5377,0.0,-7.3971,-7.3418,-7.2665,-7.1836,-7.1008,-7.0179,-6.9351,-6.8522,-6.7693,-6.689,0.0,0.0,0.0,0.0,0.0,0.0,0.0,-3.9023,-3.9453,-4.2578,-4.2695,-4.1973,-4.0586,-4.0644,-4.0723,0.0,0.0,0.0,0.0,0.0,0.0,0.0,0.0,0.0,0.0,0.0,0.0,-4.2148,-4.1504,0.0,0.0,0.0,0.0,0.0,-4.1172,-4.1172,-4.1172,-4.1172,-4.1172,0.0,0.0,-4.1172,0.0,0.0,0.0,0.0,0.0,-4.2148,-4.3223,-4.5898,-4.9473,-5.3418,-5.7129,-6.0898,-6.4023,-6.4414,-6.5469,-6.6562,-6.6914,-6.7558,-6.8066,-6.7617,-6.4726,-6.0566,-5.5234,-5.1133,-4.7544,-4.3997,-4.4913,-4.6815,-4.8205,-5.0792,-5.3139,-5.4991,-5.5251,-5.6821,-6.1726,-6.1727,-6.3292,-6.8827,-7.0383,-7.276,-7.7782,-7.8934,0.0,0.0,0.0,0.0,-8.1076,-8.0499,-8.0147,-8.0047,-7.962,-7.9168,-7.8716,-7.9168,-7.8942,-7.8063,-7.7938,-7.7586,-7.7034,-7.6482,-7.618,-7.603,-7.5603,0.0,0.0,-7.3946,-7.3092,-7.2012,-7.1334,-7.0556,-6.9702,-6.8924,-6.7995,-6.7141,0.0,0.0,0.0,0.0,0.0,0.0,0.0,-3.9785,-4.0937,-4.4336,-4.4746,-4.4082,-4.2383,-4.1894,-4.1367,0.0,0.0,0.0,0.0,0.0,0.0,0.0,0.0,0.0,0.0,0.0,0.0,-4.1289,-4.1211,0.0,0.0,0.0,0.0,0.0,0.0,-4.1172,-4.1172,-4.1172,0.0,0.0,0.0,0.0,0.0,0.0,0.0,0.0,0.0,-4.1523,-4.2363,-4.5351,-4.7422,-4.9277,-5.2383,-5.8652,-6.459,-6.3555,-6.5176,-6.7383,-6.7441,-6.7793,-6.8066,-6.7617,-6.4023,-5.9453,-5.5039,-5.043,-4.5859,-4.1621,-4.2788,-4.4123,-4.3425,-4.6348,-5.0307,-5.4941,-5.4052,-5.5598,-6.3674,-6.2591,-6.2246,-6.5707,-7.1909,-7.5762,-7.5853,-8.0733,0.0,0.0,0.0,0.0,-8.1076,-8.0499,-7.9972,-7.9469,-7.9419,-7.9369,-7.9319,-7.9369,-7.9344,-7.9218,-7.8691,-7.8164,-7.7611,-7.7059,-7.6532,-7.6055,-7.6004,0.0,0.0,-7.4372,-7.3669,-7.2539,-7.1485,-7.1033,-7.0732,-6.92,-6.8246,-6.7643,0.0,0.0,0.0,0.0,0.0,0.0,0.0,-3.9668,-4.0898,-4.4902,-4.541,-4.5254,-4.4805,-4.3926,-4.2383,0.0,0.0,0.0,0.0,0.0,0.0,0.0,0.0,0.0,0.0,0.0,0.0,-4.1172,-4.1172,0.0,0.0,0.0,0.0,0.0,0.0,-4.1172,-4.1172,-4.1172,0.0,0.0,0.0,0.0,0.0,0.0,0.0,0.0,0.0,0.0,-4.1641,-4.3105,-4.4961,-4.6797,-4.75,-5.207,-5.7773,-6.0625,-6.3047,-6.5234,-6.7324,-6.8418,-6.8769,-6.8066,-6.375,-5.8711,-5.4902,-4.9746,-4.4785,-4.125,-4.3123,-4.5238,-4.4561,-4.6735,-4.9404,-5.1483,-5.0091,-5.0472,-5.5707,-5.5695,-5.7916,-6.4455,-6.8213,-7.1799,0.0,0.0,0.0,0.0,0.0,0.0,-8.1553,-8.0675,-8.0122,-7.9896,-7.957,-7.9394,-7.9394,-7.9394,-7.9394,-7.9369,-7.8792,-7.8239,-7.7687,-7.7134,-7.6582,-7.6055,-7.6055,0.0,0.0,-7.4548,-7.3946,-7.3117,-7.1661,-7.1083,-7.0932,-6.9602,-6.8547,-6.7769,0.0,0.0,0.0,0.0,0.0,-3.7246,-3.9551,-3.9726,-4.1016,-4.4961,-4.5488,-4.5644,-4.6074,-4.5233,-4.3398,-4.0195,0.0,0.0,0.0,0.0,0.0,0.0,0.0,0.0,0.0,0.0,0.0,-4.0976,-4.1113,-4.1172,0.0,0.0,-4.1172,0.0,0.0,0.0,0.0,0.0,0.0,0.0,0.0,0.0,0.0,0.0,0.0,0.0,0.0,0.0,0.0,0.0,0.0,-4.4238,-4.3633,-4.6113,-5.041,-5.6387,-6.0215,-6.3105,-6.6055,-6.7949,-6.8887,-6.8183,-6.334,-5.7969,-5.4765,-4.9258,-4.3984,-4.0957,-4.2617,-4.4641,-4.5021,-4.6793,-4.817,-4.8586,-4.7505,-4.7422,-4.9969,-5.0792,-5.3678,-6.1292,0.0,0.0,0.0,0.0,0.0,0.0,0.0,0.0,0.0,-8.1127,-8.0373,-8.0223,-7.967,-7.9394,-7.9394,-7.9394,-7.9394,-7.9369,-7.8967,-7.839,-7.7687,-7.731,-7.6733,-7.6055,-7.6055,0.0,0.0,-7.4649,-7.3996,-7.3192,-7.1661,-7.0983,-7.0732,-6.9803,-6.8748,-6.7794,0.0,0.0,0.0,0.0,0.0,0.0,0.0,-4.0234,-4.1601,-4.4629,-4.5039,-4.5195,-4.5644,-4.5332,-4.4243,-4.1955,0.0,0.0,0.0,0.0,0.0,0.0,0.0,0.0,0.0,0.0,-4.0527,-4.0527,-4.0957,-4.1172,-4.1172,-4.1172,-4.1172,-4.1172,0.0,0.0,0.0,0.0,0.0,0.0,0.0,0.0,0.0,0.0,0.0,0.0,0.0,0.0,0.0,0.0,0.0,0.0,0.0,-4.1816,-4.3867,-5.0762,-5.6738,-6.1484,-6.3281,-6.5937,-6.8086,-6.7617,-6.2656,-5.7207,-5.4609,-4.9043,-4.3555,-4.0527,-4.0234,-4.1283,-4.3713,-4.4923,-4.6143,-4.7454,-4.7643,-4.8057,-4.9634,-4.9653,-5.082,0.0,0.0,-6.3833,0.0,0.0,0.0,0.0,0.0,0.0,0.0,-8.1905,-8.0775,-8.0223,-7.967,-7.9394,-7.9394,-7.9394,-7.9394,-7.9394,-7.9369,-7.8792,-7.7712,-7.7687,-7.7084,0.0,0.0,0.0,0.0,-7.4649,-7.3745,-7.264,-7.151,-7.0757,-7.0204,-6.9652,-6.8748,-6.7794,0.0,0.0,0.0,0.0,0.0,0.0,0.0,-3.8535,-3.9961,-4.2109,-4.2891,-4.375,-4.5098,-4.5027,-4.4515,-4.3771,0.0,0.0,0.0,0.0,0.0,0.0,0.0,0.0,0.0,0.0,-4.2549,-4.2399,-4.1535,-4.1172,-4.1172,-4.1172,-4.1172,-4.1172,-4.1172,0.0,0.0,0.0,0.0,0.0,0.0,0.0,0.0,0.0,0.0,0.0,0.0,0.0,0.0,0.0,0.0,0.0,0.0,0.0,0.0,-4.5234,-5.0508,-5.5742,-5.748,-5.9941,-6.1562,-5.9648,-5.5859,-5.2168,-5.0449,-4.6191,-4.2109,-4.0273,-4.0753,-4.2104,-4.3836,-4.3512,-4.4607,-4.911,-4.6589,-4.4954,-4.7706,-4.913,0.0,-5.718,-6.4067,-6.9271,0.0,0.0,0.0,0.0,0.0,0.0,0.0,-8.1729,-8.0951,-8.0775,-7.9871,-7.9394,-7.9394,-7.9394,-7.9394,-7.9394,-7.8992,-7.8415,-7.7687,-7.731,-7.6733,0.0,0.0,0.0,0.0,-7.4247,-7.3644,-7.3167,-7.1661,-7.0983,-7.0656,-6.9376,-6.8422,-6.7744,0.0,0.0,0.0,0.0,0.0,0.0,0.0,-3.748,-3.8535,-3.9785,-4.0547,-4.1641,-4.3379,-4.404,-4.4379,-4.4343,0.0,0.0,0.0,0.0,0.0,0.0,0.0,0.0,0.0,-4.4823,-4.44,-4.405,-4.3502,-4.2902,-4.2129,-4.2305,-4.2051,-4.1406,-4.1406,0.0,0.0,0.0,0.0,0.0,0.0,0.0,-4.0351,0.0,0.0,0.0,0.0,0.0,0.0,0.0,0.0,0.0,0.0,0.0,0.0,0.0,-4.5664,-5.0137,-5.2676,-5.5273,-5.6855,-5.5234,-5.2226,-4.9336,-4.8027,-4.4648,-4.1387,-3.9941,-4.0412,-4.1276,-4.2579,-4.215,-4.2806,-4.7074,-4.4939,-4.3981,-4.7168,0.0,0.0,-5.8839,0.0,0.0,0.0,0.0,0.0,0.0,0.0,0.0,0.0,-8.1629,-8.1026,-8.1026,-7.9972,-7.9394,-7.9394,-7.9394,-7.9269,-7.9068,-7.8691,-7.8114,-7.7385,-7.7034,-7.6582,0.0,0.0,0.0,0.0,-7.4046,-7.3468,-7.3142,-7.1887,-7.1133,-7.0631,-6.9401,-6.8447,-6.7719,0.0,0.0,0.0,0.0,0.0,0.0,0.0,0.0,0.0,-3.7773,-3.8242,-3.9141,-4.0762,-4.2788,-4.3872,-4.391,0.0,0.0,0.0,0.0,0.0,0.0,0.0,0.0,0.0,-4.6126,-4.6249,-4.5511,-4.6162,-4.5535,-4.3672,-4.4141,-4.3476,-4.1894,-4.1836,0.0,0.0,0.0,0.0,0.0,-4.0762,-4.0586,0.0,0.0,0.0,0.0,0.0,0.0,0.0,0.0,0.0,0.0,0.0,0.0,0.0,0.0,0.0,0.0,0.0,-5.1426,-5.3359,-5.3203,-5.0723,-4.8008,-4.6797,-4.3984,0.0,-3.9531,-3.918,-3.9493,-4.0625,-4.0557,-4.0986,-4.2772,-4.3084,-4.4509,-4.7954,-5.1402,0.0,0.0,0.0,0.0,0.0,0.0,0.0,0.0,0.0,0.0,0.0,-8.1604,-8.1026,-8.0976,-7.9947,-7.9394,-7.9394,-7.9394,-7.9093,-7.8515,-7.849,-7.7913,-7.6883,-7.6808,-7.6482,0.0,0.0,0.0,0.0,-7.3971,-7.3217,-7.2665,-7.2087,-7.1209,-7.0229,-6.9577,-6.8673,-6.7719,0.0,0.0,0.0,0.0,0.0,0.0,0.0,0.0,0.0,0.0,-3.7617,-3.8242,-3.8652,-4.0698,-4.2484,0.0,0.0,0.0,0.0,0.0,0.0,0.0,0.0,0.0,0.0,-4.8843,-4.762,-4.5948,-4.5805,-4.4918,-4.3223,-4.3672,-4.3476,-4.2754,-4.209,-4.1211,0.0,0.0,0.0,0.0,-4.0117,-3.9863,0.0,0.0,0.0,0.0,-4.0898,-4.1172,0.0,0.0,0.0,0.0,0.0,0.0,0.0,0.0,-4.0703,-4.1699,-4.2949,0.0,-4.6738,-4.5098,-4.3828,-4.291,0.0,-4.1113,-3.9687,-3.9277,0.0,-3.9314,-4.1274,-4.0024,-4.033,-4.5911,-4.3891,-4.2911,-4.6514,0.0,0.0,0.0,0.0,0.0,0.0,0.0,0.0,0.0,0.0,0.0,0.0,-8.1378,-8.0825,-8.0424,-7.9746,-7.9394,-7.9394,-7.9394,-7.9093,-7.8515,-7.8088,-7.7536,-7.6858,-7.6004,-7.5552,0.0,0.0,0.0,-7.392,-7.3217,-7.2841,-7.264,-7.1661,-7.1108,-7.0681,-6.8848,-6.802,-6.7668,0.0,0.0,0.0,0.0,0.0,0.0,0.0,0.0,0.0,0.0,0.0,0.0,0.0,0.0,0.0,0.0,0.0,0.0,0.0,0.0,0.0,0.0,0.0,0.0,-5.0896,-5.0654,-4.9392,-4.7002,-4.7203,-4.6149,-4.3965,-4.4004,-4.3691,-4.3027,-4.1777,-4.0605,0.0,0.0,0.0,0.0,-3.9726,0.0,0.0,0.0,0.0,0.0,-4.0859,-4.1035,0.0,-4.1113,-4.0879,-4.0488,0.0,0.0,0.0,0.0,-4.09,-4.1988,-4.1148,-4.2051,-4.2969,-4.1797,-4.1191,-4.082,-4.0625,-3.9863,-3.9141,-3.8965,0.0,-3.8806,-3.9739,-3.8644,-3.9049,-4.3586,-4.2586,-4.3689,0.0,0.0,0.0,0.0,0.0,0.0,0.0,0.0,0.0,0.0,0.0,0.0,0.0,-8.1227,-8.0624,-8.0599,-7.9545,-7.9118,-7.9394,-7.9118,-7.8716,-7.8139,-7.7586,-7.7034,-7.6482,-7.5628,-7.5251,0.0,0.0,0.0,-7.3544,-7.2966,-7.274,-7.264,-7.1786,-7.1158,-7.0506,-6.8798,-6.7869,-6.7292,0.0,0.0,0.0,0.0,0.0,0.0,0.0,0.0,0.0,0.0,0.0,0.0,0.0,0.0,0.0,0.0,0.0,0.0,0.0,0.0,0.0,0.0,0.0,-5.0368,-5.0544,-5.1498,-5.0688,-4.796,-4.9251,-4.8124,-4.5117,-4.5019,-4.4297,-4.3008,-4.1426,-4.0117,0.0,0.0,0.0,0.0,-3.9394,0.0,0.0,0.0,0.0,0.0,0.0,0.0,0.0,-4.1055,-4.0879,-4.0508,-4.0449,0.0,0.0,0.0,0.0,0.0,-4.1702,-4.1519,-4.1796,-4.1366,-4.0801,-4.0332,-3.998,-3.9492,-3.9004,-3.8652,-3.8574,0.0,0.0,-3.7695,0.0,-3.9877,-4.1276,0.0,0.0,0.0,0.0,0.0,0.0,0.0,0.0,0.0,0.0,0.0,0.0,0.0,0.0,-8.1051,-8.0474,-8.0775,-7.9319,-7.8766,-7.9243,-7.8691,-7.8114,-7.7561,-7.7109,-7.6532,-7.5904,-7.5377,-7.5075,-7.4925,0.0,0.0,-7.3418,-7.2841,-7.2615,-7.2539,-7.1912,-7.1033,-7.0003,-6.8899,-6.7844,-6.689,0.0,0.0,0.0,0.0,0.0,0.0,0.0,0.0,0.0,0.0,0.0,0.0,0.0,0.0,0.0,0.0,0.0,0.0,0.0,0.0,0.0,0.0,-4.9665,-5.0167,-5.1122,-5.1322,-5.0101,-4.7105,-4.9473,-4.8954,-4.5605,-4.6973,-4.5996,-4.3047,-4.2051,-4.0508,-3.8672,-3.875,-3.8691,-3.8594,-3.873,0.0,0.0,0.0,0.0,0.0,0.0,0.0,0.0,-4.1152,-4.0879,-4.0469,-4.0098,0.0,0.0,0.0,0.0,0.0,-4.451,-4.4764,-4.4038,-4.1796,-4.0586,-3.998,-3.9902,-3.9258,-3.8652,-3.8594,-3.8574,-3.8633,-3.8867,-3.9531,-4.0406,0.0,0.0,0.0,0.0,0.0,0.0,0.0,0.0,0.0,0.0,0.0,0.0,0.0,0.0,0.0,0.0,-8.08,-8.0524,-7.967,-7.8917,-7.8566,-7.8666,-7.8114,-7.7561,-7.7009,-7.6908,-7.6356,-7.5352,-7.4799,-7.4297,-7.382,0.0,-7.2866,-7.2816,-7.2263,-7.2037,-7.1937,-7.0907,-7.0129,-6.9451,-6.8321,-6.7543,-6.7139,0.0,0.0,0.0,0.0,0.0,0.0,0.0,0.0,0.0,0.0,0.0,0.0,0.0,0.0,0.0,0.0,0.0,0.0,0.0,0.0,0.0,-5.0444,-4.9916,-4.9841,-5.0368,-5.1548,-5.1247,-4.9461,-5.1221,-5.1313,-4.9801,-4.8276,-4.5801,-4.2676,-4.1348,-3.9961,-3.8574,-3.8574,-3.8574,-3.8574,0.0,0.0,0.0,0.0,0.0,0.0,0.0,0.0,0.0,0.0,-4.0351,-4.0156,-3.9961,0.0,0.0,0.0,0.0,0.0,-4.5614,-4.5834,-4.5405,-4.4194,-4.2484,-4.1016,-4.0098,0.0,-3.8984,-3.9238,-3.9082,-3.9043,0.0,0.0,-4.2793,0.0,0.0,0.0,0.0,0.0,0.0,0.0,0.0,0.0,0.0,0.0,0.0,0.0,0.0,0.0,0.0,0.0,-8.0047,-7.9846,-7.8691,-7.8088,-7.8088,-7.7235,-7.6833,-7.6883,-7.6582,-7.6004,-7.5226,-7.4674,-7.4121,-7.3569,0.0,-7.274,-7.269,-7.2138,-7.1912,-7.1786,-7.0681,-6.9928,-6.9275,-6.7869,-6.7015,-6.6513,0.0,0.0,0.0,0.0,0.0,0.0,0.0,0.0,0.0,0.0,0.0,0.0,0.0,0.0,0.0,0.0,0.0,0.0,0.0,0.0,-4.828,-5.0419,-5.0042,-5.0218,-5.1122,-5.2228,-5.2526,-5.2201,-5.3047,-5.3309,-5.291,-4.9151,-4.5781,-4.2812,-4.0996,-3.959,-3.8574,-3.8574,-3.8574,-3.8555,0.0,0.0,0.0,0.0,0.0,0.0,0.0,0.0,0.0,0.0,0.0,0.0,0.0,0.0,0.0,-4.2021,-4.3846,-4.5737,-4.7001,-4.6848,-4.6286,-4.6369,-4.4208,0.0,0.0,0.0,0.0,0.0,0.0,0.0,0.0,-4.2637,0.0,0.0,0.0,0.0,0.0,0.0,0.0,0.0,0.0,0.0,0.0,0.0,0.0,0.0,0.0,0.0,0.0,0.0,-7.9645,-7.9821,-7.844,-7.7637,-7.7511,-7.6532,-7.6281,-7.6682,-7.6256,-7.5703,-7.5025,-7.4598,-7.4046,-7.3368,-7.2916,-7.2665,-7.2489,-7.1937,-7.1636,-7.1435,-7.0455,-6.9727,-6.9049,-6.7467,-6.644,-6.604,0.0,0.0,0.0,0.0,0.0,0.0,0.0,0.0,0.0,0.0,0.0,0.0,0.0,0.0,0.0,0.0,0.0,0.0,0.0,0.0,-4.6397,-4.8008,-4.9565,-5.2051,-5.5666,-5.3562,-5.2889,-5.3784,-5.4102,-5.3801,-5.262,-4.9922,-4.7148,-4.416,-4.2031,-4.0137,-3.8574,-3.8574,-3.8574,-3.8535,-3.8125,0.0,0.0,0.0,0.0,0.0,0.0,0.0,0.0,0.0,0.0,0.0,0.0,0.0,-4.0255,-4.1814,-4.3491,-4.5563,-4.9532,-4.8661,-4.6824,-4.7701,-4.4201,0.0,-4.4043,-4.3379,0.0,-4.3808,0.0,0.0,0.0,0.0,0.0,0.0,0.0,0.0,0.0,0.0,0.0,0.0,0.0,0.0,0.0,0.0,0.0,0.0,0.0,0.0,0.0,0.0,0.0,-7.8666,-7.8038,-7.7461,-7.6933,-7.6356,-7.608,-7.6105,-7.608,-7.5502,-7.4473,-7.4423,-7.382,-7.2791,-7.274,-7.2439,-7.1937,-7.1359,-7.0832,-7.033,-6.9727,-6.9175,-6.8522,-6.6791,-6.6093,-6.6192,0.0,0.0,0.0,0.0,0.0,0.0,0.0,0.0,0.0,0.0,0.0,0.0,0.0,0.0,0.0,0.0,0.0,0.0,0.0,0.0,-4.6365,-4.8385,-4.9389,-5.1574,-5.5114,-5.4823,-5.6045,-5.8724,-5.7934,-5.6168,-5.3047,-4.9648,-4.6465,-4.3476,-4.1035,-3.959,-3.8926,-3.8398,-3.832,-3.8535,-3.8105,-3.8027,0.0,0.0,0.0,0.0,0.0,0.0,0.0,0.0,-3.9434,-3.9766,-3.9043,-3.9316,-4.0235,-4.1607,-4.2449,-4.3927,-4.8123,-4.7151,-4.547,-4.7565,-4.5221,0.0,0.0,-4.5677,-4.6568,-4.715,-4.7402,0.0,0.0,0.0,0.0,0.0,0.0,0.0,0.0,0.0,0.0,0.0,0.0,0.0,0.0,0.0,0.0,0.0,0.0,0.0,0.0,0.0,0.0,-7.854,-7.7662,-7.7084,-7.6883,-7.6331,-7.6055,-7.6055,-7.5703,-7.5151,-7.4397,-7.4071,-7.3468,-7.2715,-7.2364,-7.2087,-7.1836,-7.0932,-7.0455,-7.0204,-6.9652,-6.91,-6.8522,-6.7492,-6.6691,-6.6043,0.0,0.0,0.0,0.0,0.0,0.0,0.0,0.0,0.0,0.0,0.0,0.0,0.0,0.0,0.0,0.0,0.0,0.0,-3.927,-4.2563,-4.513,-4.6612,-4.8233,-5.0619,-5.3984,-5.4949,-5.7102,-6.0659,-5.9804,-5.7036,-5.2871,-4.9394,-4.6387,-4.3769,-4.0762,-3.9726,-4.0137,-3.8867,-3.8418,-3.8535,-3.8105,-3.7851,0.0,0.0,0.0,0.0,0.0,0.0,0.0,0.0,-3.9795,-4.0428,-3.9267,-3.9623,-4.076,-4.171,-4.1934,-4.2501,-4.5714,-4.4701,-4.3215,-4.5574,0.0,0.0,-4.6464,-4.8149,-4.9527,-5.0751,-5.0605,-5.0644,-5.1641,0.0,0.0,0.0,0.0,0.0,0.0,0.0,0.0,0.0,0.0,0.0,0.0,0.0,0.0,0.0,0.0,0.0,0.0,0.0,0.0,0.0,-7.726,-7.6783,-7.6632,-7.623,-7.6055,-7.6055,-7.5327,-7.4774,-7.4397,-7.3845,-7.3268,-7.269,-7.2138,-7.1811,-7.1585,-7.0656,-7.0154,-6.9953,-6.9602,-6.91,-6.8572,-6.8045,-6.7417,-6.6591,0.0,0.0,0.0,0.0,0.0,0.0,0.0,0.0,0.0,0.0,0.0,0.0,0.0,0.0,0.0,0.0,0.0,0.0,-3.7318,-4.0296,-4.2161,-4.2305,-4.5847,-4.9464,-5.2666,-5.3428,-5.5267,-5.8204,-5.8402,-5.6269,-5.1973,-4.9394,-4.7266,-4.5469,-4.1621,-4.084,-4.2266,-4.0098,-3.8965,-3.8535,-3.8105,-3.7676,-3.7305,0.0,0.0,0.0,0.0,0.0,0.0,0.0,-4.1417,-4.2078,-3.9895,-4.0484,-4.1895,-4.2039,-4.1725,-4.1559,-4.2638,-4.159,-4.0339,0.0,0.0,0.0,-5.0072,-5.0488,-5.1172,-5.4648,-5.3633,-5.2266,-5.2676,0.0,0.0,0.0,0.0,0.0,0.0,0.0,0.0,0.0,0.0,0.0,0.0,0.0,0.0,0.0,0.0,0.0,0.0,0.0,0.0,0.0,-7.6883,-7.6607,-7.6055,-7.6055,-7.6055,-7.603,-7.495,-7.4423,-7.4397,-7.3845,-7.3268,-7.269,-7.2138,-7.1585,-7.1033,-7.048,-6.9928,-6.9426,-6.9426,-6.91,-6.8572,-6.8322,-6.807,-6.7714,0.0,0.0,0.0,0.0,0.0,0.0,0.0,0.0,0.0,0.0,0.0,0.0,0.0,0.0,0.0,0.0,0.0,0.0,-3.8429,-4.1472,-4.3008,-4.2161,-4.4347,-4.5462,-4.5186,-4.7509,-5.0735,-5.4876,-5.6214,-5.3862,-4.7988,-4.8265,-4.6293,-4.248,-4.1933,-4.1289,-4.0566,-3.9297,-3.8691,-3.8535,-3.8105,-3.7676,-3.7566,0.0,0.0,0.0,0.0,0.0,0.0,0.0,0.0,0.0,-4.0938,-4.173,-4.2704,-4.0767,-4.0404,-4.0821,-4.1545,-4.0613,0.0,-4.3518,0.0,0.0,0.0,-5.4204,0.0,0.0,-5.7246,-5.6191,-5.6308,0.0,0.0,0.0,0.0,0.0,0.0,0.0,0.0,0.0,0.0,0.0,0.0,0.0,0.0,0.0,0.0,0.0,0.0,0.0,0.0,0.0,-7.6507,-7.623,-7.6055,-7.6055,-7.5854,-7.5477,-7.4749,-7.4423,-7.4372,-7.3418,-7.2891,-7.269,-7.1736,-7.1234,-7.1008,-7.0079,-6.9351,-6.8874,-6.8874,-6.8522,-6.802,-6.7592,-6.7668,-6.7718,0.0,0.0,0.0,0.0,0.0,0.0,0.0,0.0,0.0,0.0,-3.5547,-3.5332,0.0,0.0,0.0,0.0,0.0,0.0,0.0,-4.1301,-4.3004,-4.1828,-4.297,-4.3555,-4.3487,-4.6507,-4.8965,-5.0862,-5.3197,-5.1372,-4.5293,-4.8392,-4.7569,-4.3769,-4.4961,-4.4453,-4.2617,-4.1582,-4.0234,-3.8828,-3.8926,-3.8695,-3.8546,0.0,0.0,0.0,0.0,0.0,0.0,0.0,0.0,0.0,-4.2289,-4.2959,-4.3773,-4.1749,-4.0391,-3.9697,-4.0834,0.0,0.0,-4.3553,-4.5828,-4.8788,-5.4911,0.0,0.0,0.0,0.0,-5.8652,0.0,0.0,0.0,0.0,0.0,0.0,0.0,0.0,0.0,0.0,0.0,0.0,0.0,0.0,0.0,0.0,0.0,0.0,0.0,0.0,0.0,-7.6557,-7.623,-7.5954,-7.5728,-7.5728,-7.5452,-7.49,-7.4347,-7.4096,-7.4071,-7.3142,-7.274,-7.2665,-7.156,-7.0832,-7.0355,-6.9476,-6.8924,-6.8597,-6.8396,-6.7945,-6.7467,-6.7217,-6.7467,-6.7743,0.0,0.0,-3.4023,-3.4023,0.0,0.0,0.0,0.0,0.0,0.0,-3.5332,-3.5117,0.0,0.0,0.0,0.0,0.0,0.0,0.0,0.0,-4.2535,-4.1542,-4.173,-4.3065,-4.5467,-4.8078,-4.8498,-4.6706,-4.9828,-4.8617,-4.3746,-4.9199,-5.0132,-4.748,-4.9219,-4.8769,-4.6601,-4.5156,-4.2641,-3.9554,-4.0078,-4.0298,-4.0267,-4.1109,0.0,0.0,0.0,0.0,0.0,0.0,0.0,0.0,-4.3671,-4.4038,-4.4865,-4.412,-4.1281,-3.866,-4.052,0.0,0.0,-4.3125,-4.6817,0.0,0.0,0.0,0.0,0.0,0.0,0.0,0.0,0.0,0.0,0.0,0.0,0.0,0.0,0.0,0.0,0.0,0.0,0.0,0.0,0.0,0.0,0.0,0.0,0.0,0.0,0.0,-7.6582,-7.608,-7.6004,-7.5753,-7.5327,-7.5226,-7.49,-7.4397,-7.387,-7.3569,-7.3494,-7.2916,-7.259,-7.2439,-7.1384,-7.038,-6.9401,-6.8848,-6.8622,-6.8572,-6.802,-6.7467,-6.699,-6.7015,-6.7315,-6.7866,0.0,0.0,-3.3555,-3.3555,0.0,0.0,0.0,0.0,0.0,0.0,0.0,0.0,0.0,0.0,0.0,0.0,0.0,0.0,0.0,0.0,-4.2708,-4.1947,-4.0985,-4.1608,-4.4403,-4.3262,-4.3565,-4.5755,-4.8093,-4.6941,-4.2837,-4.931,-5.0074,-4.6152,-4.7871,-4.7266,-4.4766,-4.2129,-4.1183,-4.1503,-3.9988,-4.0761,-4.268,-4.2628,-4.2759,0.0,0.0,0.0,0.0,0.0,0.0,0.0,-4.4175,-4.4654,-4.5038,-4.3241,-4.1878,-4.1163,-4.1937,-4.1171,0.0,0.0,-5.3488,-5.8685,-5.8743,-6.1787,0.0,0.0,0.0,0.0,0.0,0.0,0.0,0.0,0.0,0.0,0.0,0.0,0.0,0.0,0.0,0.0,0.0,0.0,0.0,0.0,0.0,0.0,-7.608,-7.618,-7.618,-7.6055,-7.5628,-7.5578,-7.5879,-7.5025,-7.4523,0.0,-7.387,-7.3343,-7.2891,-7.2339,-7.161,-7.0757,-7.0079,-6.9652,-6.9401,-6.8848,-6.8622,-6.8572,-6.802,-6.7467,-6.6965,-6.6417,-6.6367,-6.6691,0.0,0.0,0.0,0.0,0.0,0.0,0.0,0.0,0.0,0.0,0.0,0.0,0.0,0.0,0.0,0.0,0.0,0.0,0.0,0.0,-4.3251,-4.2851,-4.3171,-4.3709,-4.4262,-4.306,-4.3479,-4.5453,-4.5675,-4.4516,-4.221,-4.854,-4.9681,-4.668,-4.8594,-4.791,-4.5176,-4.2969,-4.1793,-4.1299,-4.0492,-4.1085,-4.2522,-4.341,-4.3339,-4.3116,-4.4135,0.0,0.0,0.0,0.0,0.0,0.0,0.0,-4.5779,-4.5181,-4.3848,-4.2881,-4.4322,0.0,0.0,-5.0757,0.0,-6.007,-5.9921,-6.105,-6.2046,0.0,0.0,0.0,0.0,0.0,0.0,0.0,0.0,0.0,0.0,0.0,0.0,0.0,0.0,0.0,0.0,0.0,0.0,0.0,0.0,-7.5929,-7.5678,-7.5653,-7.5653,-7.5653,-7.5126,-7.4975,-7.5276,-7.4448,-7.3745,-7.3217,-7.3192,-7.274,-7.1937,-7.1912,-7.1158,-6.9878,-6.9853,-6.9376,-6.8648,-6.8346,-6.807,-6.7769,-6.7216,-6.6815,-6.6538,-6.624,-6.6068,-6.6217,0.0,0.0,0.0,0.0,0.0,0.0,0.0,0.0,0.0,0.0,0.0,0.0,0.0,0.0,0.0,0.0,0.0,0.0,0.0,0.0,0.0,-4.3517,-4.5477,-4.5993,-4.4658,-4.4587,-4.4836,-4.5623,-4.3748,-4.2707,-4.2604,-4.7831,-4.928,-4.7656,-4.9297,-4.8594,-4.6074,-4.4258,-4.2406,-4.0769,-4.0837,-4.1171,-4.1686,-4.3175,-4.3306,-4.2697,-4.3844,-4.4323,-4.4476,-4.4586,0.0,0.0,0.0,0.0,-4.6351,-4.7355,-4.5699,-4.4128,-4.6728,0.0,-4.8572,-5.388,-5.6992,0.0,-5.998,-5.9941,-5.9922,0.0,0.0,0.0,0.0,0.0,0.0,0.0,0.0,0.0,0.0,0.0,0.0,0.0,0.0,0.0,0.0,0.0,0.0,0.0,0.0,-7.5829,-7.5276,-7.5251,-7.5201,-7.5101,-7.4573,-7.4322,-7.4423,-7.3669,-7.2891,-7.2062,-7.2313,-7.1912,-7.0958,-7.141,-7.0832,-6.9451,-6.9727,-6.9125,-6.7919,-6.7744,-6.7442,-6.7066,-6.6488,-6.6262,-6.6237,-6.6137,-6.614,-6.6068,0.0,0.0,0.0,0.0,0.0,0.0,0.0,0.0,0.0,0.0,-3.375,-3.3496,0.0,0.0,0.0,0.0,0.0,0.0,0.0,0.0,0.0,-4.2602,-4.3844,-4.4706,-4.49,-4.4475,-4.4856,-4.62,-4.3941,-4.3779,0.0,-4.8274,-4.8819,-4.7558,-4.7109,-4.6484,-4.5508,-4.1562,-4.0712,-4.1814,-4.0156,-4.0987,-4.2923,-4.1476,-4.119,-4.1197,-3.9931,-4.1407,-4.3593,-4.1683,-4.2946,0.0,0.0,0.0,-4.5723,-4.6351,-4.5404,-4.4816,-4.7071,0.0,-5.3521,0.0,-5.7207,-5.9121,0.0,0.0,-5.9414,0.0,0.0,0.0,0.0,0.0,0.0,0.0,0.0,0.0,0.0,0.0,0.0,0.0,0.0,0.0,0.0,0.0,0.0,0.0,-7.6055,-7.5829,-7.5276,-7.5251,-7.5025,-7.4548,-7.3996,-7.392,-7.4423,-7.2891,-7.2288,-7.2615,-7.1736,-7.0983,-7.038,-7.0455,-7.0104,-6.9401,-6.8522,-6.8271,-6.8447,-6.7467,-6.7317,-6.7643,-6.7066,-6.6865,-6.6815,-6.6287,-6.614,-6.6043,0.0,0.0,0.0,0.0,0.0,0.0,0.0,0.0,0.0,0.0,0.0,-3.3418,0.0,0.0,0.0,-3.3418,-3.5105,-3.7138,-3.9466,-4.1496,0.0,-4.4132,-4.4059,-4.4401,-4.5257,-4.4426,-4.4269,-4.4895,-4.4215,0.0,0.0,-4.832,-4.8651,-4.7851,-4.5781,-4.4883,-4.4707,-4.084,-3.9929,-4.0868,-3.9593,-3.9951,-4.0942,-4.0703,-4.052,-4.0493,-4.0214,-4.1052,-4.2155,-4.1167,-4.2506,-4.4524,-4.4524,0.0,0.0,0.0,-4.619,-4.6737,-5.0622,-5.3325,-5.5676,0.0,-5.9112,-6.0014,-5.9744,0.0,0.0,0.0,0.0,0.0,0.0,0.0,0.0,0.0,0.0,0.0,0.0,0.0,0.0,0.0,0.0,0.0,0.0,0.0,0.0,0.0,-7.5603,-7.5226,-7.4372,-7.4322,-7.4197,-7.3971,-7.3418,-7.3217,-7.3468,-7.2439,-7.1711,-7.1334,-7.0531,-6.9878,-6.9351,-6.9351,-6.9049,-6.8522,-6.8346,-6.7869,-6.7191,-6.7041,-6.6915,-6.684,-6.6589,-6.6488,-6.6463,-6.6212,-6.604,-6.614,0.0,0.0,0.0,0.0,0.0,0.0,0.0,0.0,0.0,0.0,0.0,0.0,0.0,0.0,0.0,0.0,-3.4831,-3.7224,-4.0875,-4.2001,0.0,0.0,0.0,-4.4141,-4.4844,-4.4166,-4.374,-4.3589,0.0,0.0,-4.8271,-4.8667,-4.9532,0.0,-4.6678,-4.4863,-4.4668,-4.1289,-4.0195,-4.0625,-3.9609,-3.9082,-3.8975,-3.9779,-3.9754,-3.9351,-3.9987,-4.0432,-4.0691,-4.0581,-4.1693,-4.3083,-4.3606,-4.462,0.0,0.0,0.0,-4.8004,0.0,0.0,-5.5955,-5.866,-5.9858,-6.0274,0.0,0.0,0.0,0.0,0.0,0.0,0.0,0.0,0.0,0.0,0.0,0.0,0.0,0.0,0.0,0.0,0.0,0.0,0.0,0.0,0.0,0.0,-7.5251,-7.4749,-7.3644,-7.3594,-7.3519,-7.3368,-7.2816,-7.2514,-7.2514,-7.1686,-7.0807,-6.9828,-6.93,-6.8798,-6.8422,-6.8422,-6.812,-6.7618,-6.802,-6.7493,-6.6363,-6.6639,-6.6513,-6.6112,-6.6112,-6.6112,-6.6112,-6.6112,-6.6112,-6.6112,0.0,0.0,0.0,0.0,0.0,0.0,0.0,0.0,0.0,0.0,0.0,0.0,0.0,-3.3418,-3.3418,-3.3418,-3.3437,-3.4901,-3.8171,-4.0245,-4.1861,-4.3112,0.0,0.0,-4.3112,-4.3564,-4.3539,-4.3011,0.0,0.0,-5.2975,-4.9838,-5.2019,-5.8011,-5.1116,-4.7305,-4.5996,-4.2949,-4.2148,-4.2695,-4.0195,-3.8711,-3.8066,-3.8975,-3.8504,-3.7426,-3.7527,-3.83,-3.9298,-3.8877,-3.9888,-4.1565,-4.3208,-4.3731,-4.4103,0.0,0.0,0.0,-4.7987,-5.0857,0.0,-5.6509,-5.7892,-5.9263,0.0,0.0,0.0,0.0,0.0,0.0,0.0,0.0,0.0,0.0,0.0,0.0,0.0,0.0,0.0,0.0,0.0,0.0,0.0,0.0,0.0,0.0,-7.5251,-7.4749,-7.3644,-7.3594,-7.3343,-7.2791,-7.2238,-7.1937,-7.1937,-7.038,-6.9275,-6.8698,-6.8145,-6.7869,-6.7844,-6.7844,-6.7543,-6.7015,-6.7041,-6.7015,-6.689,-6.6363,-6.6137,-6.6112,-6.6112,-6.6112,-6.6112,-6.6112,-6.6112,-6.6112,0.0,0.0,0.0,0.0,0.0,0.0,0.0,0.0,0.0,0.0,0.0,0.0,0.0,-3.3418,-3.3418,-3.3418,-3.4383,-3.5583,-3.6988,-3.9396,-4.1014,-4.1444,0.0,0.0,0.0,-4.3162,0.0,0.0,0.0,-4.6352,-5.1021,-5.1262,-5.2402,-5.4133,-4.9791,-4.7402,-4.6445,-4.2324,-4.0586,-4.0488,-3.9277,-3.8965,-3.9101,-3.8281,-3.8203,0.0,0.0,0.0,0.0,-3.7726,-3.875,-4.008,-4.0585,-4.2404,-4.4505,-4.6314,-4.7481,-4.866,-5.0555,-5.2367,0.0,-5.6415,-5.8589,-5.9772,-5.8116,0.0,0.0,0.0,0.0,0.0,0.0,0.0,0.0,0.0,0.0,0.0,0.0,0.0,0.0,0.0,0.0,0.0,0.0,0.0,0.0,0.0,0.0,-7.3845,-7.3092,-7.3042,-7.2941,-7.274,-7.2188,-7.1384,-7.033,-6.9401,-6.8472,-6.7568,-6.7719,-6.7417,-6.6739,-6.7091,-6.6764,-6.5886,-6.5886,-6.5886,-6.5911,-6.6061,-6.5911,-6.5609,-6.5986,-6.6112,-6.6112,-6.6112,-6.6065,-6.6042,0.0,0.0,0.0,0.0,0.0,-3.375,0.0,0.0,0.0,0.0,0.0,0.0,0.0,0.0,-3.3848,-3.3848,-3.5167,-3.6431,-3.7245,-3.9327,-4.0822,-4.1419,-4.2375,-4.2986,-4.2986,-4.3162,-4.3338,0.0,0.0,0.0,0.0,-5.1327,-5.231,-5.3051,-4.861,-4.7207,-4.7773,0.0,0.0,-4.125,-3.9805,-3.9492,-3.9844,0.0,0.0,0.0,0.0,0.0,0.0,0.0,-3.7588,-3.8294,-3.8958,-4.1636,-4.4816,-4.6811,-4.7782,-4.8711,-5.0921,-5.2201,-5.3686,0.0,-5.8308,-5.8658,-5.8897,0.0,0.0,0.0,0.0,0.0,0.0,0.0,0.0,0.0,0.0,0.0,0.0,0.0,0.0,0.0,0.0,0.0,0.0,0.0,0.0,0.0,0.0,0.0,-7.2765,-7.274,-7.2565,-7.2188,-7.1636,-7.0656,-6.9175,-6.8447,-6.7693,-6.6965,-6.7141,-6.684,-6.6112,-6.6312,-6.6011,-6.5283,-6.5082,-6.5007,-6.5032,-6.5409,-6.5459,-6.5333,-6.5685,-6.5936,-6.6137,-6.6338,-6.6315,-6.6093,0.0,-3.3125,-3.3398,-3.3418,-3.3418,-3.3418,-3.3418,0.0,0.0,0.0,0.0,0.0,0.0,0.0,0.0,-3.4746,-3.586,-3.7061,-3.8598,-3.9823,-4.1215,-4.2762,-4.2899,-4.3011,-4.3011,-4.3539,-4.3564,0.0,0.0,0.0,0.0,-4.9893,-5.1507,-5.5666,-4.8482,-4.6875,-4.9902,0.0,-4.7031,-4.5273,0.0,-4.0293,-4.0234,0.0,0.0,0.0,-4.1367,-4.0469,0.0,-3.7285,0.0,-3.6484,-3.8553,-4.1572,-4.4809,-4.7133,-4.7457,-4.7307,0.0,0.0,0.0,-5.7876,0.0,0.0,-6.3154,0.0,0.0,0.0,0.0,0.0,0.0,0.0,0.0,0.0,0.0,0.0,0.0,0.0,0.0,0.0,0.0,0.0,0.0,0.0,0.0,0.0,-7.3569,-7.3318,-7.2765,-7.2715,-7.2188,-7.1058,-7.0506,-6.9702,-6.8572,-6.7518,-6.6965,-6.694,-6.6388,-6.6112,-6.6086,-6.5559,-6.5308,-6.5258,-6.4705,-6.4454,-6.4454,-6.4479,-6.4806,-6.5258,-6.5308,-6.5634,-6.6187,-6.6764,-6.6641,-6.6217,-3.2734,-3.2891,-3.3066,-3.3379,-3.3418,-3.3418,-3.3418,0.0,0.0,0.0,0.0,0.0,0.0,0.0,-3.5644,-3.5644,-3.5653,-3.5641,-3.5468,-3.6767,-3.7789,-3.8277,-4.0927,-4.2348,-4.2348,-4.3714,-4.4317,0.0,0.0,0.0,0.0,-4.8243,-4.8919,-5.0158,-4.8709,-4.7095,-4.5332,-4.2773,0.0,-4.3105,-4.0586,-4.1016,0.0,0.0,0.0,0.0,0.0,-4.1816,-4.1777,0.0,-4.0605,-3.983,0.0,-4.1316,-4.2764,-4.5657,-4.6689,-4.7191,-4.8878,0.0,0.0,0.0,0.0,0.0,-5.4798,-5.6441,-5.7571,0.0,0.0,0.0,0.0,0.0,0.0,0.0,0.0,0.0,0.0,0.0,0.0,0.0,0.0,0.0,0.0,0.0,0.0,0.0,-7.3217,-7.2891,-7.274,-7.2339,-7.1435,-6.9953,-6.9752,-6.8949,-6.7442,-6.7141,-6.6764,-6.6338,-6.6187,-6.6112,-6.6112,-6.5961,-6.566,-6.5258,-6.4705,-6.4254,-6.3977,-6.4731,-6.4931,-6.4781,-6.5584,-6.594,-6.6142,-6.6292,-6.6266,-6.6084,-3.248,-3.2676,-3.293,-3.334,-3.3574,-3.3691,-3.3691,0.0,0.0,0.0,0.0,0.0,0.0,0.0,-3.7598,-3.6875,-3.6269,-3.5874,-3.5932,-3.6408,-3.715,-3.7971,-3.9904,-4.1387,-4.235,-4.3359,-4.4116,-4.4618,0.0,0.0,0.0,0.0,-4.6912,-4.661,-4.6898,-4.5502,-4.3154,0.0,0.0,0.0,-4.1308,0.0,0.0,-4.3555,-4.4121,0.0,0.0,0.0,-4.4336,-4.3808,-4.2656,0.0,0.0,0.0,-4.1869,-4.4687,-4.5383,-4.5739,-4.7856,-4.8477,-4.9027,-5.1565,0.0,0.0,-5.357,-5.5065,-5.6263,0.0,0.0,0.0,0.0,0.0,0.0,0.0,0.0,0.0,0.0,0.0,0.0,0.0,0.0,0.0,0.0,-7.3228,-7.3745,-7.2941,-7.2565,-7.2288,-7.2062,-7.1736,-7.0907,-6.9501,-6.8999,-6.8196,-6.699,-6.6739,-6.6438,-6.6112,-6.6112,-6.6112,-6.6112,-6.5886,-6.5459,-6.4931,-6.4379,-6.3827,-6.3425,-6.4505,-6.4756,-6.458,-6.5685,-6.614,-6.6143,-6.6841,-6.6611,-6.6226,0.0,-3.2402,-3.2832,-3.3398,-3.3848,-3.4199,0.0,0.0,0.0,0.0,0.0,0.0,0.0,0.0,0.0,-3.8418,-3.7422,-3.7311,-3.8191,-3.7514,-3.7868,-3.9664,-3.9589,-4.0468,-4.2296,-4.2891,-4.3482,-4.4184,0.0,0.0,0.0,0.0,0.0,-4.4375,-4.3653,-4.2938,-4.2188,0.0,0.0,-4.125,-4.2949,-4.3867,0.0,0.0,-4.7656,0.0,-4.8008,-4.7715,-4.666,-4.5293,-4.3672,0.0,0.0,0.0,0.0,0.0,-4.3907,-4.3962,-4.6217,-4.7027,-4.8281,-5.2989,-5.2026,0.0,-5.5968,-5.5239,-5.4845,-5.9847,0.0,0.0,0.0,0.0,0.0,0.0,0.0,0.0,0.0,0.0,0.0,0.0,0.0,0.0,-7.3402,-7.3494,-7.3016,-7.1912,-7.1811,-7.156,-7.0932,-7.0907,-7.038,-6.92,-6.8221,-6.7442,-6.689,-6.6363,-6.6112,-6.6112,-6.6112,-6.6112,-6.6086,-6.5609,-6.5107,-6.4605,-6.4028,-6.3475,-6.3099,-6.4053,-6.4454,-6.458,-6.5685,-6.6165,-6.6467,-6.7591,-6.7384,-6.6675,-3.1582,-3.1719,-3.2226,-3.3691,-3.4297,-3.4941,0.0,0.0,0.0,0.0,0.0,0.0,0.0,0.0,-4.0918,-4.0566,-3.9101,-3.7857,-3.7133,-3.6915,-3.6972,-3.7325,-3.8885,-3.9997,-4.0485,-4.2867,-4.3318,-4.1754,0.0,0.0,0.0,0.0,0.0,-4.3373,-4.0423,-3.9596,-4.0612,0.0,0.0,-4.0801,-4.2519,0.0,-4.7402,-4.7988,-4.9141,-5.0332,-4.9551,-4.9766,-5.0137,0.0,-4.6328,-4.4531,0.0,0.0,0.0,-4.2084,0.0,0.0,0.0,0.0,0.0,0.0,0.0,0.0,-5.1825,-5.2151,-5.2625,0.0,0.0,0.0,0.0,0.0,0.0,0.0,0.0,0.0,0.0,0.0,0.0,0.0,0.0,0.0,-7.2991,-7.2891,-7.2439,-7.1334,-7.1259,-7.0807,-6.9828,-6.9752,-6.9049,-6.7518,-6.7241,-6.6865,-6.6287,-6.6162,-6.6112,-6.6112,-6.6112,-6.6112,-6.6112,-6.5986,-6.5886,-6.5735,-6.4731,-6.4254,-6.4178,-6.4379,-6.4454,-6.458,-6.5685,-6.6711,-6.7366,-6.679,-6.7388,-6.8773,-3.1836,-3.2187,-3.2949,-3.4473,0.0,0.0,0.0,0.0,0.0,0.0,0.0,0.0,0.0,0.0,-4.2012,-4.0937,-3.9648,-3.8535,-3.7676,-3.7617,-3.7519,-3.7305,-3.8307,-3.947,-4.0515,-4.2281,-4.2678,-4.1745,0.0,0.0,0.0,0.0,0.0,0.0,-4.0604,-3.9794,-3.9172,0.0,-3.9805,-3.9863,-4.3535,0.0,-4.9004,-5.0293,-5.1582,-5.2617,-5.1758,-5.1582,-5.1269,-4.8027,-4.6933,0.0,0.0,-4.2109,-4.2092,0.0,-4.2405,-4.3252,0.0,0.0,0.0,-5.1444,0.0,0.0,0.0,-5.1272,-5.1295,-5.1766,-5.2429,0.0,0.0,0.0,0.0,0.0,0.0,0.0,0.0,0.0,0.0,0.0,0.0,0.0,-7.1987,-7.1912,-7.156,-7.0732,-7.043,-6.9903,-6.9074,-6.8773,-6.812,-6.7015,-6.6689,-6.6413,-6.6112,-6.5835,-6.571,-6.571,-6.5434,-6.5434,-6.571,-6.571,-6.571,-6.566,-6.4831,-6.4454,-6.4454,-6.4454,-6.4605,-6.4931,-6.6112,-6.684,-6.7092,-6.7466,-6.8422,-6.9332,-3.2266,-3.2715,-3.3613,-3.5019,0.0,0.0,0.0,0.0,0.0,0.0,0.0,0.0,0.0,0.0,0.0,-4.1992,-4.0234,-3.9297,0.0,0.0,0.0,-3.7949,-3.8086,-3.8903,-4.0389,-4.1136,-4.1529,-4.1412,0.0,0.0,0.0,0.0,0.0,0.0,-4.1034,-4.049,0.0,0.0,0.0,-4.0,0.0,-4.7578,-4.8867,-5.1855,-5.3164,-5.3418,-5.3476,-5.293,-5.1641,-4.8008,-4.7539,-4.7793,-4.3984,-4.332,0.0,0.0,0.0,0.0,0.0,0.0,0.0,0.0,0.0,-5.1607,0.0,0.0,0.0,-5.18,0.0,0.0,0.0,0.0,0.0,0.0,0.0,0.0,0.0,0.0,0.0,0.0,0.0,0.0,-7.0656,-7.0204,-6.9953,-6.9953,-6.9024,-6.8447,-6.8321,-6.7869,-6.7392,-6.6815,-6.6363,-6.6061,-6.5961,-6.5609,-6.5333,-6.5132,-6.4781,-6.4856,-6.5283,-6.5283,-6.5358,-6.5409,-6.4856,-6.463,-6.463,-6.463,-6.4831,-6.5113,-6.6438,-6.6541,-6.6366,-6.8549,-6.9359,-6.9283,-3.2324,-3.2246,-3.2832,-3.4492,0.0,0.0,-3.8809,-3.9805,0.0,0.0,0.0,0.0,0.0,0.0,0.0,0.0,0.0,0.0,-4.2949,0.0,-3.8379,-3.7949,-3.8652,-3.87,-3.7744,-3.9688,-3.9785,-3.7827,0.0,0.0,0.0,0.0,0.0,0.0,-3.8647,0.0,0.0,0.0,-4.0386,0.0,-4.5898,-4.6152,0.0,-4.9941,-5.1445,-5.1426,-5.3281,-5.3379,-5.2441,0.0,-5.0156,-4.9023,0.0,-4.5664,-4.4707,-4.3808,0.0,0.0,0.0,0.0,0.0,0.0,-5.0722,0.0,0.0,0.0,-5.2402,-5.1548,0.0,0.0,0.0,0.0,0.0,0.0,0.0,0.0,-5.9872,0.0,-6.2686,-6.2778,0.0,0.0,0.0,-6.7116,-6.6739,-6.8673,-6.6463,-6.566,-6.7091,-6.7091,-6.6815,-6.6237,-6.6137,-6.5886,-6.5383,-6.581,-6.5534,-6.4555,-6.4982,-6.5233,-6.5283,-6.5283,-6.5559,-6.5986,-6.5434,-6.5208,-6.5208,-6.5208,-6.5183,-6.5063,-6.5936,-6.6212,-6.6413,-6.8649,-6.9407,-6.9101,-3.2559,-3.293,-3.373,-3.5215,0.0,-3.7344,-3.9297,-4.1621,-4.3457,0.0,0.0,0.0,0.0,0.0,0.0,0.0,0.0,-4.2422,0.0,0.0,-4.0293,-3.9121,0.0,0.0,-3.8828,-4.0126,-4.0003,-3.8047,-3.9771,0.0,0.0,0.0,0.0,0.0,-3.9007,0.0,-3.8608,0.0,-3.9922,0.0,0.0,0.0,0.0,-5.1035,-5.3516,-5.3828,-5.4258,-5.4004,-5.3125,0.0,-5.0098,0.0,0.0,0.0,0.0,0.0,0.0,0.0,0.0,0.0,0.0,0.0,0.0,0.0,-5.0461,0.0,-5.2226,0.0,0.0,0.0,0.0,0.0,0.0,0.0,-5.529,0.0,0.0,0.0,-6.0014,0.0,0.0,0.0,0.0,0.0,0.0,0.0,-6.4731,-6.4254,-6.5911,-6.5685,-6.5559,-6.5634,-6.5333,-6.5208,-6.5283,-6.4906,-6.463,-6.4454,-6.4053,-6.4203,-6.4806,-6.4806,-6.5283,-6.6086,-6.5534,-6.5484,-6.5735,-6.5434,-6.5459,-6.5735,-6.6011,-6.6065,-6.6142,-6.7141,-6.8344,-6.9122,-3.3086,-3.3555,-3.4277,-3.5449,0.0,-3.7266,-3.9551,-4.2109,0.0,0.0,0.0,0.0,-4.9238,-4.8066,0.0,0.0,0.0,-4.5019,0.0,0.0,-4.1738,0.0,0.0,0.0,0.0,0.0,-3.9939,-3.8574,-3.9051,0.0,0.0,0.0,0.0,0.0,0.0,-3.9576,-3.8184,0.0,0.0,-4.2207,-4.4648,-4.6191,-4.7539,-5.207,-5.4687,-5.582,-5.498,-5.4473,-5.3769,-5.0898,-5.0566,0.0,-4.9062,0.0,0.0,0.0,0.0,0.0,-4.6166,0.0,0.0,0.0,0.0,0.0,0.0,0.0,0.0,0.0,0.0,0.0,0.0,0.0,0.0,0.0,0.0,-5.4461,0.0,-5.5239,0.0,0.0,0.0,0.0,0.0,0.0,0.0,0.0,0.0,-6.1994,-6.4279,-6.4002,-6.4178,-6.5032,-6.468,-6.458,-6.4856,-6.4379,-6.4178,-6.4254,-6.3751,-6.3827,-6.4454,-6.4454,-6.4982,-6.586,-6.5459,-6.5609,-6.6086,-6.5685,-6.576,-6.6112,-6.6112,-6.609,-6.6142,-6.6043,-6.719,-6.8192,-3.4023,-3.3711,-3.3711,0.0,0.0,0.0,0.0,0.0,0.0,0.0,0.0,0.0,0.0,0.0,0.0,0.0,0.0,-4.7988,-4.9219,0.0,-4.1914,0.0,0.0,-3.9922,0.0,0.0,0.0,-3.8574,0.0,0.0,0.0,0.0,-3.8144,-3.8555,-3.9582,-4.0508,-4.1719,-4.3008,-4.5019,-4.7422,-4.834,-5.0723,-5.3555,0.0,-5.3359,-5.582,-5.498,0.0,0.0,-5.3047,-5.2617,0.0,0.0,0.0,0.0,0.0,0.0,0.0,0.0,0.0,0.0,-4.3876,0.0,0.0,0.0,0.0,-4.991,0.0,0.0,0.0,0.0,0.0,-5.4938,-5.3909,-5.3733,0.0,0.0,0.0,0.0,0.0,0.0,0.0,0.0,-6.0437,-5.9784,0.0,-5.8579,0.0,-6.1893,-6.2094,-6.2822,-6.4429,-6.4479,-6.4228,-6.3751,-6.4731,-6.4731,-6.3726,-6.4731,-6.4957,-6.4454,-6.4454,-6.4781,-6.5308,-6.5308,-6.5609,-6.6112,-6.6086,-6.6086,-6.6112,-6.6112,-6.6112,-6.6162,-6.6142,-6.6093,-6.6118,-3.4375,-3.4375,0.0,0.0,0.0,0.0,0.0,-4.0781,0.0,0.0,0.0,0.0,0.0,0.0,-5.4844,0.0,0.0,-5.1973,-5.1269,-4.8516,0.0,0.0,0.0,-4.2891,0.0,0.0,0.0,0.0,0.0,0.0,0.0,0.0,-3.9976,-3.9023,0.0,-4.1746,0.0,0.0,0.0,0.0,0.0,-5.1973,-5.5215,0.0,0.0,-5.625,-5.541,-5.5098,0.0,-5.3926,-5.3183,-5.2676,-5.2539,-5.1426,-5.0058,-4.9473,-4.8984,0.0,0.0,0.0,-4.8027,-4.5449,0.0,0.0,0.0,0.0,0.0,0.0,0.0,0.0,0.0,0.0,-5.5566,-5.4461,-5.3959,-5.3331,0.0,0.0,0.0,0.0,0.0,0.0,0.0,0.0,0.0,0.0,-5.6118,0.0,-5.9131,-6.0311,-6.1316,-6.227,-6.2998,-6.3475,-6.3701,-6.3676,-6.3852,-6.4203,-6.3827,-6.4128,-6.4982,-6.4279,-6.463,-6.581,-6.5434,-6.5609,-6.6112,-6.6112,-6.6112,-6.6112,-6.6112,-6.6112,-6.6137,-6.6065,-6.6067,-6.6118,-3.5098,-3.5293,0.0,0.0,0.0,0.0,0.0,0.0,0.0,0.0,-5.0508,0.0,-5.7676,0.0,-5.8144,0.0,-5.7851,-5.5762,-5.2969,-5.1621,0.0,-4.7676,-4.666,0.0,0.0,0.0,0.0,0.0,0.0,-4.043,0.0,0.0,-4.0599,-3.9492,0.0,-4.2436,-4.2617,0.0,-4.6348,0.0,0.0,-5.2539,0.0,0.0,-5.5801,-5.6445,0.0,-5.5078,-5.498,-5.4277,-5.3652,-5.3203,-5.332,-5.2305,-5.0957,-5.0351,-4.9883,-4.9355,-4.8457,-4.873,0.0,-4.7031,-4.7454,0.0,-4.5514,0.0,0.0,0.0,0.0,0.0,0.0,0.0,-5.5311,-5.4598,-5.3843,-5.2779,0.0,-5.0368,0.0,0.0,0.0,0.0,0.0,0.0,0.0,0.0,0.0,0.0,0.0,-5.775,-5.9382,-6.0537,-6.1843,-6.2797,-6.3375,-6.3185,-6.351,-6.4212,-6.4128,-6.4304,-6.4712,-6.4304,-6.4555,-6.5263,-6.5132,-6.5434,-6.6112,-6.6112,-6.6112,-6.6112,-6.6112,-6.6112,-6.6112,-6.6112,-6.6513,-6.7341,-3.6152,-3.6465,0.0,0.0,-3.7773,0.0,0.0,0.0,-4.6504,0.0,-5.2109,-5.5742,-5.957,-6.0039,-6.0898,-6.293,-6.1953,0.0,-5.4765,-5.4765,0.0,0.0,-4.8418,-4.8125,-4.7226,0.0,0.0,0.0,0.0,0.0,-4.0644,-4.0156,-3.9922,-4.0,-4.166,0.0,-4.3926,-4.6894,-4.8965,-5.0351,-5.1582,-5.2617,-5.3437,-5.3808,-5.5,-5.6308,-5.5117,-5.4687,-5.4609,-5.418,-5.4023,-5.3945,-5.3496,-5.3066,-5.2422,-5.0762,-5.0547,-5.0508,-4.8848,-4.8691,-4.8906,-4.8457,0.0,0.0,0.0,0.0,-4.861,0.0,0.0,0.0,0.0,0.0,0.0,-5.4193,-5.3423,-5.2101,-4.9967,0.0,-5.0067,0.0,0.0,0.0,0.0,0.0,0.0,0.0,0.0,0.0,0.0,-5.4687,-5.7223,-5.9307,-6.109,-6.2295,-6.2873,-6.356,-6.3869,-6.3944,-6.5288,-6.5238,-6.3969,-6.4672,-6.4479,-6.3919,-6.4404,-6.5082,-6.6112,-6.6112,-6.6112,-6.6112,-6.6112,-6.6112,-6.6137,-6.6162,-6.7461,-6.9403,-3.6934,-3.7832,-3.8457,0.0,-3.8359,-3.8828,0.0,0.0,0.0,0.0,-5.5117,-5.9121,-6.2344,-6.3262,-6.373,-6.3965,-6.3398,0.0,0.0,0.0,0.0,-5.6269,-5.4453,-5.2773,-5.125,-4.8711,0.0,-4.5605,0.0,0.0,-4.2383,-4.1016,-4.0371,-4.041,0.0,0.0,-4.4355,-4.6387,-4.875,-5.1172,-5.1816,-5.2793,0.0,0.0,-5.373,-5.4687,-5.4687,-5.4687,-5.4609,-5.418,-5.4023,-5.3945,-5.3496,-5.3281,-5.2988,-5.1914,-5.168,-5.166,-5.1211,-5.1172,-5.1074,-5.0332,-4.9824,-4.916,0.0,0.0,0.0,0.0,0.0,0.0,0.0,0.0,0.0,-5.2546,-5.1975,-5.1498,-5.0921,0.0,0.0,-5.1247,0.0,0.0,0.0,0.0,0.0,0.0,0.0,0.0,0.0,0.0,-5.7072,-5.765,-6.0487,-6.2471,-6.345,-6.3194,-6.3669,-6.4762,-6.4906,-6.5176,-6.5571,-6.3986,-6.3744,-6.4418,-6.4387,-6.5082,-6.6112,-6.6112,-6.6112,-6.6112,-6.6112,-6.609,-6.6167,-6.6068,-6.7467,-6.9333,-3.7611,0.0,0.0,-3.9512,0.0,0.0,-4.2383,0.0,0.0,-5.1582,-5.6055,0.0,-6.1777,-6.4082,-6.5469,-6.543,-6.5019,0.0,0.0,0.0,0.0,-5.9004,-5.7676,-5.6191,-5.4433,-5.1621,0.0,-4.748,0.0,0.0,-4.2754,-4.1426,-4.0703,-4.0566,0.0,-4.2832,-4.4258,-4.6719,-4.9082,-5.1172,-5.1426,-5.2187,0.0,-5.2617,-5.2969,-5.3769,-5.4023,-5.4101,-5.4101,-5.4043,-5.4023,-5.3984,-5.373,-5.3652,-5.3516,-5.2832,-5.2637,-5.2637,-5.2637,-5.25,-5.2324,-5.2246,-5.2031,-5.1523,-5.0195,-5.0801,-5.1328,0.0,0.0,0.0,0.0,0.0,0.0,-5.197,-5.1718,-5.1548,0.0,0.0,0.0,0.0,-5.1147,0.0,0.0,0.0,0.0,0.0,0.0,0.0,0.0,0.0,-5.5817,-5.6294,-5.9784,-6.2195,-6.3299,-6.3228,-6.3751,-6.4856,-6.4562,-6.51,-6.6061,-6.4823,-6.4019,-6.3782,-6.4806,-6.5578,-6.6112,-6.6112,-6.6112,-6.6112,-6.6112,-6.6067,-6.6192,-6.7116,-6.8321,-6.943,-3.7805,0.0,0.0,0.0,0.0,0.0,0.0,-4.7168,0.0,-5.248,0.0,-5.9746,-6.0566,-6.4023,-6.6445,-6.6816,0.0,-6.5176,-6.2578,-6.3398,-6.2637,-5.9512,-5.957,-5.8887,-5.7129,-5.4336,-5.1484,0.0,0.0,0.0,-4.25,-4.1601,-4.0976,-4.0664,0.0,0.0,0.0,-4.7266,-4.9375,-5.0488,-5.0723,-5.1308,-5.209,-5.209,-5.2578,-5.3281,-5.3398,-5.3457,-5.3496,-5.3887,-5.4023,-5.4023,-5.3965,-5.3984,-5.3945,-5.3496,-5.3359,-5.3379,-5.3437,-5.3125,-5.2988,-5.3828,-5.4023,-5.373,-5.2598,-5.2578,-5.2598,-5.1914,-5.0762,-5.0039,0.0,0.0,0.0,-5.1861,0.0,0.0,0.0,0.0,0.0,0.0,0.0,0.0,0.0,0.0,0.0,0.0,0.0,0.0,0.0,0.0,-5.4185,-5.5239,-5.8905,-6.1567,-6.3023,-6.3527,-6.405,-6.4387,-6.4687,-6.5176,-6.6092,-6.5765,-6.4806,-6.3334,-6.5251,-6.6101,-6.6112,-6.6112,-6.6112,-6.6112,-6.6162,-6.6043,-6.6339,-6.8575,-6.9332,-6.9421,0.0,0.0,0.0,0.0,0.0,-4.7246,-5.0,-5.3203,-5.5801,-5.7226,-6.1484,0.0,-6.5058,-6.6113,-6.6797,-6.6875,-6.6797,0.0,0.0,0.0,0.0,-6.3887,-6.2871,-6.1543,-5.9805,-5.584,-5.2832,0.0,0.0,0.0,0.0,-4.1738,-4.1133,-4.1074,-4.166,0.0,-4.3887,-4.6641,0.0,-4.8789,-5.0234,-5.1308,-5.209,-5.209,-5.2383,-5.293,-5.3652,-5.3906,-5.3926,-5.4004,-5.4023,-5.3965,-5.3594,-5.373,-5.3945,-5.3496,-5.3359,-5.3437,-5.3808,-5.3594,-5.3379,-5.3906,-5.4023,-5.3965,-5.375,-5.3457,-5.3301,-5.3535,-5.2539,-5.1367,-5.0449,0.0,0.0,0.0,0.0,0.0,0.0,0.0,0.0,0.0,0.0,-5.1498,0.0,0.0,0.0,0.0,0.0,0.0,0.0,0.0,-5.4009,0.0,-5.7575,0.0,0.0,0.0,-6.3409,-6.4061,-6.5251,-6.599,-6.6093,-6.4219,-6.4153,-6.5579,-6.5975,-6.6069,-6.6112,-6.6112,-6.6112,-6.6137,-6.6067,-6.6068,-6.6388,-6.8544,-6.932,-6.9614,0.0,0.0,0.0,0.0,0.0,0.0,0.0,-5.641,0.0,-5.832,-6.0742,-6.2754,-6.3164,-6.541,-6.6875,-6.6875,-6.6875,-6.6758,-6.6562,-6.6113,-6.5527,-6.4648,-6.3613,0.0,-6.1133,-5.7324,-5.418,-5.1777,0.0,0.0,0.0,0.0,-4.1055,-4.084,0.0,-4.2226,0.0,0.0,0.0,-4.8359,-5.0098,-5.1308,-5.2109,-5.2324,-5.2676,-5.3125,-5.3789,-5.418,-5.4394,-5.4609,-5.4551,-5.4336,-5.4121,-5.4043,-5.3984,-5.3769,-5.3711,-5.375,-5.3965,-5.4043,-5.4101,-5.4316,-5.4531,-5.4629,-5.4414,-5.4199,-5.3984,-5.373,-5.3008,-5.2188,-5.1282,-5.0053,0.0,0.0,0.0,0.0,0.0,0.0,0.0,0.0,0.0,0.0,0.0,0.0,0.0,0.0,0.0,0.0,0.0,0.0,-5.2251,0.0,0.0,0.0,-6.2295,0.0,-6.3527,-6.339,-6.4019,-6.4354,-6.437,-6.3266,-6.3439,-6.4368,-6.5528,-6.6152,-6.6112,-6.6112,-6.6112,-6.6137,-6.6142,-6.6741,-6.7919,-6.9027,-6.9401,-6.9596,0.0,-4.0326,0.0,0.0,-4.6767,0.0,0.0,-5.7564,-6.096,-5.9512,-6.0215,-6.1074,-6.1601,-6.4707,-6.6758,-6.6875,-6.6875,-6.668,-6.623,-6.5918,-6.5371,-6.4609,-6.3789,-6.291,-6.2012,-5.8789,-5.5469,0.0,0.0,0.0,0.0,0.0,0.0,0.0,0.0,0.0,0.0,0.0,-4.5957,-4.8359,-5.0,-5.1289,-5.2246,-5.2578,-5.3105,-5.3691,-5.4141,-5.4512,-5.4883,-5.5293,-5.5156,-5.4805,-5.4707,-5.4453,-5.416,-5.416,-5.416,-5.418,-5.4277,-5.4551,-5.4805,-5.4805,-5.5,-5.5078,-5.4746,-5.4473,-5.4101,-5.3476,-5.3008,-5.2521,-5.1413,-5.0135,0.0,0.0,0.0,0.0,0.0,0.0,0.0,0.0,0.0,0.0,-5.1222,0.0,0.0,0.0,0.0,0.0,-4.6753,0.0,0.0,0.0,0.0,-5.8251,-6.028,0.0,-6.3877,-6.3269,-6.2912,-6.2962,-6.3253,-6.3419,-6.3446,-6.3662,-6.5389,-6.6036,-6.6112,-6.6112,-6.6112,-6.6162,-6.6043,-6.7417,-6.9409,-6.9435,-6.9405,-6.9345,0.0,0.0,0.0,0.0,0.0,0.0,0.0,-5.5714,-5.9869,-6.3132,-6.414,-6.4765,-6.5586,-6.6035,-6.6445,-6.6816,-6.6875,-6.668,-6.623,-6.6172,-6.5937,-6.5488,-6.4648,-6.3789,-6.293,-6.0273,-5.668,0.0,0.0,-4.6094,0.0,0.0,0.0,0.0,0.0,0.0,0.0,-4.4141,-4.623,-4.832,-4.9687,-5.1211,-5.2656,-5.2695,-5.3476,-5.4609,-5.5039,-5.5215,-5.5312,-5.5742,-5.5605,-5.5176,-5.4805,-5.4648,-5.4629,-5.4629,-5.4629,-5.4707,-5.5078,-5.5215,-5.5254,-5.5254,-5.5,-5.4726,-5.4687,-5.375,-5.2988,-5.3301,-5.3008,-5.2051,-5.0051,-5.1371,-5.1798,0.0,0.0,0.0,0.0,0.0,-5.4696,-5.5052,0.0,0.0,-5.0845,-5.1875,0.0,0.0,-4.949,0.0,0.0,0.0,0.0,-5.0469,0.0,-5.7099,-6.0522,-6.213,-6.3552,-6.4697,-6.345,-6.3313,-6.4398,-6.5352,-6.5837,-6.5756,-6.5993,-6.6177,-6.6112,-6.6112,-6.6112,-6.6187,-6.6117,-6.7442,-6.9434,-6.9355,-6.9426,-6.932,0.0,0.0,0.0,0.0,0.0,0.0,0.0,-5.3889,-5.7032,-6.3412,-6.4668,-6.4416,-6.2935,-6.272,-6.2888,-6.3552,-6.3608,-6.4408,-6.6582,-6.6348,-6.6035,-6.5586,-6.4785,-6.3906,-6.3047,-6.0742,-5.7617,0.0,0.0,0.0,0.0,0.0,0.0,0.0,0.0,-4.1875,-4.3808,-4.4941,-4.6641,-4.875,-5.0586,-5.1875,-5.2793,-5.3594,-5.4219,-5.4765,-5.5449,-5.5683,-5.5742,-5.6172,-5.5879,-5.5273,-5.5117,-5.5058,-5.5058,-5.5058,-5.5058,-5.5098,-5.5254,-5.5488,-5.5683,-5.5683,-5.5566,-5.5371,-5.5117,-5.4453,-5.3789,-5.3437,-5.3008,-5.2441,-5.1601,-5.1249,-5.0815,0.0,0.0,0.0,0.0,0.0,0.0,-5.2429,0.0,-5.1247,0.0,0.0,0.0,0.0,0.0,0.0,0.0,0.0,0.0,-4.9891,0.0,-5.467,-5.7888,-6.1115,-6.3073,-6.3716,-6.311,-6.2995,-6.351,-6.3869,-6.4906,-6.6076,-6.6032,-6.6157,-6.6112,-6.6112,-6.6112,-6.6187,-6.6142,-6.7467,-6.9434,-6.938,-6.9451,-6.9501,-3.8734,0.0,-4.2232,0.0,-4.5011,-4.8003,-5.2315,-5.1889,-5.3763,-6.1362,-6.1928,-6.118,-6.0442,-6.0352,-6.0568,-6.122,-6.2168,-6.3881,-6.664,-6.6269,-6.5879,-6.5586,-6.4785,0.0,-6.3262,-6.1484,-5.8887,-5.543,-5.2051,0.0,0.0,0.0,0.0,0.0,-4.207,-4.3359,-4.5625,-4.6191,-4.7578,-4.959,-5.1367,-5.2402,-5.3027,-5.4219,-5.4844,-5.5117,-5.5723,-5.5937,-5.5976,-5.6289,-5.5996,-5.5488,-5.5488,-5.5488,-5.5488,-5.5488,-5.5488,-5.5527,-5.5644,-5.5898,-5.6133,-5.6133,-5.6035,-5.5859,-5.5566,-5.498,-5.4238,-5.334,-5.293,-5.2715,-5.2715,-5.1387,-5.0371,-5.0644,0.0,0.0,0.0,-5.3148,0.0,-5.1514,-5.1076,-5.0142,-4.7832,-4.8611,0.0,0.0,0.0,0.0,0.0,0.0,0.0,0.0,0.0,0.0,-5.6128,-6.0619,-6.283,-6.286,-6.2859,-6.2804,-6.2862,-6.3533,-6.4598,-6.6112,-6.6112,-6.6112,-6.6112,-6.6112,-6.6112,-6.6187,-6.6142,-6.7467,-6.9434,-6.938,-6.9451,-6.9501,-4.0052,-4.1992,-4.3716,-4.5502,-4.6374,-4.7911,-5.1449,-4.9593,-5.0076,-5.6707,-5.542,-5.5409,-5.9488,-6.019,-6.0568,-6.122,-6.4756,-6.668,-6.6269,-6.582,-6.5586,0.0,0.0,-6.414,-6.3691,-6.2773,-6.0625,-5.7187,0.0,0.0,-4.8105,0.0,-4.4355,-4.4394,-4.5234,-4.6094,-4.6953,-4.7812,-4.918,-5.0859,-5.1738,-5.2598,-5.3457,-5.4336,-5.5195,-5.5918,-5.5937,-5.5937,-5.5937,-5.5937,-5.5937,-5.5918,-5.5918,-5.5918,-5.5918,-5.5918,-5.5918,-5.6015,-5.6445,-5.6582,-5.6582,-5.6582,-5.625,-5.5937,-5.5918,-5.4941,-5.3789,-5.2891,-5.2715,-5.2715,-5.2715,-5.2344,-5.1367,-4.9277,0.0,0.0,0.0,-5.1427,0.0,-5.3542,-5.4132,-5.298,-4.9113,-4.9741,0.0,0.0,0.0,0.0,0.0,0.0,0.0,-4.8786,-5.1442,0.0,-5.6252,-6.0603,-6.2821,-6.283,-6.2834,-6.2847,-6.2898,-6.5097,-6.5993,-6.6112,-6.6112,-6.6112,-6.6112,-6.6112,-6.6112,-6.6187,-6.6142,-6.7467,-6.9434,-6.938,-6.9451,-6.9501,-4.0014,-4.0868,-4.1702,-4.2446,-4.2792,-4.4391,-4.8322,-4.6136,-4.6431,-5.3831,-4.9671,-4.7671,-5.1859,-5.4749,-5.6801,0.0,-6.0709,-6.4116,0.0,-6.6523,-6.623,-6.5605,-6.5351,-6.4551,-6.3262,-6.2656,-6.1094,-5.8555,0.0,0.0,0.0,-4.6641,-4.6113,-4.6152,-4.6719,-4.7773,-4.9199,-5.0039,-5.0898,-5.1758,-5.2617,-5.3301,-5.3906,-5.4785,-5.5449,-5.5976,-5.6269,-5.6387,-5.6387,-5.6387,-5.6387,-5.6387,-5.6387,-5.6387,-5.6387,-5.6387,-5.6387,-5.6406,-5.6543,-5.6582,-5.6582,-5.6582,-5.6484,-5.6308,-5.5996,-5.4941,-5.4023,-5.4043,-5.3574,-5.3144,-5.3144,-5.2793,-5.209,-5.082,-5.0371,0.0,-4.8493,0.0,-4.8756,-4.8313,-4.8567,-4.8313,-4.7182,-4.8761,0.0,0.0,0.0,0.0,0.0,0.0,0.0,0.0,-4.8939,0.0,-5.39,-5.8377,-6.1231,-6.283,-6.2834,-6.272,-6.2862,-6.5025,-6.6051,-6.6112,-6.6112,-6.6112,-6.6112,-6.6112,-6.6112,-6.6162,-6.6068,-6.7467,-6.9409,-6.9485,-6.943,-6.9451,-4.0214,-4.1464,-4.2822,-4.2954,-4.3438,-4.4271,-4.7093,-4.4544,-4.4376,-5.0296,-4.6349,-4.4265,-4.8041,-5.1199,0.0,-5.339,-5.9578,-6.3664,-6.473,-6.5922,-6.6328,-6.5644,-6.5293,-6.4473,-6.3086,0.0,0.0,-5.9648,-5.6894,-5.373,-5.0234,-4.9453,-4.9101,-4.9121,-4.9394,-5.0117,-5.1152,-5.1699,-5.207,-5.2383,-5.3262,-5.3887,-5.4375,-5.5215,-5.5801,-5.6211,-5.6484,-5.6582,-5.6582,-5.6582,-5.6582,-5.6582,-5.6582,-5.6582,-5.6582,-5.6582,-5.6582,-5.6582,-5.6582,-5.6582,-5.6582,-5.6582,-5.6582,-5.6465,-5.6035,-5.5195,-5.4551,-5.4648,-5.3848,-5.3164,-5.334,-5.2734,-5.2051,-5.1523,-5.0723,-4.9453,-4.7383,0.0,-4.6859,0.0,0.0,0.0,0.0,-4.949,-5.0368,0.0,0.0,0.0,0.0,0.0,0.0,-5.021,-4.852,0.0,-5.291,-5.7228,-6.0637,-6.283,-6.2834,-6.282,-6.2801,-6.51,-6.6026,-6.6112,-6.6112,-6.6112,-6.6112,-6.6112,-6.6112,-6.6137,-6.6142,-6.6991,-6.8197,-6.9054,-6.9329,-6.9451,-4.0508,-4.3294,0.0,0.0,-4.6423,0.0,-4.687,-4.418,-4.3311,-4.6814,-4.4639,-4.443,-4.7755,-4.9151,-4.9704,-4.9784,0.0,0.0,0.0,-6.4389,-6.5785,-6.5586,-6.4785,-6.3965,-6.3047,-6.2598,-6.1719,-6.043,-5.7539,-5.5703,-5.4863,-5.3555,-5.291,-5.2891,-5.2832,-5.2793,-5.2793,-5.2832,-5.2851,-5.293,-5.3769,-5.4375,-5.4863,-5.5644,-5.6211,-5.6582,-5.6582,-5.6582,-5.6582,-5.6582,-5.6582,-5.6582,-5.6582,-5.6582,-5.6582,-5.6582,-5.6582,-5.6582,-5.6582,-5.6582,-5.6582,-5.6582,-5.6582,-5.6484,-5.6074,-5.5625,-5.5195,-5.4805,-5.3691,-5.291,-5.3262,-5.2324,-5.1484,-5.1367,-5.0796,-4.9306,-4.6699,-4.6471,-4.6677,0.0,0.0,0.0,0.0,-5.1498,-5.1749,0.0,0.0,0.0,0.0,0.0,-5.0513,-4.9682,-4.991,-5.1048,-5.3299,-5.7531,-6.0712,-6.2855,-6.286,-6.2845,-6.2801,-6.5067,-6.6019,-6.6112,-6.6112,-6.6112,-6.6112,-6.6112,-6.6112,-6.6137,-6.6117,-6.6092,-6.6363,-6.865,-6.9329,-6.9451,0.0,0.0,-4.2339,-4.282,-4.3013,-4.3164,-4.3426,-4.2724,-4.2471,-4.3297,-4.3089,-4.3143,-4.4173,-4.7492,-4.8655,-4.6404,-5.3853,-5.945,-6.156,-6.2296,-6.3496,-6.5605,-6.5058,-6.4238,-6.3047,-6.2598,-6.1719,-6.043,-5.875,-5.7637,-5.709,-5.5781,-5.5,-5.4668,-5.4004,-5.3711,-5.373,-5.4082,-5.4219,-5.4258,-5.4785,-5.5254,-5.5664,-5.5859,-5.6211,-5.6582,-5.6582,-5.6582,-5.6582,-5.6582,-5.6582,-5.6582,-5.6582,-5.6582,-5.6582,-5.6582,-5.6582,-5.6582,-5.6582,-5.6582,-5.6582,-5.6582,-5.6582,-5.6562,-5.6445,-5.584,-5.5273,-5.5176,-5.4394,-5.3535,-5.2969,-5.2617,-5.1973,-5.0683,-5.0715,-5.0019,-4.7274,-4.7517,-4.767,0.0,-4.8376,-4.9648,-5.0989,-5.2076,-5.2779,0.0,0.0,0.0,0.0,-5.2429,-5.1501,-4.9623,-5.2937,-5.5707,-5.7839,-6.072,-6.224,-6.2885,-6.2884,-6.2738,-6.2801,-6.515,-6.6076,-6.6112,-6.6112,-6.6112,-6.6112,-6.6112,-6.6112,-6.6112,-6.6015,-6.6068,-6.6339,-6.8575,-6.9485,-6.9451,-4.0869,-4.1122,-4.1416,-4.171,-4.1897,-4.2071,-4.2365,-4.2405,-4.2472,-4.2592,-4.2873,-4.3127,-4.3273,-4.5641,-4.642,-4.4917,-5.1746,-5.6391,-5.682,-5.8182,-6.0429,-6.3036,-6.2664,-6.2379,-6.3066,-6.2402,-6.1543,-6.043,-5.9355,-5.8594,-5.8144,-5.7441,-5.668,-5.5879,-5.541,-5.498,-5.4629,-5.4863,-5.4961,-5.498,-5.5215,-5.5566,-5.5937,-5.5937,-5.6211,-5.6582,-5.6582,-5.6582,-5.6582,-5.6582,-5.6582,-5.6582,-5.6582,-5.6582,-5.6582,-5.6582,-5.6582,-5.6582,-5.6582,-5.6582,-5.6582,-5.6582,-5.6582,-5.6523,-5.6328,-5.5781,-5.5254,-5.5058,-5.416,-5.334,-5.3066,-5.2519,-5.1641,-5.0117,-5.0358,-4.9749,-4.6733,-4.7288,-4.8089,-4.8282,-4.9411,-5.0857,-5.2992,-5.416,-5.4511,-5.3808,-5.4175,0.0,-5.147,-5.2346,-5.1888,-4.9653,-5.4917,-5.8252,-5.9553,-6.176,-6.2795,-6.2822,-6.2859,-6.3385,-6.4404,-6.5588,-6.617,-6.6112,-6.6112,-6.6112,-6.6112,-6.6112,-6.6112,-6.6112,-6.6112,-6.6067,-6.6316,-6.86,-6.9308,-6.943,-4.0976,-4.1416,-4.179,-4.1857,-4.2044,-4.2325,-4.2619,-4.2659,-4.2766,-4.306,-4.334,-4.3527,-4.3527,-4.3888,-4.4222,-4.4476,-5.0762,-5.3678,-5.0975,-5.4115,-5.753,-6.0171,-5.9844,-6.08,-6.3066,-6.2051,-6.1133,-6.0332,-5.957,-5.9004,-5.8652,-5.8574,-5.7949,-5.6875,-5.6816,-5.6328,-5.5605,-5.5605,-5.5547,-5.5508,-5.5508,-5.5723,-5.6035,-5.6035,-5.625,-5.6582,-5.6582,-5.6582,-5.6582,-5.6582,-5.6582,-5.6582,-5.6582,-5.6582,-5.6582,-5.6582,-5.6582,-5.6582,-5.6582,-5.6582,-5.6582,-5.6582,-5.6543,-5.6406,-5.6094,-5.5605,-5.5137,-5.4844,-5.3789,-5.2988,-5.3223,-5.2305,-5.1074,-4.9648,-4.9891,-4.9216,-4.6121,0.0,-4.8707,-4.979,-5.1081,-5.301,-5.5622,-5.6746,-5.6545,-5.4854,-5.5652,-5.4545,-5.0612,-5.1986,-5.2356,-5.113,-5.6575,-5.9692,-6.0022,-6.1832,-6.2822,-6.2822,-6.2873,-6.3741,-6.5528,-6.595,-6.6019,-6.6036,-6.6086,-6.6112,-6.6112,-6.6112,-6.6112,-6.6112,-6.6112,-6.6165,-6.6292,-6.8221,-6.9106,-6.9433,-4.1229,-4.1563,-4.1857,-4.2111,-4.2178,-4.2325,-4.2619,-4.2659,-4.2766,-4.306,-4.334,-4.3527,-4.3527,-4.4262,-4.477,-4.481,-4.643,-4.8292,-5.0631,-5.3765,-5.7224,-6.0171,-6.2117,-6.3035,-6.3027,-6.1465,-6.039,-5.9922,-5.9414,-5.9121,-5.9062,-5.8711,-5.8418,-5.8203,-5.7851,-5.7383,-5.6914,-5.6914,-5.6719,-5.6387,-5.6387,-5.6426,-5.6484,-5.6484,-5.6523,-5.6582,-5.6582,-5.6582,-5.6582,-5.6582,-5.6582,-5.6582,-5.6582,-5.6582,-5.6582,-5.6582,-5.6582,-5.6582,-5.6582,-5.6582,-5.6582,-5.6582,-5.6308,-5.6113,-5.6406,-5.5605,-5.4863,-5.5156,-5.4473,-5.3613,-5.293,-5.2363,-5.1328,-4.9297,-5.0005,-5.0008,-4.7794,0.0,-5.2272,-5.2964,-5.4807,-5.665,-5.8052,-5.8353,-5.8328,-5.7976,-5.6924,-5.5435,-5.3888,-5.3203,-5.4448,-5.7775,-5.9033,-6.0342,-6.2265,-6.2709,-6.2822,-6.2822,-6.277,-6.3045,-6.3319,-6.5294,-6.612,-6.6051,-6.6157,-6.6112,-6.6112,-6.6112,-6.6112,-6.6112,-6.6112,-6.6142,-6.6165,-6.654,-6.784,-6.9376,-4.1082,-4.1483,-4.1817,-4.1964,-4.2111,-4.2365,-4.2846,-4.2886,-4.2993,-4.3273,-4.3594,-4.3714,-4.3567,-4.4182,-4.4583,-4.4409,-4.509,-4.6186,-4.7444,-4.9294,-5.2398,-5.7331,-5.7932,-5.9472,-6.2324,-6.1074,-6.0332,-6.0156,-5.9512,-5.918,-5.918,-5.9004,-5.8769,-5.8535,-5.832,-5.7969,-5.7539,-5.7305,-5.709,-5.6894,-5.668,-5.6582,-5.6582,-5.6582,-5.6582,-5.6582,-5.6582,-5.6582,-5.6582,-5.6582,-5.6582,-5.6582,-5.6582,-5.6582,-5.6582,-5.6582,-5.6582,-5.6582,-5.6582,-5.6582,-5.6582,-5.6582,-5.6426,-5.6269,-5.625,-5.5605,-5.5019,-5.498,-5.4277,-5.3476,-5.2832,-5.2168,-5.1381,-5.0621,-5.0336,0.0,0.0,-5.192,-5.3758,-5.4913,-5.7022,-5.8805,-5.991,-6.0035,-6.009,-6.0277,-5.9211,-5.8152,-5.73,-5.6773,-5.7343,-5.9386,-6.0725,-6.1702,-6.2759,-6.2747,-6.2822,-6.2822,-6.2809,-6.273,-6.2745,-6.3794,-6.4931,-6.6057,-6.6032,-6.6132,-6.6112,-6.6112,-6.6112,-6.6112,-6.6112,-6.6067,-6.6217,-6.7417,-6.8574,-6.938,-4.1016,-4.1497,-4.1897,-4.1897,-4.2071,-4.2405,-4.302,-4.302,-4.3127,-4.3567,-4.3781,-4.3821,-4.3674,-4.4182,-4.4436,-4.4115,-4.4837,-4.5197,-4.4917,-4.5318,-4.8235,-5.472,-5.5631,-5.7771,-6.1505,-6.0957,-6.0547,-6.043,-5.9805,-5.9414,-5.9355,-5.9355,-5.9121,-5.8711,-5.8711,-5.8437,-5.7988,-5.7656,-5.7402,-5.7187,-5.6855,-5.668,-5.6582,-5.6582,-5.6582,-5.6582,-5.6582,-5.6582,-5.6582,-5.6582,-5.6582,-5.6582,-5.6582,-5.6582,-5.6601,-5.6699,-5.6738,-5.6719,-5.6621,-5.6582,-5.6582,-5.6582,-5.6504,-5.6367,-5.6133,-5.5683,-5.5215,-5.4883,-5.4199,-5.3659,-5.3589,-5.2756,-5.2107,-5.2111,0.0,0.0,0.0,-5.3173,-5.4913,-5.6595,-5.8629,-6.0337,-6.1441,-6.1567,-6.1659,-6.1757,-6.1397,-6.0733,-5.9998,-6.0199,-6.0242,-6.0317,-6.1886,-6.282,-6.2822,-6.2822,-6.2822,-6.2822,-6.2822,-6.2745,-6.2887,-6.3344,-6.4237,-6.5389,-6.5855,-6.6057,-6.6112,-6.6112,-6.6112,-6.6112,-6.6112,-6.619,-6.6342,-6.8549,-6.9435,-6.9458,-4.131,-4.1777,-4.2178,-4.2178,-4.2218,-4.2405,-4.302,-4.2873,-4.2993,-4.3861,-4.3741,-4.3674,-4.3928,-4.4476,-4.473,-4.4436,-4.4943,-4.5197,-4.4917,-4.4917,-4.8046,-5.4687,-5.9703,-6.2163,-6.1719,-6.1269,-6.084,-6.043,-6.0371,-6.0156,-5.9765,-5.9765,-5.9531,-5.9121,-5.9121,-5.8887,-5.8476,-5.8476,-5.7969,-5.7207,-5.7187,-5.6933,-5.6582,-5.6582,-5.6582,-5.6582,-5.6582,-5.6582,-5.6582,-5.6582,-5.6582,-5.6582,-5.6582,-5.6582,-5.666,-5.7051,-5.7168,-5.707,-5.6699,-5.6582,-5.6582,-5.6582,-5.6289,-5.6074,-5.6445,-5.5898,-5.5293,-5.5273,-5.4902,-5.4996,-5.6014,-5.5383,-5.4457,-5.3654,0.0,0.0,-5.1645,-5.401,-5.6646,-5.8328,-6.0035,-6.1492,-6.2596,-6.2697,-6.2471,-6.2079,-6.2391,-6.2139,-6.1198,-6.2053,-6.2618,-6.2602,-6.2754,-6.282,-6.2822,-6.2822,-6.2822,-6.2822,-6.2822,-6.2847,-6.2948,-6.4855,-6.4773,-6.3191,-6.5288,-6.6086,-6.6112,-6.6112,-6.6112,-6.6112,-6.6112,-6.6167,-6.6289,-6.865,-6.9409,-6.9401,-4.1082,-4.1563,-4.1964,-4.1964,-4.2111,-4.2365,-4.2766,-4.2886,-4.3127,-4.3634,-4.3781,-4.3861,-4.4008,-4.4369,-4.4476,-4.4182,-4.469,-4.4917,-4.4623,-4.4623,-4.7602,-5.4033,-5.7846,-6.0513,-6.2109,-6.1426,-6.1015,-6.084,-6.0566,-6.0371,-6.0215,-5.9922,-5.9746,-5.957,-5.9297,-5.9062,-5.8945,-5.8652,-5.8359,-5.8008,-5.7734,-5.7519,-5.7344,-5.707,-5.7148,-5.7305,-5.6777,-5.6758,-5.6933,-5.668,-5.6758,-5.6973,-5.6973,-5.7168,-5.7363,-5.7246,-5.7207,-5.7129,-5.6699,-5.6582,-5.6582,-5.6582,-5.6465,-5.6387,-5.6543,-5.6133,-5.5703,-5.5703,-5.5156,-5.5234,-5.6957,-5.6374,-5.605,-5.8287,0.0,-5.6152,-5.678,-5.7697,-5.8755,-6.0085,-6.1718,-6.3023,-6.3776,-6.3852,-6.3626,-6.3099,-6.3338,-6.3086,-6.2245,-6.2532,-6.2846,-6.2809,-6.2809,-6.286,-6.2822,-6.2822,-6.2822,-6.2822,-6.2822,-6.2784,-6.282,-6.3751,-6.4329,-6.4957,-6.5729,-6.6107,-6.6112,-6.6112,-6.6112,-6.6112,-6.6112,-6.6167,-6.6339,-6.865,-6.9409,-6.9451,-4.0909,-4.139,-4.179,-4.179,-4.2031,-4.2325,-4.2619,-4.2766,-4.2953,-4.334,-4.3567,-4.3754,-4.3861,-4.4222,-4.4329,-4.4035,-4.4449,-4.4623,-4.4329,-4.4289,-4.6777,-5.2145,-5.5925,-5.8867,-6.082,-6.1252,-6.1269,-6.1269,-6.0976,-6.0781,-6.0625,-6.0215,-5.9922,-5.9805,-5.9355,-5.918,-5.918,-5.8887,-5.8652,-5.8535,-5.8203,-5.791,-5.7637,-5.7324,-5.7402,-5.7578,-5.6992,-5.7051,-5.7344,-5.6914,-5.6973,-5.7207,-5.7207,-5.7617,-5.8027,-5.7715,-5.7617,-5.7539,-5.7109,-5.6894,-5.6758,-5.6621,-5.6582,-5.6582,-5.6582,-5.6348,-5.6305,-5.6971,-5.6076,-5.5837,-5.8627,-5.8128,-5.8204,-6.0934,-6.0147,-5.9593,-6.0756,-6.0839,-6.109,-6.1868,-6.3124,-6.4078,-6.4429,-6.4454,-6.4254,-6.3726,-6.3751,-6.35,-6.2873,-6.2822,-6.2822,-6.2822,-6.2822,-6.2822,-6.2822,-6.2822,-6.2822,-6.2822,-6.2822,-6.2784,-6.2845,-6.2779,-6.3936,-6.6162,-6.6094,-6.6152,-6.6112,-6.6112,-6.6112,-6.6112,-6.6112,-6.6167,-6.6339,-6.865,-6.9409,-6.9451,-4.0909,-4.139,-4.179,-4.179,-4.2031,-4.2325,-4.2619,-4.2405,-4.2432,-4.302,-4.31,-4.3207,-4.3487,-4.4075,-4.4329,-4.4035,-4.4262,-4.4289,-4.4008,-4.4008,-4.5532,-4.8832,-5.4685,-5.7764,-5.8007,-6.044,-6.1719,-6.1719,-6.1719,-6.1484,-6.1094,-6.0664,-6.0215,-5.9805,-5.9355,-5.918,-5.918,-5.918,-5.8945,-5.8535,-5.8535,-5.8008,-5.7226,-5.7226,-5.7226,-5.7226,-5.7226,-5.75,-5.7793,-5.7363,-5.7226,-5.7226,-5.7226,-5.7832,-5.8535,-5.8535,-5.8535,-5.8418,-5.7969,-5.7539,-5.7109,-5.6699,-5.6582,-5.6582,-5.6582,-5.6582,-5.7276,-5.9471,-5.7748,-5.7137,-6.1048,-6.1154,-6.0764,-6.0605,-6.286,-6.3927,-6.227,-6.2998,-6.3701,-6.3701,-6.4153,-6.4479,-6.4479,-6.4479,-6.4279,-6.3751,-6.3751,-6.35,-6.2873,-6.2822,-6.2822,-6.2822,-6.2822,-6.2822,-6.2822,-6.2822,-6.2822,-6.2822,-6.2822,-6.2822,-6.2847,-6.2845,-6.3977,-6.6143,-6.6162,-6.6152,-6.6112,-6.6112,-6.6112,-6.6112,-6.6112,-6.6167,-6.6339,-6.865,-6.9409,-6.9451,-4.0909,-4.139,-4.179,-4.179,-4.2031,-4.2258,-4.2325,-4.2619,-4.2833,-4.2806,-4.3127,-4.342,-4.3527,-4.3674,-4.3861,-4.4008,-4.4075,-4.4008,-4.3674,-4.3487,-4.3859,-4.4895,-5.0956,-5.5424,-5.761,-6.0288,-6.1719,-6.1719,-6.1719,-6.166,-6.1543,-6.1094,-6.0664,-6.0215,-5.9805,-5.9473,-5.918,-5.918,-5.9121,-5.9004,-5.9004,-5.8828,-5.8555,-5.8242,-5.832,-5.8496,-5.791,-5.7969,-5.8262,-5.7793,-5.7851,-5.8183,-5.8496,-5.8555,-5.8535,-5.8535,-5.8535,-5.8359,-5.7617,-5.7539,-5.75,-5.6758,-5.6582,-5.666,-5.6953,-5.6797,-5.7455,-6.0281,-5.9803,-6.0226,-6.5127,-6.3765,-6.302,-6.626,-6.5226,-6.4245,-6.5414,-6.5107,-6.4957,-6.5333,-6.5183,-6.5208,-6.5584,-6.5609,-6.5383,-6.4856,-6.3811,-6.311,-6.2847,-6.2822,-6.2822,-6.2822,-6.2822,-6.2822,-6.2822,-6.2822,-6.2822,-6.2822,-6.2822,-6.2822,-6.2847,-6.2845,-6.3194,-6.3927,-6.5445,-6.6026,-6.6127,-6.6011,-6.6112,-6.6112,-6.6112,-6.6167,-6.6339,-6.865,-6.9409,-6.9451,-4.0735,-4.1203,-4.1603,-4.1603,-4.1964,-4.2258,-4.2365,-4.2579,-4.2726,-4.2659,-4.306,-4.3354,-4.3354,-4.3567,-4.3781,-4.3995,-4.3888,-4.3741,-4.3527,-4.3247,-4.306,-4.2913,-4.7895,-5.2267,-5.5478,-5.828,-6.0491,-6.1719,-6.1719,-6.1719,-6.1719,-6.1094,-6.0683,-6.043,-5.9805,-5.9414,-5.918,-5.918,-5.918,-5.918,-5.918,-5.9062,-5.8887,-5.8652,-5.8711,-5.8828,-5.832,-5.8418,-5.8711,-5.8262,-5.8301,-5.8594,-5.8828,-5.8887,-5.8769,-5.8769,-5.8769,-5.8594,-5.7715,-5.7656,-5.7656,-5.6797,-5.6582,-5.6699,-5.7109,-5.7831,-5.9414,-6.2523,-6.2632,-6.3452,-6.7469,-6.5357,-6.4256,-6.7844,-6.6633,-6.5751,-6.769,-6.7367,-6.689,-6.6789,-6.6488,-6.6338,-6.6438,-6.6463,-6.6061,-6.5276,-6.3644,-6.273,-6.2859,-6.2859,-6.2745,-6.287,-6.287,-6.287,-6.287,-6.287,-6.2745,-6.2822,-6.2822,-6.2822,-6.2822,-6.2859,-6.287,-6.2879,-6.4136,-6.5226,-6.6145,-6.6177,-6.6157,-6.6112,-6.6112,-6.6092,-6.6316,-6.8623,-6.9384,-6.943,-4.0508,-4.0949,-4.1336,-4.1376,-4.1857,-4.2298,-4.2592,-4.2445,-4.2365,-4.2592,-4.2913,-4.31,-4.31,-4.3607,-4.3928,-4.4008,-4.3674,-4.3487,-4.3487,-4.3207,-4.2913,-4.2632,-4.5345,-4.8801,-5.2218,-5.5336,-5.8532,-6.1719,-6.1719,-6.1719,-6.1719,-6.0898,-6.0488,-6.039,-5.959,-5.9238,-5.918,-5.918,-5.918,-5.918,-5.918,-5.8945,-5.8594,-5.8594,-5.8594,-5.8594,-5.8594,-5.8828,-5.9121,-5.8711,-5.8594,-5.8594,-5.8594,-5.8887,-5.918,-5.918,-5.918,-5.9004,-5.8144,-5.791,-5.7734,-5.6894,-5.6699,-5.6797,-5.7187,-5.9335,-6.2147,-6.5499,-6.5782,-6.6279,-6.8866,-6.6535,-6.5043,-6.7344,-6.744,-6.7699,-6.9414,-6.9526,-6.9074,-6.807,-6.7869,-6.7593,-6.7041,-6.694,-6.6485,-6.5193,-6.3786,-6.2929,-6.2879,-6.2954,-6.3103,-6.3043,-6.3043,-6.3043,-6.3043,-6.3043,-6.3053,-6.2759,-6.2759,-6.2734,-6.2873,-6.2873,-6.2859,-6.2829,-6.2954,-6.4111,-6.5899,-6.6145,-6.6177,-6.6112,-6.6112,-6.614,-6.6367,-6.8417,-6.9129,-6.9155,-4.0762,-4.1096,-4.1416,-4.1644,-4.1964,-4.2258,-4.2298,-4.2659,-4.2766,-4.2365,-4.2766,-4.31,-4.31,-4.3207,-4.3487,-4.3968,-4.3501,-4.3207,-4.3207,-4.2699,-4.2365,-4.2325,-4.3071,-4.5991,-5.1857,-5.5213,-5.8532,-6.1719,-6.1719,-6.1719,-6.1719,-6.1191,-6.0781,-6.043,-5.9922,-5.9473,-5.918,-5.918,-5.918,-5.918,-5.918,-5.9121,-5.9062,-5.9062,-5.9062,-5.9062,-5.9062,-5.9121,-5.918,-5.9062,-5.9062,-5.9062,-5.9062,-5.9121,-5.918,-5.918,-5.918,-5.9062,-5.8535,-5.8379,-5.8262,-5.7715,-5.7578,-5.7598,-5.7695,-5.8131,-6.0138,-6.5591,-6.6028,-6.6797,-7.1588,-6.9889,-6.8486,-7.1179,-6.9404,-6.8659,-7.1013,-7.0255,-6.9351,-6.9125,-6.8321,-6.7593,-6.7041,-6.6564,-6.6233,-6.5798,-6.4737,-6.3657,-6.2869,-6.4521,-6.5427,-6.5335,-6.5335,-6.5335,-6.5335,-6.5335,-6.4571,-6.2745,-6.2745,-6.2788,-6.273,-6.273,-6.2754,-6.2879,-6.4663,-6.5218,-6.4988,-6.576,-6.6036,-6.6112,-6.6112,-6.614,-6.6118,-6.6666,-6.6816,-6.6887,-4.1082,-4.135,-4.1644,-4.1924,-4.2218,-4.2472,-4.2619,-4.2766,-4.2846,-4.2659,-4.2913,-4.3127,-4.3273,-4.342,-4.3648,-4.3968,-4.3461,-4.31,-4.31,-4.2686,-4.2365,-4.2218,-4.3843,-4.7018,-5.2018,-5.5318,-5.8737,-6.1719,-6.1719,-6.1719,-6.1719,-6.1269,-6.0859,-6.043,-5.998,-5.959,-5.918,-5.918,-5.918,-5.918,-5.918,-5.918,-5.918,-5.918,-5.918,-5.918,-5.918,-5.918,-5.918,-5.918,-5.918,-5.918,-5.918,-5.918,-5.918,-5.918,-5.918,-5.9062,-5.8652,-5.8359,-5.8086,-5.7656,-5.7558,-5.7656,-5.8086,-5.92,-6.1213,-6.4402,-6.6633,-6.8924,-7.154,-7.0444,-6.9791,-7.2361,-7.0273,-6.919,-7.1537,-7.1158,-7.043,-6.9903,-6.9325,-6.8547,-6.7467,-6.6865,-6.6237,-6.5679,-6.5528,-6.4838,-6.3707,-6.515,-6.6112,-6.6094,-6.6094,-6.6094,-6.6094,-6.6094,-6.5528,-6.4374,-6.4387,-6.4329,-6.4345,-6.3228,-6.2862,-6.2937,-6.5158,-6.5858,-6.5308,-6.5881,-6.6132,-6.6112,-6.6112,-6.604,-6.6017,-6.6017,-6.6068,-6.6316,-4.1416,-4.1603,-4.1897,-4.2218,-4.2512,-4.2766,-4.306,-4.2953,-4.2873,-4.306,-4.3127,-4.3273,-4.3487,-4.3821,-4.4008,-4.4008,-4.3461,-4.31,-4.31,-4.2766,-4.2726,-4.2949,-4.59,-4.9128,-5.2747,-5.5717,-5.8904,-6.1719,-6.1719,-6.1719,-6.1719,-6.1211,-6.0781,-6.043,-5.9922,-5.9512,-5.918,-5.918,-5.918,-5.918,-5.918,-5.918,-5.918,-5.918,-5.918,-5.918,-5.918,-5.918,-5.918,-5.918,-5.918,-5.918,-5.918,-5.918,-5.918,-5.918,-5.918,-5.9121,-5.8769,-5.8379,-5.7969,-5.7539,-5.7441,-5.7617,-5.8262,-6.0353,-6.2171,-6.3196,-6.6872,-7.0116,-7.0022,-7.0094,-7.0616,-7.2386,-7.0828,-6.9816,-7.1587,-7.1836,-7.1435,-7.0506,-7.0229,-6.9501,-6.7945,-6.7292,-6.6538,-6.5509,-6.578,-6.5704,-6.4843,-6.5679,-6.6177,-6.6112,-6.6112,-6.6112,-6.6112,-6.6112,-6.6112,-6.6112,-6.6069,-6.6102,-6.6026,-6.4262,-6.3409,-6.3459,-6.5218,-6.6086,-6.6051,-6.6051,-6.6032,-6.6112,-6.6112,-6.6112,-6.6112,-6.6112,-6.6115,-6.6342,-4.167,-4.175,-4.1964,-4.2512,-4.2632,-4.2766,-4.306,-4.3273,-4.334,-4.3127,-4.3314,-4.3487,-4.3527,-4.3821,-4.4008,-4.4008,-4.3461,-4.31,-4.31,-4.2579,-4.3481,-4.6372,-4.6899,-5.0079,-5.6137,-5.6668,-5.8588,-6.1719,-6.1719,-6.1719,-6.1719,-6.0898,-6.0488,-6.039,-5.9629,-5.9238,-5.918,-5.918,-5.918,-5.918,-5.918,-5.918,-5.918,-5.918,-5.918,-5.918,-5.918,-5.918,-5.918,-5.918,-5.918,-5.918,-5.918,-5.918,-5.918,-5.918,-5.918,-5.918,-5.9121,-5.9062,-5.8887,-5.8476,-5.8359,-5.8301,-5.8027,-5.8462,-5.9797,-6.2366,-6.4919,-6.7325,-6.9254,-7.0981,-7.2411,-7.274,-7.1937,-7.1587,-7.1912,-7.1485,-7.1133,-7.0983,-7.0129,-6.91,-6.7919,-6.7292,-6.6714,-6.6036,-6.6036,-6.6011,-6.5961,-6.6011,-6.6061,-6.6112,-6.6112,-6.6112,-6.6112,-6.6112,-6.6112,-6.6112,-6.6011,-6.6177,-6.6069,-6.5773,-6.5698,-6.5723,-6.6019,-6.6076,-6.6036,-6.6036,-6.6061,-6.6112,-6.6112,-6.6112,-6.6112,-6.6112,-6.6137,-6.6262,-4.2258,-4.2405,-4.2659,-4.306,-4.3127,-4.3207,-4.3314,-4.3447,-4.3487,-4.3354,-4.3461,-4.3594,-4.3781,-4.3754,-4.3821,-4.3995,-4.3607,-4.3273,-4.31,-4.2846,-4.3289,-4.4194,-4.8028,-5.1466,-5.4181,-5.8042,-6.0505,-6.1719,-6.1719,-6.1601,-6.1367,-6.0976,-6.0547,-6.0098,-5.9687,-5.9414,-5.918,-5.918,-5.918,-5.918,-5.918,-5.918,-5.918,-5.918,-5.918,-5.918,-5.918,-5.918,-5.918,-5.918,-5.918,-5.918,-5.918,-5.918,-5.918,-5.918,-5.918,-5.918,-5.918,-5.8828,-5.8379,-5.8203,-5.7793,-5.7461,-5.748,-5.7851,-5.8583,-5.9813,-6.3185,-6.6211,-6.6934,-7.0519,-7.2991,-7.2364,-7.2339,-7.2163,-7.1535,-7.1761,-7.1786,-7.1158,-7.038,-6.9351,-6.7945,-6.7568,-6.7066,-6.6187,-6.6112,-6.6112,-6.6112,-6.6112,-6.6112,-6.6112,-6.6112,-6.6112,-6.6112,-6.6112,-6.6112,-6.6112,-6.6112,-6.6036,-6.6057,-6.6057,-6.6057,-6.6057,-6.6057,-6.6157,-6.6112,-6.6112,-6.6112,-6.6112,-6.6112,-6.6112,-6.6112,-6.6112,-6.6112,-6.6187]}]]